<?xml version="1.0" encoding="UTF-8" standalone="no" ?>
<gpx xmlns="http://www.topografix.com/GPX/1/1" xmlns:xsi="http://www.w3.org/2001/XMLSchema-instance" xsi:schemaLocation="http://www.topografix.com/GPX/1/1 http://www.topografix.com/GPX/1/1/gpx.xsd" version="1.1" creator="VisuGPX - https://www.visugpx.com">
  <metadata>
    <name>Sortie hivernale 10ième (marcheurs-matin)</name>
    <desc><![CDATA[Sortie hivernale 10ième (marcheurs-matin)]]></desc>
  </metadata>
  <trk>
    <name><![CDATA[Sortie des z'amis 10e Edition Matin]]></name>
    <trkseg>
      <trkpt lat="50.38785" lon="4.32736">
        <ele>152.60000610352</ele>
        <time>2014-12-29T07:48:59.000Z</time>
      </trkpt>
      <trkpt lat="50.38783" lon="4.32738">
        <ele>152.39999389648</ele>
        <time>2014-12-29T07:49:01.000Z</time>
      </trkpt>
      <trkpt lat="50.3878" lon="4.32742">
        <ele>152.19999694824</ele>
        <time>2014-12-29T07:49:05.000Z</time>
      </trkpt>
      <trkpt lat="50.38772" lon="4.32744">
        <ele>151.60000610352</ele>
        <time>2014-12-29T07:49:13.000Z</time>
      </trkpt>
      <trkpt lat="50.38761" lon="4.3275">
        <ele>150.80000305176</ele>
        <time>2014-12-29T07:49:22.000Z</time>
      </trkpt>
      <trkpt lat="50.38751" lon="4.32754">
        <ele>150.19999694824</ele>
        <time>2014-12-29T07:49:31.000Z</time>
      </trkpt>
      <trkpt lat="50.38747" lon="4.32758">
        <ele>150</ele>
        <time>2014-12-29T07:49:36.000Z</time>
      </trkpt>
      <trkpt lat="50.38739" lon="4.32765">
        <ele>149.39999389648</ele>
        <time>2014-12-29T07:49:45.000Z</time>
      </trkpt>
      <trkpt lat="50.38732" lon="4.32766">
        <ele>149</ele>
        <time>2014-12-29T07:49:51.000Z</time>
      </trkpt>
      <trkpt lat="50.38725" lon="4.32752">
        <ele>148.60000610352</ele>
        <time>2014-12-29T07:50:03.000Z</time>
      </trkpt>
      <trkpt lat="50.38721" lon="4.32732">
        <ele>148.39999389648</ele>
        <time>2014-12-29T07:50:15.000Z</time>
      </trkpt>
      <trkpt lat="50.38718" lon="4.32717">
        <ele>148.19999694824</ele>
        <time>2014-12-29T07:50:24.000Z</time>
      </trkpt>
      <trkpt lat="50.38714" lon="4.32704">
        <ele>148</ele>
        <time>2014-12-29T07:50:32.000Z</time>
      </trkpt>
      <trkpt lat="50.38711" lon="4.32687">
        <ele>148.19999694824</ele>
        <time>2014-12-29T07:50:41.000Z</time>
      </trkpt>
      <trkpt lat="50.38708" lon="4.32675">
        <ele>148.39999389648</ele>
        <time>2014-12-29T07:50:48.000Z</time>
      </trkpt>
      <trkpt lat="50.38705" lon="4.32662">
        <ele>148.80000305176</ele>
        <time>2014-12-29T07:50:56.000Z</time>
      </trkpt>
      <trkpt lat="50.38701" lon="4.32642">
        <ele>149.39999389648</ele>
        <time>2014-12-29T07:51:08.000Z</time>
      </trkpt>
      <trkpt lat="50.38699" lon="4.32633">
        <ele>149.60000610352</ele>
        <time>2014-12-29T07:51:14.000Z</time>
      </trkpt>
      <trkpt lat="50.38695" lon="4.32621">
        <ele>149.80000305176</ele>
        <time>2014-12-29T07:51:22.000Z</time>
      </trkpt>
      <trkpt lat="50.38691" lon="4.32609">
        <ele>150</ele>
        <time>2014-12-29T07:51:30.000Z</time>
      </trkpt>
      <trkpt lat="50.38686" lon="4.32597">
        <ele>150</ele>
        <time>2014-12-29T07:51:38.000Z</time>
      </trkpt>
      <trkpt lat="50.3868" lon="4.32583">
        <ele>150</ele>
        <time>2014-12-29T07:51:47.000Z</time>
      </trkpt>
      <trkpt lat="50.38674" lon="4.32568">
        <ele>150.19999694824</ele>
        <time>2014-12-29T07:51:57.000Z</time>
      </trkpt>
      <trkpt lat="50.38667" lon="4.32551">
        <ele>150.19999694824</ele>
        <time>2014-12-29T07:52:08.000Z</time>
      </trkpt>
      <trkpt lat="50.38659" lon="4.32535">
        <ele>150.19999694824</ele>
        <time>2014-12-29T07:52:19.000Z</time>
      </trkpt>
      <trkpt lat="50.3865" lon="4.32522">
        <ele>150</ele>
        <time>2014-12-29T07:52:30.000Z</time>
      </trkpt>
      <trkpt lat="50.3864" lon="4.32514">
        <ele>149.80000305176</ele>
        <time>2014-12-29T07:52:40.000Z</time>
      </trkpt>
      <trkpt lat="50.38628" lon="4.3251">
        <ele>149.39999389648</ele>
        <time>2014-12-29T07:52:50.000Z</time>
      </trkpt>
      <trkpt lat="50.38616" lon="4.32506">
        <ele>149.60000610352</ele>
        <time>2014-12-29T07:53:01.000Z</time>
      </trkpt>
      <trkpt lat="50.38608" lon="4.32503">
        <ele>149.60000610352</ele>
        <time>2014-12-29T07:53:08.000Z</time>
      </trkpt>
      <trkpt lat="50.38599" lon="4.325">
        <ele>149.80000305176</ele>
        <time>2014-12-29T07:53:17.000Z</time>
      </trkpt>
      <trkpt lat="50.38588" lon="4.32495">
        <ele>150</ele>
        <time>2014-12-29T07:53:27.000Z</time>
      </trkpt>
      <trkpt lat="50.38581" lon="4.32493">
        <ele>150</ele>
        <time>2014-12-29T07:53:34.000Z</time>
      </trkpt>
      <trkpt lat="50.38574" lon="4.3249">
        <ele>150.19999694824</ele>
        <time>2014-12-29T07:53:40.000Z</time>
      </trkpt>
      <trkpt lat="50.38564" lon="4.32486">
        <ele>150.39999389648</ele>
        <time>2014-12-29T07:53:50.000Z</time>
      </trkpt>
      <trkpt lat="50.38553" lon="4.32481">
        <ele>150.60000610352</ele>
        <time>2014-12-29T07:54:00.000Z</time>
      </trkpt>
      <trkpt lat="50.38546" lon="4.32477">
        <ele>150.80000305176</ele>
        <time>2014-12-29T07:54:08.000Z</time>
      </trkpt>
      <trkpt lat="50.38536" lon="4.32471">
        <ele>151.80000305176</ele>
        <time>2014-12-29T07:54:18.000Z</time>
      </trkpt>
      <trkpt lat="50.38528" lon="4.32467">
        <ele>152.60000610352</ele>
        <time>2014-12-29T07:54:27.000Z</time>
      </trkpt>
      <trkpt lat="50.38519" lon="4.32461">
        <ele>153.19999694824</ele>
        <time>2014-12-29T07:54:36.000Z</time>
      </trkpt>
      <trkpt lat="50.38512" lon="4.32457">
        <ele>153.80000305176</ele>
        <time>2014-12-29T07:54:43.000Z</time>
      </trkpt>
      <trkpt lat="50.38503" lon="4.32452">
        <ele>154.80000305176</ele>
        <time>2014-12-29T07:54:53.000Z</time>
      </trkpt>
      <trkpt lat="50.38495" lon="4.32448">
        <ele>155.39999389648</ele>
        <time>2014-12-29T07:55:01.000Z</time>
      </trkpt>
      <trkpt lat="50.38487" lon="4.32443">
        <ele>156.19999694824</ele>
        <time>2014-12-29T07:55:10.000Z</time>
      </trkpt>
      <trkpt lat="50.38479" lon="4.32438">
        <ele>156.80000305176</ele>
        <time>2014-12-29T07:55:18.000Z</time>
      </trkpt>
      <trkpt lat="50.38471" lon="4.32433">
        <ele>157.60000610352</ele>
        <time>2014-12-29T07:55:27.000Z</time>
      </trkpt>
      <trkpt lat="50.38463" lon="4.32427">
        <ele>158.19999694824</ele>
        <time>2014-12-29T07:55:35.000Z</time>
      </trkpt>
      <trkpt lat="50.38457" lon="4.32422">
        <ele>158.60000610352</ele>
        <time>2014-12-29T07:55:42.000Z</time>
      </trkpt>
      <trkpt lat="50.38445" lon="4.32415">
        <ele>159.60000610352</ele>
        <time>2014-12-29T07:55:56.000Z</time>
      </trkpt>
      <trkpt lat="50.38436" lon="4.32408">
        <ele>160.39999389648</ele>
        <time>2014-12-29T07:56:06.000Z</time>
      </trkpt>
      <trkpt lat="50.38427" lon="4.32403">
        <ele>161.19999694824</ele>
        <time>2014-12-29T07:56:15.000Z</time>
      </trkpt>
      <trkpt lat="50.38417" lon="4.32397">
        <ele>162</ele>
        <time>2014-12-29T07:56:26.000Z</time>
      </trkpt>
      <trkpt lat="50.38414" lon="4.32395">
        <ele>162.19999694824</ele>
        <time>2014-12-29T07:56:29.000Z</time>
      </trkpt>
      <trkpt lat="50.38411" lon="4.32392">
        <ele>162.60000610352</ele>
        <time>2014-12-29T07:56:33.000Z</time>
      </trkpt>
      <trkpt lat="50.38403" lon="4.32386">
        <ele>163.19999694824</ele>
        <time>2014-12-29T07:56:43.000Z</time>
      </trkpt>
      <trkpt lat="50.38396" lon="4.32382">
        <ele>163.80000305176</ele>
        <time>2014-12-29T07:56:51.000Z</time>
      </trkpt>
      <trkpt lat="50.38387" lon="4.32376">
        <ele>164.39999389648</ele>
        <time>2014-12-29T07:57:02.000Z</time>
      </trkpt>
      <trkpt lat="50.38379" lon="4.32372">
        <ele>165</ele>
        <time>2014-12-29T07:57:11.000Z</time>
      </trkpt>
      <trkpt lat="50.38373" lon="4.32365">
        <ele>165.60000610352</ele>
        <time>2014-12-29T07:57:18.000Z</time>
      </trkpt>
      <trkpt lat="50.38364" lon="4.32359">
        <ele>166.19999694824</ele>
        <time>2014-12-29T07:57:27.000Z</time>
      </trkpt>
      <trkpt lat="50.38356" lon="4.32353">
        <ele>166.80000305176</ele>
        <time>2014-12-29T07:57:36.000Z</time>
      </trkpt>
      <trkpt lat="50.38347" lon="4.32347">
        <ele>167.39999389648</ele>
        <time>2014-12-29T07:57:46.000Z</time>
      </trkpt>
      <trkpt lat="50.38338" lon="4.32341">
        <ele>168.19999694824</ele>
        <time>2014-12-29T07:57:55.000Z</time>
      </trkpt>
      <trkpt lat="50.3833" lon="4.32335">
        <ele>168.80000305176</ele>
        <time>2014-12-29T07:58:04.000Z</time>
      </trkpt>
      <trkpt lat="50.38322" lon="4.3233">
        <ele>169.19999694824</ele>
        <time>2014-12-29T07:58:12.000Z</time>
      </trkpt>
      <trkpt lat="50.38315" lon="4.32326">
        <ele>169.80000305176</ele>
        <time>2014-12-29T07:58:20.000Z</time>
      </trkpt>
      <trkpt lat="50.38309" lon="4.32321">
        <ele>170.19999694824</ele>
        <time>2014-12-29T07:58:27.000Z</time>
      </trkpt>
      <trkpt lat="50.38299" lon="4.32315">
        <ele>171</ele>
        <time>2014-12-29T07:58:35.000Z</time>
      </trkpt>
      <trkpt lat="50.38291" lon="4.32309">
        <ele>171.39999389648</ele>
        <time>2014-12-29T07:58:43.000Z</time>
      </trkpt>
      <trkpt lat="50.38282" lon="4.32302">
        <ele>172.19999694824</ele>
        <time>2014-12-29T07:58:53.000Z</time>
      </trkpt>
      <trkpt lat="50.38269" lon="4.32294">
        <ele>173.19999694824</ele>
        <time>2014-12-29T07:59:05.000Z</time>
      </trkpt>
      <trkpt lat="50.38261" lon="4.32289">
        <ele>173.60000610352</ele>
        <time>2014-12-29T07:59:13.000Z</time>
      </trkpt>
      <trkpt lat="50.38251" lon="4.32283">
        <ele>174.39999389648</ele>
        <time>2014-12-29T07:59:23.000Z</time>
      </trkpt>
      <trkpt lat="50.38243" lon="4.32279">
        <ele>175</ele>
        <time>2014-12-29T07:59:31.000Z</time>
      </trkpt>
      <trkpt lat="50.38232" lon="4.32272">
        <ele>175.60000610352</ele>
        <time>2014-12-29T07:59:41.000Z</time>
      </trkpt>
      <trkpt lat="50.38224" lon="4.32267">
        <ele>176.19999694824</ele>
        <time>2014-12-29T07:59:49.000Z</time>
      </trkpt>
      <trkpt lat="50.38217" lon="4.32265">
        <ele>176.60000610352</ele>
        <time>2014-12-29T07:59:56.000Z</time>
      </trkpt>
      <trkpt lat="50.3821" lon="4.32261">
        <ele>177.19999694824</ele>
        <time>2014-12-29T08:00:03.000Z</time>
      </trkpt>
      <trkpt lat="50.38203" lon="4.32256">
        <ele>177.60000610352</ele>
        <time>2014-12-29T08:00:10.000Z</time>
      </trkpt>
      <trkpt lat="50.38194" lon="4.32251">
        <ele>178.19999694824</ele>
        <time>2014-12-29T08:00:19.000Z</time>
      </trkpt>
      <trkpt lat="50.38185" lon="4.32245">
        <ele>178.80000305176</ele>
        <time>2014-12-29T08:00:28.000Z</time>
      </trkpt>
      <trkpt lat="50.38177" lon="4.32237">
        <ele>179.19999694824</ele>
        <time>2014-12-29T08:00:37.000Z</time>
      </trkpt>
      <trkpt lat="50.38168" lon="4.3223">
        <ele>179.80000305176</ele>
        <time>2014-12-29T08:00:46.000Z</time>
      </trkpt>
      <trkpt lat="50.38161" lon="4.32222">
        <ele>180.19999694824</ele>
        <time>2014-12-29T08:00:54.000Z</time>
      </trkpt>
      <trkpt lat="50.38149" lon="4.32209">
        <ele>180.80000305176</ele>
        <time>2014-12-29T08:01:06.000Z</time>
      </trkpt>
      <trkpt lat="50.38145" lon="4.32205">
        <ele>181</ele>
        <time>2014-12-29T08:01:10.000Z</time>
      </trkpt>
      <trkpt lat="50.3814" lon="4.32199">
        <ele>181.39999389648</ele>
        <time>2014-12-29T08:01:17.000Z</time>
      </trkpt>
      <trkpt lat="50.38133" lon="4.32189">
        <ele>181.80000305176</ele>
        <time>2014-12-29T08:01:25.000Z</time>
      </trkpt>
      <trkpt lat="50.38124" lon="4.32177">
        <ele>182.19999694824</ele>
        <time>2014-12-29T08:01:35.000Z</time>
      </trkpt>
      <trkpt lat="50.38111" lon="4.32161">
        <ele>182.80000305176</ele>
        <time>2014-12-29T08:01:48.000Z</time>
      </trkpt>
      <trkpt lat="50.38102" lon="4.32152">
        <ele>183.19999694824</ele>
        <time>2014-12-29T08:01:57.000Z</time>
      </trkpt>
      <trkpt lat="50.38095" lon="4.32142">
        <ele>183.60000610352</ele>
        <time>2014-12-29T08:02:05.000Z</time>
      </trkpt>
      <trkpt lat="50.38086" lon="4.3213">
        <ele>184</ele>
        <time>2014-12-29T08:02:15.000Z</time>
      </trkpt>
      <trkpt lat="50.38078" lon="4.32119">
        <ele>184.19999694824</ele>
        <time>2014-12-29T08:02:24.000Z</time>
      </trkpt>
      <trkpt lat="50.3807" lon="4.32109">
        <ele>184.60000610352</ele>
        <time>2014-12-29T08:02:33.000Z</time>
      </trkpt>
      <trkpt lat="50.38066" lon="4.32103">
        <ele>185</ele>
        <time>2014-12-29T08:02:40.000Z</time>
      </trkpt>
      <trkpt lat="50.38064" lon="4.321">
        <ele>185</ele>
        <time>2014-12-29T08:02:45.000Z</time>
      </trkpt>
      <trkpt lat="50.38062" lon="4.32105">
        <ele>185.19999694824</ele>
        <time>2014-12-29T08:02:50.000Z</time>
      </trkpt>
      <trkpt lat="50.3806" lon="4.32117">
        <ele>185.39999389648</ele>
        <time>2014-12-29T08:02:58.000Z</time>
      </trkpt>
      <trkpt lat="50.38059" lon="4.3212">
        <ele>185.39999389648</ele>
        <time>2014-12-29T08:03:00.000Z</time>
      </trkpt>
      <trkpt lat="50.38057" lon="4.32134">
        <ele>185.60000610352</ele>
        <time>2014-12-29T08:03:09.000Z</time>
      </trkpt>
      <trkpt lat="50.38055" lon="4.32149">
        <ele>186</ele>
        <time>2014-12-29T08:03:19.000Z</time>
      </trkpt>
      <trkpt lat="50.38053" lon="4.32165">
        <ele>186.39999389648</ele>
        <time>2014-12-29T08:03:29.000Z</time>
      </trkpt>
      <trkpt lat="50.38051" lon="4.3218">
        <ele>186.60000610352</ele>
        <time>2014-12-29T08:03:38.000Z</time>
      </trkpt>
      <trkpt lat="50.38048" lon="4.32195">
        <ele>187</ele>
        <time>2014-12-29T08:03:47.000Z</time>
      </trkpt>
      <trkpt lat="50.38046" lon="4.32209">
        <ele>187</ele>
        <time>2014-12-29T08:03:56.000Z</time>
      </trkpt>
      <trkpt lat="50.38043" lon="4.32225">
        <ele>186.80000305176</ele>
        <time>2014-12-29T08:04:06.000Z</time>
      </trkpt>
      <trkpt lat="50.38038" lon="4.32242">
        <ele>186.80000305176</ele>
        <time>2014-12-29T08:04:16.000Z</time>
      </trkpt>
      <trkpt lat="50.38033" lon="4.32257">
        <ele>186.80000305176</ele>
        <time>2014-12-29T08:04:25.000Z</time>
      </trkpt>
      <trkpt lat="50.38028" lon="4.32272">
        <ele>186.60000610352</ele>
        <time>2014-12-29T08:04:34.000Z</time>
      </trkpt>
      <trkpt lat="50.38025" lon="4.32284">
        <ele>186.60000610352</ele>
        <time>2014-12-29T08:04:42.000Z</time>
      </trkpt>
      <trkpt lat="50.38012" lon="4.32317">
        <ele>186.39999389648</ele>
        <time>2014-12-29T08:05:03.000Z</time>
      </trkpt>
      <trkpt lat="50.3801" lon="4.32322">
        <ele>186.39999389648</ele>
        <time>2014-12-29T08:05:06.000Z</time>
      </trkpt>
      <trkpt lat="50.38001" lon="4.32322">
        <ele>186.39999389648</ele>
        <time>2014-12-29T08:05:14.000Z</time>
      </trkpt>
      <trkpt lat="50.38001" lon="4.32322">
        <ele>186.60000610352</ele>
        <time>2014-12-29T08:05:15.000Z</time>
      </trkpt>
      <trkpt lat="50.37993" lon="4.32316">
        <ele>186.80000305176</ele>
        <time>2014-12-29T08:05:22.000Z</time>
      </trkpt>
      <trkpt lat="50.37985" lon="4.32308">
        <ele>187</ele>
        <time>2014-12-29T08:05:31.000Z</time>
      </trkpt>
      <trkpt lat="50.37973" lon="4.32296">
        <ele>187.39999389648</ele>
        <time>2014-12-29T08:05:43.000Z</time>
      </trkpt>
      <trkpt lat="50.37948" lon="4.32271">
        <ele>188</ele>
        <time>2014-12-29T08:06:07.000Z</time>
      </trkpt>
      <trkpt lat="50.37935" lon="4.32259">
        <ele>188</ele>
        <time>2014-12-29T08:06:19.000Z</time>
      </trkpt>
      <trkpt lat="50.37924" lon="4.32248">
        <ele>188</ele>
        <time>2014-12-29T08:06:30.000Z</time>
      </trkpt>
      <trkpt lat="50.37912" lon="4.32236">
        <ele>188</ele>
        <time>2014-12-29T08:06:42.000Z</time>
      </trkpt>
      <trkpt lat="50.37903" lon="4.32227">
        <ele>188</ele>
        <time>2014-12-29T08:06:51.000Z</time>
      </trkpt>
      <trkpt lat="50.37892" lon="4.32216">
        <ele>188</ele>
        <time>2014-12-29T08:07:02.000Z</time>
      </trkpt>
      <trkpt lat="50.3788" lon="4.32205">
        <ele>188</ele>
        <time>2014-12-29T08:07:13.000Z</time>
      </trkpt>
      <trkpt lat="50.37867" lon="4.32192">
        <ele>187</ele>
        <time>2014-12-29T08:07:26.000Z</time>
      </trkpt>
      <trkpt lat="50.37853" lon="4.3218">
        <ele>186.39999389648</ele>
        <time>2014-12-29T08:07:39.000Z</time>
      </trkpt>
      <trkpt lat="50.3783" lon="4.32158">
        <ele>185.19999694824</ele>
        <time>2014-12-29T08:08:01.000Z</time>
      </trkpt>
      <trkpt lat="50.37819" lon="4.32147">
        <ele>184.80000305176</ele>
        <time>2014-12-29T08:08:12.000Z</time>
      </trkpt>
      <trkpt lat="50.3781" lon="4.32139">
        <ele>184.19999694824</ele>
        <time>2014-12-29T08:08:21.000Z</time>
      </trkpt>
      <trkpt lat="50.37799" lon="4.32129">
        <ele>183.80000305176</ele>
        <time>2014-12-29T08:08:32.000Z</time>
      </trkpt>
      <trkpt lat="50.37787" lon="4.32117">
        <ele>183.60000610352</ele>
        <time>2014-12-29T08:08:44.000Z</time>
      </trkpt>
      <trkpt lat="50.37773" lon="4.32103">
        <ele>183.39999389648</ele>
        <time>2014-12-29T08:08:58.000Z</time>
      </trkpt>
      <trkpt lat="50.37763" lon="4.32094">
        <ele>183.19999694824</ele>
        <time>2014-12-29T08:09:08.000Z</time>
      </trkpt>
      <trkpt lat="50.37758" lon="4.32092">
        <ele>183</ele>
        <time>2014-12-29T08:09:15.000Z</time>
      </trkpt>
      <trkpt lat="50.37754" lon="4.32089">
        <ele>183</ele>
        <time>2014-12-29T08:09:24.000Z</time>
      </trkpt>
      <trkpt lat="50.37748" lon="4.32085">
        <ele>182.80000305176</ele>
        <time>2014-12-29T08:09:31.000Z</time>
      </trkpt>
      <trkpt lat="50.37741" lon="4.32081">
        <ele>182.80000305176</ele>
        <time>2014-12-29T08:09:39.000Z</time>
      </trkpt>
      <trkpt lat="50.37723" lon="4.32072">
        <ele>182.39999389648</ele>
        <time>2014-12-29T08:09:58.000Z</time>
      </trkpt>
      <trkpt lat="50.37716" lon="4.32068">
        <ele>182.19999694824</ele>
        <time>2014-12-29T08:10:05.000Z</time>
      </trkpt>
      <trkpt lat="50.37712" lon="4.32066">
        <ele>182</ele>
        <time>2014-12-29T08:10:09.000Z</time>
      </trkpt>
      <trkpt lat="50.37704" lon="4.32061">
        <ele>182</ele>
        <time>2014-12-29T08:10:17.000Z</time>
      </trkpt>
      <trkpt lat="50.377" lon="4.32053">
        <ele>182.19999694824</ele>
        <time>2014-12-29T08:10:24.000Z</time>
      </trkpt>
      <trkpt lat="50.37698" lon="4.32044">
        <ele>182.19999694824</ele>
        <time>2014-12-29T08:10:32.000Z</time>
      </trkpt>
      <trkpt lat="50.37697" lon="4.32035">
        <ele>182.39999389648</ele>
        <time>2014-12-29T08:10:39.000Z</time>
      </trkpt>
      <trkpt lat="50.37695" lon="4.32031">
        <ele>182.60000610352</ele>
        <time>2014-12-29T08:10:42.000Z</time>
      </trkpt>
      <trkpt lat="50.37693" lon="4.32024">
        <ele>182.60000610352</ele>
        <time>2014-12-29T08:10:47.000Z</time>
      </trkpt>
      <trkpt lat="50.3769" lon="4.32015">
        <ele>182.60000610352</ele>
        <time>2014-12-29T08:10:53.000Z</time>
      </trkpt>
      <trkpt lat="50.37687" lon="4.32002">
        <ele>182.60000610352</ele>
        <time>2014-12-29T08:11:02.000Z</time>
      </trkpt>
      <trkpt lat="50.37687" lon="4.32">
        <ele>182.60000610352</ele>
        <time>2014-12-29T08:11:03.000Z</time>
      </trkpt>
      <trkpt lat="50.37683" lon="4.31989">
        <ele>182.80000305176</ele>
        <time>2014-12-29T08:11:11.000Z</time>
      </trkpt>
      <trkpt lat="50.3768" lon="4.3198">
        <ele>182.80000305176</ele>
        <time>2014-12-29T08:11:17.000Z</time>
      </trkpt>
      <trkpt lat="50.37676" lon="4.31965">
        <ele>182.80000305176</ele>
        <time>2014-12-29T08:11:26.000Z</time>
      </trkpt>
      <trkpt lat="50.37675" lon="4.31962">
        <ele>182.80000305176</ele>
        <time>2014-12-29T08:11:28.000Z</time>
      </trkpt>
      <trkpt lat="50.37672" lon="4.31954">
        <ele>182.80000305176</ele>
        <time>2014-12-29T08:11:34.000Z</time>
      </trkpt>
      <trkpt lat="50.37669" lon="4.31945">
        <ele>182.80000305176</ele>
        <time>2014-12-29T08:11:38.000Z</time>
      </trkpt>
      <trkpt lat="50.37667" lon="4.31937">
        <ele>182.80000305176</ele>
        <time>2014-12-29T08:11:41.000Z</time>
      </trkpt>
      <trkpt lat="50.37665" lon="4.31928">
        <ele>182.80000305176</ele>
        <time>2014-12-29T08:11:47.000Z</time>
      </trkpt>
      <trkpt lat="50.3766" lon="4.31912">
        <ele>182.60000610352</ele>
        <time>2014-12-29T08:11:58.000Z</time>
      </trkpt>
      <trkpt lat="50.37656" lon="4.31899">
        <ele>182.60000610352</ele>
        <time>2014-12-29T08:12:06.000Z</time>
      </trkpt>
      <trkpt lat="50.37654" lon="4.31888">
        <ele>182.60000610352</ele>
        <time>2014-12-29T08:12:13.000Z</time>
      </trkpt>
      <trkpt lat="50.37653" lon="4.31884">
        <ele>182.60000610352</ele>
        <time>2014-12-29T08:12:16.000Z</time>
      </trkpt>
      <trkpt lat="50.3765" lon="4.31872">
        <ele>182.60000610352</ele>
        <time>2014-12-29T08:12:23.000Z</time>
      </trkpt>
      <trkpt lat="50.37647" lon="4.3186">
        <ele>182.60000610352</ele>
        <time>2014-12-29T08:12:30.000Z</time>
      </trkpt>
      <trkpt lat="50.37647" lon="4.31858">
        <ele>182.60000610352</ele>
        <time>2014-12-29T08:12:31.000Z</time>
      </trkpt>
      <trkpt lat="50.37644" lon="4.3185">
        <ele>182.80000305176</ele>
        <time>2014-12-29T08:12:35.000Z</time>
      </trkpt>
      <trkpt lat="50.37641" lon="4.31839">
        <ele>183</ele>
        <time>2014-12-29T08:12:42.000Z</time>
      </trkpt>
      <trkpt lat="50.37637" lon="4.31826">
        <ele>183.19999694824</ele>
        <time>2014-12-29T08:12:50.000Z</time>
      </trkpt>
      <trkpt lat="50.37635" lon="4.31812">
        <ele>183.39999389648</ele>
        <time>2014-12-29T08:12:58.000Z</time>
      </trkpt>
      <trkpt lat="50.37632" lon="4.31797">
        <ele>183.60000610352</ele>
        <time>2014-12-29T08:13:06.000Z</time>
      </trkpt>
      <trkpt lat="50.37627" lon="4.31776">
        <ele>183.80000305176</ele>
        <time>2014-12-29T08:13:16.000Z</time>
      </trkpt>
      <trkpt lat="50.37623" lon="4.31761">
        <ele>183.80000305176</ele>
        <time>2014-12-29T08:13:25.000Z</time>
      </trkpt>
      <trkpt lat="50.37622" lon="4.31759">
        <ele>183.80000305176</ele>
        <time>2014-12-29T08:13:32.000Z</time>
      </trkpt>
      <trkpt lat="50.37617" lon="4.31749">
        <ele>183.60000610352</ele>
        <time>2014-12-29T08:13:37.000Z</time>
      </trkpt>
      <trkpt lat="50.37611" lon="4.31727">
        <ele>183.60000610352</ele>
        <time>2014-12-29T08:13:47.000Z</time>
      </trkpt>
      <trkpt lat="50.37607" lon="4.31713">
        <ele>183.60000610352</ele>
        <time>2014-12-29T08:13:55.000Z</time>
      </trkpt>
      <trkpt lat="50.37604" lon="4.31697">
        <ele>183.60000610352</ele>
        <time>2014-12-29T08:14:05.000Z</time>
      </trkpt>
      <trkpt lat="50.37603" lon="4.31694">
        <ele>183.80000305176</ele>
        <time>2014-12-29T08:14:07.000Z</time>
      </trkpt>
      <trkpt lat="50.37602" lon="4.31688">
        <ele>183.80000305176</ele>
        <time>2014-12-29T08:14:11.000Z</time>
      </trkpt>
      <trkpt lat="50.37598" lon="4.31675">
        <ele>184</ele>
        <time>2014-12-29T08:14:19.000Z</time>
      </trkpt>
      <trkpt lat="50.37593" lon="4.3166">
        <ele>184</ele>
        <time>2014-12-29T08:14:27.000Z</time>
      </trkpt>
      <trkpt lat="50.37588" lon="4.31648">
        <ele>184</ele>
        <time>2014-12-29T08:14:34.000Z</time>
      </trkpt>
      <trkpt lat="50.37585" lon="4.31636">
        <ele>183.80000305176</ele>
        <time>2014-12-29T08:14:41.000Z</time>
      </trkpt>
      <trkpt lat="50.37583" lon="4.31625">
        <ele>183.80000305176</ele>
        <time>2014-12-29T08:14:48.000Z</time>
      </trkpt>
      <trkpt lat="50.37583" lon="4.31623">
        <ele>183.80000305176</ele>
        <time>2014-12-29T08:14:49.000Z</time>
      </trkpt>
      <trkpt lat="50.37582" lon="4.31617">
        <ele>183.80000305176</ele>
        <time>2014-12-29T08:14:52.000Z</time>
      </trkpt>
      <trkpt lat="50.37582" lon="4.31609">
        <ele>184</ele>
        <time>2014-12-29T08:14:56.000Z</time>
      </trkpt>
      <trkpt lat="50.37581" lon="4.31597">
        <ele>184.19999694824</ele>
        <time>2014-12-29T08:15:03.000Z</time>
      </trkpt>
      <trkpt lat="50.37581" lon="4.3158">
        <ele>184.60000610352</ele>
        <time>2014-12-29T08:15:12.000Z</time>
      </trkpt>
      <trkpt lat="50.37581" lon="4.31568">
        <ele>184.80000305176</ele>
        <time>2014-12-29T08:15:18.000Z</time>
      </trkpt>
      <trkpt lat="50.37581" lon="4.31566">
        <ele>185</ele>
        <time>2014-12-29T08:15:19.000Z</time>
      </trkpt>
      <trkpt lat="50.37581" lon="4.31554">
        <ele>185</ele>
        <time>2014-12-29T08:15:26.000Z</time>
      </trkpt>
      <trkpt lat="50.37579" lon="4.31544">
        <ele>185</ele>
        <time>2014-12-29T08:15:31.000Z</time>
      </trkpt>
      <trkpt lat="50.37578" lon="4.31532">
        <ele>185</ele>
        <time>2014-12-29T08:15:38.000Z</time>
      </trkpt>
      <trkpt lat="50.37575" lon="4.31519">
        <ele>184.80000305176</ele>
        <time>2014-12-29T08:15:45.000Z</time>
      </trkpt>
      <trkpt lat="50.37574" lon="4.31514">
        <ele>184.80000305176</ele>
        <time>2014-12-29T08:15:48.000Z</time>
      </trkpt>
      <trkpt lat="50.37572" lon="4.315">
        <ele>184.60000610352</ele>
        <time>2014-12-29T08:15:55.000Z</time>
      </trkpt>
      <trkpt lat="50.37571" lon="4.31484">
        <ele>184.39999389648</ele>
        <time>2014-12-29T08:16:04.000Z</time>
      </trkpt>
      <trkpt lat="50.37571" lon="4.31473">
        <ele>184.39999389648</ele>
        <time>2014-12-29T08:16:10.000Z</time>
      </trkpt>
      <trkpt lat="50.37571" lon="4.31471">
        <ele>184.19999694824</ele>
        <time>2014-12-29T08:16:11.000Z</time>
      </trkpt>
      <trkpt lat="50.3757" lon="4.31457">
        <ele>184.39999389648</ele>
        <time>2014-12-29T08:16:18.000Z</time>
      </trkpt>
      <trkpt lat="50.37571" lon="4.31441">
        <ele>184.60000610352</ele>
        <time>2014-12-29T08:16:27.000Z</time>
      </trkpt>
      <trkpt lat="50.37571" lon="4.31435">
        <ele>184.60000610352</ele>
        <time>2014-12-29T08:16:30.000Z</time>
      </trkpt>
      <trkpt lat="50.37572" lon="4.31428">
        <ele>184.60000610352</ele>
        <time>2014-12-29T08:16:34.000Z</time>
      </trkpt>
      <trkpt lat="50.37572" lon="4.31414">
        <ele>184.60000610352</ele>
        <time>2014-12-29T08:16:41.000Z</time>
      </trkpt>
      <trkpt lat="50.37571" lon="4.31393">
        <ele>184.60000610352</ele>
        <time>2014-12-29T08:16:51.000Z</time>
      </trkpt>
      <trkpt lat="50.37571" lon="4.31377">
        <ele>184.60000610352</ele>
        <time>2014-12-29T08:16:59.000Z</time>
      </trkpt>
      <trkpt lat="50.3757" lon="4.31362">
        <ele>184.60000610352</ele>
        <time>2014-12-29T08:17:06.000Z</time>
      </trkpt>
      <trkpt lat="50.3757" lon="4.31347">
        <ele>184.80000305176</ele>
        <time>2014-12-29T08:17:14.000Z</time>
      </trkpt>
      <trkpt lat="50.3757" lon="4.31342">
        <ele>184.80000305176</ele>
        <time>2014-12-29T08:17:16.000Z</time>
      </trkpt>
      <trkpt lat="50.37568" lon="4.31321">
        <ele>185</ele>
        <time>2014-12-29T08:17:26.000Z</time>
      </trkpt>
      <trkpt lat="50.37568" lon="4.31308">
        <ele>185.19999694824</ele>
        <time>2014-12-29T08:17:33.000Z</time>
      </trkpt>
      <trkpt lat="50.37568" lon="4.31291">
        <ele>185.39999389648</ele>
        <time>2014-12-29T08:17:41.000Z</time>
      </trkpt>
      <trkpt lat="50.37567" lon="4.31275">
        <ele>185.80000305176</ele>
        <time>2014-12-29T08:17:49.000Z</time>
      </trkpt>
      <trkpt lat="50.37567" lon="4.31262">
        <ele>186</ele>
        <time>2014-12-29T08:17:56.000Z</time>
      </trkpt>
      <trkpt lat="50.37569" lon="4.31242">
        <ele>186.19999694824</ele>
        <time>2014-12-29T08:18:07.000Z</time>
      </trkpt>
      <trkpt lat="50.3757" lon="4.31231">
        <ele>186.39999389648</ele>
        <time>2014-12-29T08:18:13.000Z</time>
      </trkpt>
      <trkpt lat="50.37571" lon="4.3122">
        <ele>186.60000610352</ele>
        <time>2014-12-29T08:18:20.000Z</time>
      </trkpt>
      <trkpt lat="50.37572" lon="4.31208">
        <ele>186.80000305176</ele>
        <time>2014-12-29T08:18:27.000Z</time>
      </trkpt>
      <trkpt lat="50.37572" lon="4.31207">
        <ele>186.80000305176</ele>
        <time>2014-12-29T08:18:28.000Z</time>
      </trkpt>
      <trkpt lat="50.37572" lon="4.31191">
        <ele>187</ele>
        <time>2014-12-29T08:18:37.000Z</time>
      </trkpt>
      <trkpt lat="50.37573" lon="4.31177">
        <ele>187.39999389648</ele>
        <time>2014-12-29T08:18:45.000Z</time>
      </trkpt>
      <trkpt lat="50.37573" lon="4.31175">
        <ele>187.39999389648</ele>
        <time>2014-12-29T08:18:46.000Z</time>
      </trkpt>
      <trkpt lat="50.37573" lon="4.31168">
        <ele>187.60000610352</ele>
        <time>2014-12-29T08:18:50.000Z</time>
      </trkpt>
      <trkpt lat="50.37573" lon="4.31164">
        <ele>187.60000610352</ele>
        <time>2014-12-29T08:18:52.000Z</time>
      </trkpt>
      <trkpt lat="50.3757" lon="4.3115">
        <ele>188</ele>
        <time>2014-12-29T08:18:59.000Z</time>
      </trkpt>
      <trkpt lat="50.37569" lon="4.31148">
        <ele>188</ele>
        <time>2014-12-29T08:19:01.000Z</time>
      </trkpt>
      <trkpt lat="50.3756" lon="4.31142">
        <ele>187.80000305176</ele>
        <time>2014-12-29T08:19:09.000Z</time>
      </trkpt>
      <trkpt lat="50.37551" lon="4.3114">
        <ele>187.39999389648</ele>
        <time>2014-12-29T08:19:17.000Z</time>
      </trkpt>
      <trkpt lat="50.37543" lon="4.31139">
        <ele>187.19999694824</ele>
        <time>2014-12-29T08:19:25.000Z</time>
      </trkpt>
      <trkpt lat="50.37535" lon="4.31139">
        <ele>187</ele>
        <time>2014-12-29T08:19:33.000Z</time>
      </trkpt>
      <trkpt lat="50.37528" lon="4.31139">
        <ele>187</ele>
        <time>2014-12-29T08:19:39.000Z</time>
      </trkpt>
      <trkpt lat="50.37515" lon="4.31138">
        <ele>186.60000610352</ele>
        <time>2014-12-29T08:19:50.000Z</time>
      </trkpt>
      <trkpt lat="50.37505" lon="4.31138">
        <ele>186.39999389648</ele>
        <time>2014-12-29T08:19:59.000Z</time>
      </trkpt>
      <trkpt lat="50.37497" lon="4.31137">
        <ele>186.19999694824</ele>
        <time>2014-12-29T08:20:06.000Z</time>
      </trkpt>
      <trkpt lat="50.3749" lon="4.31135">
        <ele>186</ele>
        <time>2014-12-29T08:20:13.000Z</time>
      </trkpt>
      <trkpt lat="50.3748" lon="4.31134">
        <ele>186</ele>
        <time>2014-12-29T08:20:21.000Z</time>
      </trkpt>
      <trkpt lat="50.37472" lon="4.31133">
        <ele>185.80000305176</ele>
        <time>2014-12-29T08:20:27.000Z</time>
      </trkpt>
      <trkpt lat="50.37463" lon="4.31132">
        <ele>185.80000305176</ele>
        <time>2014-12-29T08:20:35.000Z</time>
      </trkpt>
      <trkpt lat="50.37453" lon="4.31132">
        <ele>186</ele>
        <time>2014-12-29T08:20:43.000Z</time>
      </trkpt>
      <trkpt lat="50.37445" lon="4.3113">
        <ele>186</ele>
        <time>2014-12-29T08:20:50.000Z</time>
      </trkpt>
      <trkpt lat="50.37442" lon="4.3113">
        <ele>186</ele>
        <time>2014-12-29T08:20:55.000Z</time>
      </trkpt>
      <trkpt lat="50.37434" lon="4.31128">
        <ele>186.19999694824</ele>
        <time>2014-12-29T08:21:03.000Z</time>
      </trkpt>
      <trkpt lat="50.37426" lon="4.31128">
        <ele>186.19999694824</ele>
        <time>2014-12-29T08:21:10.000Z</time>
      </trkpt>
      <trkpt lat="50.37416" lon="4.31127">
        <ele>186.39999389648</ele>
        <time>2014-12-29T08:21:19.000Z</time>
      </trkpt>
      <trkpt lat="50.37408" lon="4.31128">
        <ele>186.60000610352</ele>
        <time>2014-12-29T08:21:26.000Z</time>
      </trkpt>
      <trkpt lat="50.37402" lon="4.31127">
        <ele>186.60000610352</ele>
        <time>2014-12-29T08:21:32.000Z</time>
      </trkpt>
      <trkpt lat="50.37393" lon="4.31126">
        <ele>186.80000305176</ele>
        <time>2014-12-29T08:21:40.000Z</time>
      </trkpt>
      <trkpt lat="50.37387" lon="4.31121">
        <ele>186.80000305176</ele>
        <time>2014-12-29T08:21:46.000Z</time>
      </trkpt>
      <trkpt lat="50.37382" lon="4.31116">
        <ele>187</ele>
        <time>2014-12-29T08:21:52.000Z</time>
      </trkpt>
      <trkpt lat="50.37379" lon="4.31106">
        <ele>187</ele>
        <time>2014-12-29T08:22:00.000Z</time>
      </trkpt>
      <trkpt lat="50.37377" lon="4.31099">
        <ele>187</ele>
        <time>2014-12-29T08:22:04.000Z</time>
      </trkpt>
      <trkpt lat="50.37376" lon="4.31091">
        <ele>187</ele>
        <time>2014-12-29T08:22:09.000Z</time>
      </trkpt>
      <trkpt lat="50.37375" lon="4.31089">
        <ele>187</ele>
        <time>2014-12-29T08:22:10.000Z</time>
      </trkpt>
      <trkpt lat="50.37372" lon="4.31073">
        <ele>187.19999694824</ele>
        <time>2014-12-29T08:22:19.000Z</time>
      </trkpt>
      <trkpt lat="50.37371" lon="4.31058">
        <ele>187.39999389648</ele>
        <time>2014-12-29T08:22:27.000Z</time>
      </trkpt>
      <trkpt lat="50.37369" lon="4.31043">
        <ele>187.60000610352</ele>
        <time>2014-12-29T08:22:35.000Z</time>
      </trkpt>
      <trkpt lat="50.37367" lon="4.31029">
        <ele>187.80000305176</ele>
        <time>2014-12-29T08:22:42.000Z</time>
      </trkpt>
      <trkpt lat="50.37365" lon="4.31013">
        <ele>188</ele>
        <time>2014-12-29T08:22:51.000Z</time>
      </trkpt>
      <trkpt lat="50.37365" lon="4.31011">
        <ele>188</ele>
        <time>2014-12-29T08:22:52.000Z</time>
      </trkpt>
      <trkpt lat="50.37364" lon="4.31004">
        <ele>188</ele>
        <time>2014-12-29T08:22:56.000Z</time>
      </trkpt>
      <trkpt lat="50.3736" lon="4.30977">
        <ele>188</ele>
        <time>2014-12-29T08:23:10.000Z</time>
      </trkpt>
      <trkpt lat="50.3736" lon="4.30975">
        <ele>188.19999694824</ele>
        <time>2014-12-29T08:23:11.000Z</time>
      </trkpt>
      <trkpt lat="50.37359" lon="4.30963">
        <ele>188.19999694824</ele>
        <time>2014-12-29T08:23:18.000Z</time>
      </trkpt>
      <trkpt lat="50.37359" lon="4.30962">
        <ele>188.19999694824</ele>
        <time>2014-12-29T08:23:19.000Z</time>
      </trkpt>
      <trkpt lat="50.37358" lon="4.30949">
        <ele>188.39999389648</ele>
        <time>2014-12-29T08:23:27.000Z</time>
      </trkpt>
      <trkpt lat="50.37357" lon="4.30932">
        <ele>188.60000610352</ele>
        <time>2014-12-29T08:23:36.000Z</time>
      </trkpt>
      <trkpt lat="50.37355" lon="4.30922">
        <ele>188.80000305176</ele>
        <time>2014-12-29T08:23:42.000Z</time>
      </trkpt>
      <trkpt lat="50.37355" lon="4.30909">
        <ele>188.80000305176</ele>
        <time>2014-12-29T08:23:48.000Z</time>
      </trkpt>
      <trkpt lat="50.37352" lon="4.309">
        <ele>188.80000305176</ele>
        <time>2014-12-29T08:23:55.000Z</time>
      </trkpt>
      <trkpt lat="50.3735" lon="4.3089">
        <ele>188.80000305176</ele>
        <time>2014-12-29T08:24:01.000Z</time>
      </trkpt>
      <trkpt lat="50.3735" lon="4.30888">
        <ele>188.80000305176</ele>
        <time>2014-12-29T08:24:02.000Z</time>
      </trkpt>
      <trkpt lat="50.37348" lon="4.30879">
        <ele>188.80000305176</ele>
        <time>2014-12-29T08:24:07.000Z</time>
      </trkpt>
      <trkpt lat="50.37347" lon="4.30869">
        <ele>188.80000305176</ele>
        <time>2014-12-29T08:24:14.000Z</time>
      </trkpt>
      <trkpt lat="50.37345" lon="4.30863">
        <ele>188.80000305176</ele>
        <time>2014-12-29T08:24:21.000Z</time>
      </trkpt>
      <trkpt lat="50.37343" lon="4.30856">
        <ele>188.80000305176</ele>
        <time>2014-12-29T08:24:27.000Z</time>
      </trkpt>
      <trkpt lat="50.37339" lon="4.30846">
        <ele>188.60000610352</ele>
        <time>2014-12-29T08:24:35.000Z</time>
      </trkpt>
      <trkpt lat="50.37338" lon="4.30841">
        <ele>188.60000610352</ele>
        <time>2014-12-29T08:24:39.000Z</time>
      </trkpt>
      <trkpt lat="50.37336" lon="4.30835">
        <ele>188.60000610352</ele>
        <time>2014-12-29T08:24:43.000Z</time>
      </trkpt>
      <trkpt lat="50.37337" lon="4.30831">
        <ele>188.80000305176</ele>
        <time>2014-12-29T08:24:47.000Z</time>
      </trkpt>
      <trkpt lat="50.37337" lon="4.30828">
        <ele>188.80000305176</ele>
        <time>2014-12-29T08:24:49.000Z</time>
      </trkpt>
      <trkpt lat="50.37336" lon="4.30817">
        <ele>188.80000305176</ele>
        <time>2014-12-29T08:24:57.000Z</time>
      </trkpt>
      <trkpt lat="50.37335" lon="4.30805">
        <ele>189</ele>
        <time>2014-12-29T08:25:05.000Z</time>
      </trkpt>
      <trkpt lat="50.37335" lon="4.30803">
        <ele>189</ele>
        <time>2014-12-29T08:25:06.000Z</time>
      </trkpt>
      <trkpt lat="50.37334" lon="4.30791">
        <ele>189</ele>
        <time>2014-12-29T08:25:14.000Z</time>
      </trkpt>
      <trkpt lat="50.37334" lon="4.30785">
        <ele>189</ele>
        <time>2014-12-29T08:25:18.000Z</time>
      </trkpt>
      <trkpt lat="50.37333" lon="4.3078">
        <ele>189.19999694824</ele>
        <time>2014-12-29T08:25:21.000Z</time>
      </trkpt>
      <trkpt lat="50.37333" lon="4.30767">
        <ele>189.19999694824</ele>
        <time>2014-12-29T08:25:29.000Z</time>
      </trkpt>
      <trkpt lat="50.37334" lon="4.30757">
        <ele>189.19999694824</ele>
        <time>2014-12-29T08:25:36.000Z</time>
      </trkpt>
      <trkpt lat="50.37335" lon="4.30752">
        <ele>189.19999694824</ele>
        <time>2014-12-29T08:25:40.000Z</time>
      </trkpt>
      <trkpt lat="50.37334" lon="4.3074">
        <ele>189.19999694824</ele>
        <time>2014-12-29T08:25:48.000Z</time>
      </trkpt>
      <trkpt lat="50.37334" lon="4.30738">
        <ele>189.19999694824</ele>
        <time>2014-12-29T08:25:49.000Z</time>
      </trkpt>
      <trkpt lat="50.37333" lon="4.30733">
        <ele>189.19999694824</ele>
        <time>2014-12-29T08:25:56.000Z</time>
      </trkpt>
      <trkpt lat="50.37334" lon="4.30725">
        <ele>189.19999694824</ele>
        <time>2014-12-29T08:26:03.000Z</time>
      </trkpt>
      <trkpt lat="50.37335" lon="4.30711">
        <ele>189.39999389648</ele>
        <time>2014-12-29T08:26:11.000Z</time>
      </trkpt>
      <trkpt lat="50.37336" lon="4.30698">
        <ele>189.60000610352</ele>
        <time>2014-12-29T08:26:18.000Z</time>
      </trkpt>
      <trkpt lat="50.37337" lon="4.30686">
        <ele>190</ele>
        <time>2014-12-29T08:26:25.000Z</time>
      </trkpt>
      <trkpt lat="50.37338" lon="4.30674">
        <ele>190.39999389648</ele>
        <time>2014-12-29T08:26:32.000Z</time>
      </trkpt>
      <trkpt lat="50.3734" lon="4.30661">
        <ele>190.80000305176</ele>
        <time>2014-12-29T08:26:40.000Z</time>
      </trkpt>
      <trkpt lat="50.37342" lon="4.30645">
        <ele>191.39999389648</ele>
        <time>2014-12-29T08:26:48.000Z</time>
      </trkpt>
      <trkpt lat="50.37345" lon="4.30632">
        <ele>192</ele>
        <time>2014-12-29T08:26:56.000Z</time>
      </trkpt>
      <trkpt lat="50.37345" lon="4.30623">
        <ele>192.19999694824</ele>
        <time>2014-12-29T08:27:01.000Z</time>
      </trkpt>
      <trkpt lat="50.37346" lon="4.30612">
        <ele>192.60000610352</ele>
        <time>2014-12-29T08:27:08.000Z</time>
      </trkpt>
      <trkpt lat="50.37347" lon="4.30597">
        <ele>192.80000305176</ele>
        <time>2014-12-29T08:27:16.000Z</time>
      </trkpt>
      <trkpt lat="50.37347" lon="4.30591">
        <ele>192.80000305176</ele>
        <time>2014-12-29T08:27:19.000Z</time>
      </trkpt>
      <trkpt lat="50.37347" lon="4.30577">
        <ele>193</ele>
        <time>2014-12-29T08:27:26.000Z</time>
      </trkpt>
      <trkpt lat="50.37345" lon="4.3056">
        <ele>193.19999694824</ele>
        <time>2014-12-29T08:27:35.000Z</time>
      </trkpt>
      <trkpt lat="50.37345" lon="4.30548">
        <ele>193.60000610352</ele>
        <time>2014-12-29T08:27:42.000Z</time>
      </trkpt>
      <trkpt lat="50.37342" lon="4.30535">
        <ele>193.60000610352</ele>
        <time>2014-12-29T08:27:49.000Z</time>
      </trkpt>
      <trkpt lat="50.3734" lon="4.30529">
        <ele>193.60000610352</ele>
        <time>2014-12-29T08:27:52.000Z</time>
      </trkpt>
      <trkpt lat="50.3734" lon="4.30526">
        <ele>193.60000610352</ele>
        <time>2014-12-29T08:27:54.000Z</time>
      </trkpt>
      <trkpt lat="50.3734" lon="4.30522">
        <ele>193.80000305176</ele>
        <time>2014-12-29T08:27:58.000Z</time>
      </trkpt>
      <trkpt lat="50.37337" lon="4.30505">
        <ele>193.80000305176</ele>
        <time>2014-12-29T08:28:07.000Z</time>
      </trkpt>
      <trkpt lat="50.37336" lon="4.30492">
        <ele>194.19999694824</ele>
        <time>2014-12-29T08:28:15.000Z</time>
      </trkpt>
      <trkpt lat="50.37336" lon="4.3049">
        <ele>194.19999694824</ele>
        <time>2014-12-29T08:28:16.000Z</time>
      </trkpt>
      <trkpt lat="50.37335" lon="4.30479">
        <ele>194.39999389648</ele>
        <time>2014-12-29T08:28:22.000Z</time>
      </trkpt>
      <trkpt lat="50.37333" lon="4.30467">
        <ele>194.39999389648</ele>
        <time>2014-12-29T08:28:30.000Z</time>
      </trkpt>
      <trkpt lat="50.3733" lon="4.30454">
        <ele>194.39999389648</ele>
        <time>2014-12-29T08:28:37.000Z</time>
      </trkpt>
      <trkpt lat="50.37324" lon="4.30439">
        <ele>194.39999389648</ele>
        <time>2014-12-29T08:28:46.000Z</time>
      </trkpt>
      <trkpt lat="50.37321" lon="4.30435">
        <ele>194.19999694824</ele>
        <time>2014-12-29T08:28:49.000Z</time>
      </trkpt>
      <trkpt lat="50.37315" lon="4.3042">
        <ele>194</ele>
        <time>2014-12-29T08:28:58.000Z</time>
      </trkpt>
      <trkpt lat="50.3731" lon="4.30408">
        <ele>193.80000305176</ele>
        <time>2014-12-29T08:29:06.000Z</time>
      </trkpt>
      <trkpt lat="50.37304" lon="4.30398">
        <ele>193.60000610352</ele>
        <time>2014-12-29T08:29:13.000Z</time>
      </trkpt>
      <trkpt lat="50.373" lon="4.3039">
        <ele>193.60000610352</ele>
        <time>2014-12-29T08:29:19.000Z</time>
      </trkpt>
      <trkpt lat="50.37296" lon="4.30381">
        <ele>193.19999694824</ele>
        <time>2014-12-29T08:29:25.000Z</time>
      </trkpt>
      <trkpt lat="50.37292" lon="4.30375">
        <ele>193</ele>
        <time>2014-12-29T08:29:29.000Z</time>
      </trkpt>
      <trkpt lat="50.3729" lon="4.30371">
        <ele>192.60000610352</ele>
        <time>2014-12-29T08:29:32.000Z</time>
      </trkpt>
      <trkpt lat="50.37284" lon="4.30357">
        <ele>192.39999389648</ele>
        <time>2014-12-29T08:29:41.000Z</time>
      </trkpt>
      <trkpt lat="50.37271" lon="4.30333">
        <ele>192.39999389648</ele>
        <time>2014-12-29T08:29:56.000Z</time>
      </trkpt>
      <trkpt lat="50.37267" lon="4.30316">
        <ele>192.39999389648</ele>
        <time>2014-12-29T08:30:05.000Z</time>
      </trkpt>
      <trkpt lat="50.37264" lon="4.30305">
        <ele>192.19999694824</ele>
        <time>2014-12-29T08:30:11.000Z</time>
      </trkpt>
      <trkpt lat="50.37259" lon="4.30292">
        <ele>192</ele>
        <time>2014-12-29T08:30:18.000Z</time>
      </trkpt>
      <trkpt lat="50.37257" lon="4.30283">
        <ele>192</ele>
        <time>2014-12-29T08:30:23.000Z</time>
      </trkpt>
      <trkpt lat="50.37253" lon="4.30274">
        <ele>192.19999694824</ele>
        <time>2014-12-29T08:30:30.000Z</time>
      </trkpt>
      <trkpt lat="50.37248" lon="4.30262">
        <ele>193</ele>
        <time>2014-12-29T08:30:38.000Z</time>
      </trkpt>
      <trkpt lat="50.37242" lon="4.30247">
        <ele>193.80000305176</ele>
        <time>2014-12-29T08:30:46.000Z</time>
      </trkpt>
      <trkpt lat="50.37242" lon="4.30246">
        <ele>193.80000305176</ele>
        <time>2014-12-29T08:30:47.000Z</time>
      </trkpt>
      <trkpt lat="50.3724" lon="4.30241">
        <ele>194</ele>
        <time>2014-12-29T08:30:50.000Z</time>
      </trkpt>
      <trkpt lat="50.37223" lon="4.30228">
        <ele>194</ele>
        <time>2014-12-29T08:31:05.000Z</time>
      </trkpt>
      <trkpt lat="50.37216" lon="4.30222">
        <ele>194</ele>
        <time>2014-12-29T08:31:13.000Z</time>
      </trkpt>
      <trkpt lat="50.37211" lon="4.30216">
        <ele>194</ele>
        <time>2014-12-29T08:31:19.000Z</time>
      </trkpt>
      <trkpt lat="50.37205" lon="4.30209">
        <ele>193.80000305176</ele>
        <time>2014-12-29T08:31:26.000Z</time>
      </trkpt>
      <trkpt lat="50.37198" lon="4.30201">
        <ele>193.60000610352</ele>
        <time>2014-12-29T08:31:34.000Z</time>
      </trkpt>
      <trkpt lat="50.37195" lon="4.30197">
        <ele>193.60000610352</ele>
        <time>2014-12-29T08:31:39.000Z</time>
      </trkpt>
      <trkpt lat="50.37192" lon="4.3019">
        <ele>193.80000305176</ele>
        <time>2014-12-29T08:31:45.000Z</time>
      </trkpt>
      <trkpt lat="50.3719" lon="4.3018">
        <ele>194.19999694824</ele>
        <time>2014-12-29T08:31:52.000Z</time>
      </trkpt>
      <trkpt lat="50.3719" lon="4.30178">
        <ele>194.39999389648</ele>
        <time>2014-12-29T08:31:53.000Z</time>
      </trkpt>
      <trkpt lat="50.37187" lon="4.30169">
        <ele>194.60000610352</ele>
        <time>2014-12-29T08:31:59.000Z</time>
      </trkpt>
      <trkpt lat="50.3718" lon="4.30155">
        <ele>194.19999694824</ele>
        <time>2014-12-29T08:32:08.000Z</time>
      </trkpt>
      <trkpt lat="50.37177" lon="4.30151">
        <ele>194.19999694824</ele>
        <time>2014-12-29T08:32:12.000Z</time>
      </trkpt>
      <trkpt lat="50.37176" lon="4.30147">
        <ele>194</ele>
        <time>2014-12-29T08:32:15.000Z</time>
      </trkpt>
      <trkpt lat="50.37171" lon="4.30139">
        <ele>193.80000305176</ele>
        <time>2014-12-29T08:32:21.000Z</time>
      </trkpt>
      <trkpt lat="50.37165" lon="4.30132">
        <ele>193.39999389648</ele>
        <time>2014-12-29T08:32:28.000Z</time>
      </trkpt>
      <trkpt lat="50.37165" lon="4.30131">
        <ele>193.39999389648</ele>
        <time>2014-12-29T08:32:29.000Z</time>
      </trkpt>
      <trkpt lat="50.3716" lon="4.30124">
        <ele>193.19999694824</ele>
        <time>2014-12-29T08:32:34.000Z</time>
      </trkpt>
      <trkpt lat="50.37155" lon="4.30114">
        <ele>192.80000305176</ele>
        <time>2014-12-29T08:32:42.000Z</time>
      </trkpt>
      <trkpt lat="50.37155" lon="4.30113">
        <ele>192.80000305176</ele>
        <time>2014-12-29T08:32:43.000Z</time>
      </trkpt>
      <trkpt lat="50.37149" lon="4.30104">
        <ele>193.19999694824</ele>
        <time>2014-12-29T08:32:51.000Z</time>
      </trkpt>
      <trkpt lat="50.37144" lon="4.30094">
        <ele>193.60000610352</ele>
        <time>2014-12-29T08:32:58.000Z</time>
      </trkpt>
      <trkpt lat="50.37138" lon="4.30084">
        <ele>194</ele>
        <time>2014-12-29T08:33:05.000Z</time>
      </trkpt>
      <trkpt lat="50.37132" lon="4.30075">
        <ele>194.39999389648</ele>
        <time>2014-12-29T08:33:11.000Z</time>
      </trkpt>
      <trkpt lat="50.37126" lon="4.30064">
        <ele>194.60000610352</ele>
        <time>2014-12-29T08:33:19.000Z</time>
      </trkpt>
      <trkpt lat="50.37121" lon="4.30056">
        <ele>194.80000305176</ele>
        <time>2014-12-29T08:33:25.000Z</time>
      </trkpt>
      <trkpt lat="50.37115" lon="4.30047">
        <ele>194.80000305176</ele>
        <time>2014-12-29T08:33:32.000Z</time>
      </trkpt>
      <trkpt lat="50.37115" lon="4.30046">
        <ele>194.80000305176</ele>
        <time>2014-12-29T08:33:33.000Z</time>
      </trkpt>
      <trkpt lat="50.37113" lon="4.30042">
        <ele>195</ele>
        <time>2014-12-29T08:33:37.000Z</time>
      </trkpt>
      <trkpt lat="50.37107" lon="4.30035">
        <ele>195</ele>
        <time>2014-12-29T08:33:43.000Z</time>
      </trkpt>
      <trkpt lat="50.37103" lon="4.30028">
        <ele>195</ele>
        <time>2014-12-29T08:33:48.000Z</time>
      </trkpt>
      <trkpt lat="50.37095" lon="4.30015">
        <ele>194.60000610352</ele>
        <time>2014-12-29T08:33:57.000Z</time>
      </trkpt>
      <trkpt lat="50.37088" lon="4.30005">
        <ele>194.19999694824</ele>
        <time>2014-12-29T08:34:05.000Z</time>
      </trkpt>
      <trkpt lat="50.37085" lon="4.30001">
        <ele>194</ele>
        <time>2014-12-29T08:34:09.000Z</time>
      </trkpt>
      <trkpt lat="50.37084" lon="4.2999">
        <ele>194</ele>
        <time>2014-12-29T08:34:15.000Z</time>
      </trkpt>
      <trkpt lat="50.37084" lon="4.29989">
        <ele>194</ele>
        <time>2014-12-29T08:34:16.000Z</time>
      </trkpt>
      <trkpt lat="50.3708" lon="4.2998">
        <ele>193.80000305176</ele>
        <time>2014-12-29T08:34:23.000Z</time>
      </trkpt>
      <trkpt lat="50.37076" lon="4.29972">
        <ele>193.60000610352</ele>
        <time>2014-12-29T08:34:30.000Z</time>
      </trkpt>
      <trkpt lat="50.3707" lon="4.29965">
        <ele>193.19999694824</ele>
        <time>2014-12-29T08:34:37.000Z</time>
      </trkpt>
      <trkpt lat="50.37063" lon="4.29961">
        <ele>192.80000305176</ele>
        <time>2014-12-29T08:34:43.000Z</time>
      </trkpt>
      <trkpt lat="50.37061" lon="4.29961">
        <ele>192.80000305176</ele>
        <time>2014-12-29T08:34:45.000Z</time>
      </trkpt>
      <trkpt lat="50.37058" lon="4.29957">
        <ele>192.60000610352</ele>
        <time>2014-12-29T08:34:50.000Z</time>
      </trkpt>
      <trkpt lat="50.37047" lon="4.29937">
        <ele>192</ele>
        <time>2014-12-29T08:35:05.000Z</time>
      </trkpt>
      <trkpt lat="50.37047" lon="4.29936">
        <ele>192</ele>
        <time>2014-12-29T08:35:07.000Z</time>
      </trkpt>
      <trkpt lat="50.37041" lon="4.29927">
        <ele>191.80000305176</ele>
        <time>2014-12-29T08:35:16.000Z</time>
      </trkpt>
      <trkpt lat="50.37037" lon="4.29922">
        <ele>191.80000305176</ele>
        <time>2014-12-29T08:35:21.000Z</time>
      </trkpt>
      <trkpt lat="50.37032" lon="4.29915">
        <ele>191.60000610352</ele>
        <time>2014-12-29T08:35:29.000Z</time>
      </trkpt>
      <trkpt lat="50.37026" lon="4.29909">
        <ele>191.39999389648</ele>
        <time>2014-12-29T08:35:35.000Z</time>
      </trkpt>
      <trkpt lat="50.37021" lon="4.29898">
        <ele>191.39999389648</ele>
        <time>2014-12-29T08:35:42.000Z</time>
      </trkpt>
      <trkpt lat="50.3702" lon="4.29897">
        <ele>191.39999389648</ele>
        <time>2014-12-29T08:35:43.000Z</time>
      </trkpt>
      <trkpt lat="50.37016" lon="4.29889">
        <ele>191.19999694824</ele>
        <time>2014-12-29T08:35:50.000Z</time>
      </trkpt>
      <trkpt lat="50.37015" lon="4.29887">
        <ele>191.19999694824</ele>
        <time>2014-12-29T08:35:52.000Z</time>
      </trkpt>
      <trkpt lat="50.3701" lon="4.29877">
        <ele>191</ele>
        <time>2014-12-29T08:36:00.000Z</time>
      </trkpt>
      <trkpt lat="50.37009" lon="4.29875">
        <ele>191</ele>
        <time>2014-12-29T08:36:02.000Z</time>
      </trkpt>
      <trkpt lat="50.37003" lon="4.29874">
        <ele>191</ele>
        <time>2014-12-29T08:36:08.000Z</time>
      </trkpt>
      <trkpt lat="50.36996" lon="4.29877">
        <ele>190.80000305176</ele>
        <time>2014-12-29T08:36:17.000Z</time>
      </trkpt>
      <trkpt lat="50.36993" lon="4.29878">
        <ele>190.60000610352</ele>
        <time>2014-12-29T08:36:24.000Z</time>
      </trkpt>
      <trkpt lat="50.36993" lon="4.29877">
        <ele>190.60000610352</ele>
        <time>2014-12-29T08:36:36.000Z</time>
      </trkpt>
      <trkpt lat="50.36994" lon="4.2987">
        <ele>190.80000305176</ele>
        <time>2014-12-29T08:37:22.000Z</time>
      </trkpt>
      <trkpt lat="50.36986" lon="4.29874">
        <ele>190.60000610352</ele>
        <time>2014-12-29T08:37:28.000Z</time>
      </trkpt>
      <trkpt lat="50.36984" lon="4.29877">
        <ele>190.39999389648</ele>
        <time>2014-12-29T08:37:30.000Z</time>
      </trkpt>
      <trkpt lat="50.3697" lon="4.29894">
        <ele>189</ele>
        <time>2014-12-29T08:37:40.000Z</time>
      </trkpt>
      <trkpt lat="50.36964" lon="4.29912">
        <ele>187.60000610352</ele>
        <time>2014-12-29T08:37:49.000Z</time>
      </trkpt>
      <trkpt lat="50.36963" lon="4.29914">
        <ele>187.39999389648</ele>
        <time>2014-12-29T08:37:50.000Z</time>
      </trkpt>
      <trkpt lat="50.36963" lon="4.29917">
        <ele>187.19999694824</ele>
        <time>2014-12-29T08:37:56.000Z</time>
      </trkpt>
      <trkpt lat="50.36962" lon="4.29919">
        <ele>186.80000305176</ele>
        <time>2014-12-29T08:38:08.000Z</time>
      </trkpt>
      <trkpt lat="50.36961" lon="4.2992">
        <ele>186.60000610352</ele>
        <time>2014-12-29T08:38:13.000Z</time>
      </trkpt>
      <trkpt lat="50.36959" lon="4.29927">
        <ele>186</ele>
        <time>2014-12-29T08:38:19.000Z</time>
      </trkpt>
      <trkpt lat="50.36958" lon="4.29931">
        <ele>185.60000610352</ele>
        <time>2014-12-29T08:38:27.000Z</time>
      </trkpt>
      <trkpt lat="50.36956" lon="4.2994">
        <ele>185</ele>
        <time>2014-12-29T08:38:33.000Z</time>
      </trkpt>
      <trkpt lat="50.36956" lon="4.29943">
        <ele>184.39999389648</ele>
        <time>2014-12-29T08:38:39.000Z</time>
      </trkpt>
      <trkpt lat="50.36955" lon="4.29949">
        <ele>183.60000610352</ele>
        <time>2014-12-29T08:38:45.000Z</time>
      </trkpt>
      <trkpt lat="50.36954" lon="4.29955">
        <ele>183</ele>
        <time>2014-12-29T08:38:52.000Z</time>
      </trkpt>
      <trkpt lat="50.36953" lon="4.29966">
        <ele>182.19999694824</ele>
        <time>2014-12-29T08:39:00.000Z</time>
      </trkpt>
      <trkpt lat="50.36952" lon="4.29974">
        <ele>181.60000610352</ele>
        <time>2014-12-29T08:39:05.000Z</time>
      </trkpt>
      <trkpt lat="50.36952" lon="4.29977">
        <ele>181.60000610352</ele>
        <time>2014-12-29T08:39:08.000Z</time>
      </trkpt>
      <trkpt lat="50.36951" lon="4.29989">
        <ele>180.60000610352</ele>
        <time>2014-12-29T08:39:16.000Z</time>
      </trkpt>
      <trkpt lat="50.3695" lon="4.29989">
        <ele>180.60000610352</ele>
        <time>2014-12-29T08:39:17.000Z</time>
      </trkpt>
      <trkpt lat="50.36949" lon="4.29996">
        <ele>180</ele>
        <time>2014-12-29T08:39:22.000Z</time>
      </trkpt>
      <trkpt lat="50.36949" lon="4.3">
        <ele>179.80000305176</ele>
        <time>2014-12-29T08:39:28.000Z</time>
      </trkpt>
      <trkpt lat="50.36948" lon="4.30011">
        <ele>178.80000305176</ele>
        <time>2014-12-29T08:39:36.000Z</time>
      </trkpt>
      <trkpt lat="50.36947" lon="4.30013">
        <ele>178.60000610352</ele>
        <time>2014-12-29T08:39:38.000Z</time>
      </trkpt>
      <trkpt lat="50.36946" lon="4.30022">
        <ele>177</ele>
        <time>2014-12-29T08:39:46.000Z</time>
      </trkpt>
      <trkpt lat="50.36945" lon="4.30026">
        <ele>176.19999694824</ele>
        <time>2014-12-29T08:39:49.000Z</time>
      </trkpt>
      <trkpt lat="50.36944" lon="4.3003">
        <ele>175.39999389648</ele>
        <time>2014-12-29T08:39:52.000Z</time>
      </trkpt>
      <trkpt lat="50.36943" lon="4.30036">
        <ele>174.19999694824</ele>
        <time>2014-12-29T08:39:58.000Z</time>
      </trkpt>
      <trkpt lat="50.36942" lon="4.30049">
        <ele>171.60000610352</ele>
        <time>2014-12-29T08:40:07.000Z</time>
      </trkpt>
      <trkpt lat="50.36941" lon="4.3006">
        <ele>169.60000610352</ele>
        <time>2014-12-29T08:40:14.000Z</time>
      </trkpt>
      <trkpt lat="50.36939" lon="4.30072">
        <ele>167.39999389648</ele>
        <time>2014-12-29T08:40:22.000Z</time>
      </trkpt>
      <trkpt lat="50.36939" lon="4.30074">
        <ele>166.60000610352</ele>
        <time>2014-12-29T08:40:24.000Z</time>
      </trkpt>
      <trkpt lat="50.36937" lon="4.30087">
        <ele>164.19999694824</ele>
        <time>2014-12-29T08:40:32.000Z</time>
      </trkpt>
      <trkpt lat="50.36937" lon="4.30094">
        <ele>163.19999694824</ele>
        <time>2014-12-29T08:40:37.000Z</time>
      </trkpt>
      <trkpt lat="50.36936" lon="4.30097">
        <ele>162.80000305176</ele>
        <time>2014-12-29T08:40:39.000Z</time>
      </trkpt>
      <trkpt lat="50.36936" lon="4.30101">
        <ele>162.19999694824</ele>
        <time>2014-12-29T08:40:45.000Z</time>
      </trkpt>
      <trkpt lat="50.36936" lon="4.30112">
        <ele>161</ele>
        <time>2014-12-29T08:40:53.000Z</time>
      </trkpt>
      <trkpt lat="50.36937" lon="4.30126">
        <ele>159</ele>
        <time>2014-12-29T08:41:03.000Z</time>
      </trkpt>
      <trkpt lat="50.36937" lon="4.30128">
        <ele>158.80000305176</ele>
        <time>2014-12-29T08:41:05.000Z</time>
      </trkpt>
      <trkpt lat="50.36939" lon="4.30136">
        <ele>157.80000305176</ele>
        <time>2014-12-29T08:41:12.000Z</time>
      </trkpt>
      <trkpt lat="50.36941" lon="4.30144">
        <ele>157</ele>
        <time>2014-12-29T08:41:19.000Z</time>
      </trkpt>
      <trkpt lat="50.36944" lon="4.30154">
        <ele>156.19999694824</ele>
        <time>2014-12-29T08:41:27.000Z</time>
      </trkpt>
      <trkpt lat="50.36945" lon="4.30157">
        <ele>156</ele>
        <time>2014-12-29T08:41:29.000Z</time>
      </trkpt>
      <trkpt lat="50.36948" lon="4.30163">
        <ele>155.80000305176</ele>
        <time>2014-12-29T08:41:35.000Z</time>
      </trkpt>
      <trkpt lat="50.36954" lon="4.30171">
        <ele>156.39999389648</ele>
        <time>2014-12-29T08:41:44.000Z</time>
      </trkpt>
      <trkpt lat="50.3696" lon="4.30177">
        <ele>157</ele>
        <time>2014-12-29T08:41:53.000Z</time>
      </trkpt>
      <trkpt lat="50.36966" lon="4.30181">
        <ele>157.80000305176</ele>
        <time>2014-12-29T08:42:02.000Z</time>
      </trkpt>
      <trkpt lat="50.36975" lon="4.30186">
        <ele>158.60000610352</ele>
        <time>2014-12-29T08:42:11.000Z</time>
      </trkpt>
      <trkpt lat="50.36984" lon="4.30192">
        <ele>159.19999694824</ele>
        <time>2014-12-29T08:42:21.000Z</time>
      </trkpt>
      <trkpt lat="50.3699" lon="4.30197">
        <ele>159.39999389648</ele>
        <time>2014-12-29T08:42:28.000Z</time>
      </trkpt>
      <trkpt lat="50.36996" lon="4.30207">
        <ele>158.60000610352</ele>
        <time>2014-12-29T08:42:37.000Z</time>
      </trkpt>
      <trkpt lat="50.36997" lon="4.30208">
        <ele>158.39999389648</ele>
        <time>2014-12-29T08:42:38.000Z</time>
      </trkpt>
      <trkpt lat="50.36997" lon="4.30215">
        <ele>157</ele>
        <time>2014-12-29T08:42:46.000Z</time>
      </trkpt>
      <trkpt lat="50.36997" lon="4.30219">
        <ele>156</ele>
        <time>2014-12-29T08:42:51.000Z</time>
      </trkpt>
      <trkpt lat="50.36995" lon="4.30227">
        <ele>153.80000305176</ele>
        <time>2014-12-29T08:43:00.000Z</time>
      </trkpt>
      <trkpt lat="50.36994" lon="4.30231">
        <ele>153</ele>
        <time>2014-12-29T08:43:05.000Z</time>
      </trkpt>
      <trkpt lat="50.36991" lon="4.30236">
        <ele>151.60000610352</ele>
        <time>2014-12-29T08:43:11.000Z</time>
      </trkpt>
      <trkpt lat="50.36989" lon="4.30239">
        <ele>151</ele>
        <time>2014-12-29T08:43:16.000Z</time>
      </trkpt>
      <trkpt lat="50.36987" lon="4.30243">
        <ele>149.80000305176</ele>
        <time>2014-12-29T08:43:23.000Z</time>
      </trkpt>
      <trkpt lat="50.36985" lon="4.3025">
        <ele>148.39999389648</ele>
        <time>2014-12-29T08:43:31.000Z</time>
      </trkpt>
      <trkpt lat="50.36984" lon="4.30257">
        <ele>147</ele>
        <time>2014-12-29T08:43:37.000Z</time>
      </trkpt>
      <trkpt lat="50.36983" lon="4.30269">
        <ele>144.60000610352</ele>
        <time>2014-12-29T08:43:47.000Z</time>
      </trkpt>
      <trkpt lat="50.36983" lon="4.30279">
        <ele>142.80000305176</ele>
        <time>2014-12-29T08:43:54.000Z</time>
      </trkpt>
      <trkpt lat="50.3698" lon="4.30292">
        <ele>139.39999389648</ele>
        <time>2014-12-29T08:44:02.000Z</time>
      </trkpt>
      <trkpt lat="50.3698" lon="4.30294">
        <ele>139</ele>
        <time>2014-12-29T08:44:03.000Z</time>
      </trkpt>
      <trkpt lat="50.36978" lon="4.30296">
        <ele>138.39999389648</ele>
        <time>2014-12-29T08:44:05.000Z</time>
      </trkpt>
      <trkpt lat="50.36974" lon="4.30299">
        <ele>137.60000610352</ele>
        <time>2014-12-29T08:44:10.000Z</time>
      </trkpt>
      <trkpt lat="50.36973" lon="4.30293">
        <ele>138.39999389648</ele>
        <time>2014-12-29T08:44:17.000Z</time>
      </trkpt>
      <trkpt lat="50.3697" lon="4.30291">
        <ele>138.60000610352</ele>
        <time>2014-12-29T08:44:23.000Z</time>
      </trkpt>
      <trkpt lat="50.36968" lon="4.30289">
        <ele>138.80000305176</ele>
        <time>2014-12-29T08:44:28.000Z</time>
      </trkpt>
      <trkpt lat="50.36963" lon="4.30279">
        <ele>139.80000305176</ele>
        <time>2014-12-29T08:44:38.000Z</time>
      </trkpt>
      <trkpt lat="50.36959" lon="4.3027">
        <ele>140.39999389648</ele>
        <time>2014-12-29T08:44:46.000Z</time>
      </trkpt>
      <trkpt lat="50.36955" lon="4.30261">
        <ele>141.19999694824</ele>
        <time>2014-12-29T08:44:55.000Z</time>
      </trkpt>
      <trkpt lat="50.36955" lon="4.3026">
        <ele>141.19999694824</ele>
        <time>2014-12-29T08:44:56.000Z</time>
      </trkpt>
      <trkpt lat="50.36946" lon="4.30249">
        <ele>141.39999389648</ele>
        <time>2014-12-29T08:45:07.000Z</time>
      </trkpt>
      <trkpt lat="50.36939" lon="4.30239">
        <ele>141.39999389648</ele>
        <time>2014-12-29T08:45:16.000Z</time>
      </trkpt>
      <trkpt lat="50.36933" lon="4.30231">
        <ele>141.39999389648</ele>
        <time>2014-12-29T08:45:24.000Z</time>
      </trkpt>
      <trkpt lat="50.36927" lon="4.30227">
        <ele>140.60000610352</ele>
        <time>2014-12-29T08:45:31.000Z</time>
      </trkpt>
      <trkpt lat="50.36923" lon="4.30221">
        <ele>140.60000610352</ele>
        <time>2014-12-29T08:45:35.000Z</time>
      </trkpt>
      <trkpt lat="50.36916" lon="4.30216">
        <ele>140</ele>
        <time>2014-12-29T08:45:43.000Z</time>
      </trkpt>
      <trkpt lat="50.36905" lon="4.30215">
        <ele>137.39999389648</ele>
        <time>2014-12-29T08:45:52.000Z</time>
      </trkpt>
      <trkpt lat="50.36896" lon="4.30215">
        <ele>135.60000610352</ele>
        <time>2014-12-29T08:45:59.000Z</time>
      </trkpt>
      <trkpt lat="50.36895" lon="4.30215">
        <ele>135.39999389648</ele>
        <time>2014-12-29T08:46:00.000Z</time>
      </trkpt>
      <trkpt lat="50.36888" lon="4.30217">
        <ele>134.19999694824</ele>
        <time>2014-12-29T08:46:06.000Z</time>
      </trkpt>
      <trkpt lat="50.36886" lon="4.30218">
        <ele>133.60000610352</ele>
        <time>2014-12-29T08:46:16.000Z</time>
      </trkpt>
      <trkpt lat="50.36878" lon="4.3022">
        <ele>132.39999389648</ele>
        <time>2014-12-29T08:46:22.000Z</time>
      </trkpt>
      <trkpt lat="50.3687" lon="4.30222">
        <ele>131</ele>
        <time>2014-12-29T08:46:28.000Z</time>
      </trkpt>
      <trkpt lat="50.3686" lon="4.30224">
        <ele>129.39999389648</ele>
        <time>2014-12-29T08:46:35.000Z</time>
      </trkpt>
      <trkpt lat="50.3685" lon="4.30225">
        <ele>127.80000305176</ele>
        <time>2014-12-29T08:46:43.000Z</time>
      </trkpt>
      <trkpt lat="50.36839" lon="4.30224">
        <ele>126.40000152588</ele>
        <time>2014-12-29T08:46:52.000Z</time>
      </trkpt>
      <trkpt lat="50.36831" lon="4.30218">
        <ele>125.80000305176</ele>
        <time>2014-12-29T08:47:00.000Z</time>
      </trkpt>
      <trkpt lat="50.36824" lon="4.30208">
        <ele>125.80000305176</ele>
        <time>2014-12-29T08:47:09.000Z</time>
      </trkpt>
      <trkpt lat="50.36823" lon="4.30204">
        <ele>126</ele>
        <time>2014-12-29T08:47:12.000Z</time>
      </trkpt>
      <trkpt lat="50.36825" lon="4.30202">
        <ele>126.40000152588</ele>
        <time>2014-12-29T08:47:23.000Z</time>
      </trkpt>
      <trkpt lat="50.36821" lon="4.30194">
        <ele>126.40000152588</ele>
        <time>2014-12-29T08:47:38.000Z</time>
      </trkpt>
      <trkpt lat="50.36815" lon="4.30176">
        <ele>126</ele>
        <time>2014-12-29T08:47:47.000Z</time>
      </trkpt>
      <trkpt lat="50.36811" lon="4.30156">
        <ele>125.80000305176</ele>
        <time>2014-12-29T08:47:56.000Z</time>
      </trkpt>
      <trkpt lat="50.36808" lon="4.30141">
        <ele>125.80000305176</ele>
        <time>2014-12-29T08:48:03.000Z</time>
      </trkpt>
      <trkpt lat="50.36803" lon="4.30127">
        <ele>125.40000152588</ele>
        <time>2014-12-29T08:48:12.000Z</time>
      </trkpt>
      <trkpt lat="50.36796" lon="4.30119">
        <ele>125.19999694824</ele>
        <time>2014-12-29T08:48:19.000Z</time>
      </trkpt>
      <trkpt lat="50.36788" lon="4.30128">
        <ele>125.80000305176</ele>
        <time>2014-12-29T08:48:27.000Z</time>
      </trkpt>
      <trkpt lat="50.36781" lon="4.3014">
        <ele>126.59999847412</ele>
        <time>2014-12-29T08:48:37.000Z</time>
      </trkpt>
      <trkpt lat="50.36774" lon="4.30154">
        <ele>127.19999694824</ele>
        <time>2014-12-29T08:48:47.000Z</time>
      </trkpt>
      <trkpt lat="50.36768" lon="4.30166">
        <ele>127.59999847412</ele>
        <time>2014-12-29T08:48:54.000Z</time>
      </trkpt>
      <trkpt lat="50.3676" lon="4.3018">
        <ele>128.19999694824</ele>
        <time>2014-12-29T08:49:06.000Z</time>
      </trkpt>
      <trkpt lat="50.36752" lon="4.30192">
        <ele>128.60000610352</ele>
        <time>2014-12-29T08:49:14.000Z</time>
      </trkpt>
      <trkpt lat="50.36746" lon="4.302">
        <ele>129.19999694824</ele>
        <time>2014-12-29T08:49:21.000Z</time>
      </trkpt>
      <trkpt lat="50.36736" lon="4.3021">
        <ele>130</ele>
        <time>2014-12-29T08:49:31.000Z</time>
      </trkpt>
      <trkpt lat="50.36727" lon="4.30219">
        <ele>130.39999389648</ele>
        <time>2014-12-29T08:49:39.000Z</time>
      </trkpt>
      <trkpt lat="50.36718" lon="4.30227">
        <ele>130.19999694824</ele>
        <time>2014-12-29T08:49:49.000Z</time>
      </trkpt>
      <trkpt lat="50.3671" lon="4.30235">
        <ele>130.80000305176</ele>
        <time>2014-12-29T08:49:57.000Z</time>
      </trkpt>
      <trkpt lat="50.367" lon="4.30244">
        <ele>132.19999694824</ele>
        <time>2014-12-29T08:50:07.000Z</time>
      </trkpt>
      <trkpt lat="50.36692" lon="4.30252">
        <ele>133.39999389648</ele>
        <time>2014-12-29T08:50:14.000Z</time>
      </trkpt>
      <trkpt lat="50.36684" lon="4.3026">
        <ele>134.19999694824</ele>
        <time>2014-12-29T08:50:23.000Z</time>
      </trkpt>
      <trkpt lat="50.36676" lon="4.30269">
        <ele>134.39999389648</ele>
        <time>2014-12-29T08:50:31.000Z</time>
      </trkpt>
      <trkpt lat="50.36667" lon="4.30278">
        <ele>134.80000305176</ele>
        <time>2014-12-29T08:50:39.000Z</time>
      </trkpt>
      <trkpt lat="50.36661" lon="4.30283">
        <ele>135.39999389648</ele>
        <time>2014-12-29T08:50:45.000Z</time>
      </trkpt>
      <trkpt lat="50.36652" lon="4.30292">
        <ele>136.19999694824</ele>
        <time>2014-12-29T08:50:54.000Z</time>
      </trkpt>
      <trkpt lat="50.36643" lon="4.30302">
        <ele>136.39999389648</ele>
        <time>2014-12-29T08:51:04.000Z</time>
      </trkpt>
      <trkpt lat="50.36638" lon="4.30306">
        <ele>136.39999389648</ele>
        <time>2014-12-29T08:51:11.000Z</time>
      </trkpt>
      <trkpt lat="50.36631" lon="4.30315">
        <ele>136</ele>
        <time>2014-12-29T08:51:19.000Z</time>
      </trkpt>
      <trkpt lat="50.36625" lon="4.30321">
        <ele>135.80000305176</ele>
        <time>2014-12-29T08:51:24.000Z</time>
      </trkpt>
      <trkpt lat="50.36622" lon="4.30326">
        <ele>135.60000610352</ele>
        <time>2014-12-29T08:51:29.000Z</time>
      </trkpt>
      <trkpt lat="50.36613" lon="4.30335">
        <ele>135.19999694824</ele>
        <time>2014-12-29T08:51:38.000Z</time>
      </trkpt>
      <trkpt lat="50.36607" lon="4.30342">
        <ele>135</ele>
        <time>2014-12-29T08:51:44.000Z</time>
      </trkpt>
      <trkpt lat="50.36601" lon="4.30348">
        <ele>134.80000305176</ele>
        <time>2014-12-29T08:51:51.000Z</time>
      </trkpt>
      <trkpt lat="50.36591" lon="4.30357">
        <ele>134.19999694824</ele>
        <time>2014-12-29T08:51:59.000Z</time>
      </trkpt>
      <trkpt lat="50.36587" lon="4.30361">
        <ele>134.19999694824</ele>
        <time>2014-12-29T08:52:03.000Z</time>
      </trkpt>
      <trkpt lat="50.3658" lon="4.30368">
        <ele>134.19999694824</ele>
        <time>2014-12-29T08:52:09.000Z</time>
      </trkpt>
      <trkpt lat="50.36574" lon="4.30373">
        <ele>134.19999694824</ele>
        <time>2014-12-29T08:52:14.000Z</time>
      </trkpt>
      <trkpt lat="50.36569" lon="4.30379">
        <ele>134.19999694824</ele>
        <time>2014-12-29T08:52:19.000Z</time>
      </trkpt>
      <trkpt lat="50.36559" lon="4.30388">
        <ele>134.60000610352</ele>
        <time>2014-12-29T08:52:29.000Z</time>
      </trkpt>
      <trkpt lat="50.36552" lon="4.30395">
        <ele>135.19999694824</ele>
        <time>2014-12-29T08:52:36.000Z</time>
      </trkpt>
      <trkpt lat="50.36545" lon="4.30403">
        <ele>135.19999694824</ele>
        <time>2014-12-29T08:52:43.000Z</time>
      </trkpt>
      <trkpt lat="50.36536" lon="4.30412">
        <ele>135</ele>
        <time>2014-12-29T08:52:51.000Z</time>
      </trkpt>
      <trkpt lat="50.3653" lon="4.30419">
        <ele>134.80000305176</ele>
        <time>2014-12-29T08:52:58.000Z</time>
      </trkpt>
      <trkpt lat="50.36524" lon="4.30423">
        <ele>134.80000305176</ele>
        <time>2014-12-29T08:53:04.000Z</time>
      </trkpt>
      <trkpt lat="50.36516" lon="4.30431">
        <ele>134.60000610352</ele>
        <time>2014-12-29T08:53:13.000Z</time>
      </trkpt>
      <trkpt lat="50.3651" lon="4.30437">
        <ele>134.60000610352</ele>
        <time>2014-12-29T08:53:19.000Z</time>
      </trkpt>
      <trkpt lat="50.36505" lon="4.30442">
        <ele>134.39999389648</ele>
        <time>2014-12-29T08:53:24.000Z</time>
      </trkpt>
      <trkpt lat="50.365" lon="4.30448">
        <ele>134.19999694824</ele>
        <time>2014-12-29T08:53:29.000Z</time>
      </trkpt>
      <trkpt lat="50.36492" lon="4.30456">
        <ele>134</ele>
        <time>2014-12-29T08:53:39.000Z</time>
      </trkpt>
      <trkpt lat="50.36485" lon="4.30462">
        <ele>133.80000305176</ele>
        <time>2014-12-29T08:53:44.000Z</time>
      </trkpt>
      <trkpt lat="50.36477" lon="4.30469">
        <ele>133.60000610352</ele>
        <time>2014-12-29T08:53:53.000Z</time>
      </trkpt>
      <trkpt lat="50.36469" lon="4.30476">
        <ele>133.39999389648</ele>
        <time>2014-12-29T08:54:00.000Z</time>
      </trkpt>
      <trkpt lat="50.36462" lon="4.30484">
        <ele>133</ele>
        <time>2014-12-29T08:54:08.000Z</time>
      </trkpt>
      <trkpt lat="50.36453" lon="4.30493">
        <ele>132.80000305176</ele>
        <time>2014-12-29T08:54:15.000Z</time>
      </trkpt>
      <trkpt lat="50.36447" lon="4.305">
        <ele>132.60000610352</ele>
        <time>2014-12-29T08:54:21.000Z</time>
      </trkpt>
      <trkpt lat="50.3644" lon="4.30507">
        <ele>132.39999389648</ele>
        <time>2014-12-29T08:54:29.000Z</time>
      </trkpt>
      <trkpt lat="50.36436" lon="4.30512">
        <ele>132.19999694824</ele>
        <time>2014-12-29T08:54:33.000Z</time>
      </trkpt>
      <trkpt lat="50.36434" lon="4.30514">
        <ele>132.19999694824</ele>
        <time>2014-12-29T08:54:37.000Z</time>
      </trkpt>
      <trkpt lat="50.36428" lon="4.30521">
        <ele>132</ele>
        <time>2014-12-29T08:54:44.000Z</time>
      </trkpt>
      <trkpt lat="50.36424" lon="4.30524">
        <ele>131.80000305176</ele>
        <time>2014-12-29T08:54:47.000Z</time>
      </trkpt>
      <trkpt lat="50.36413" lon="4.30535">
        <ele>131.80000305176</ele>
        <time>2014-12-29T08:54:56.000Z</time>
      </trkpt>
      <trkpt lat="50.36411" lon="4.30536">
        <ele>131.80000305176</ele>
        <time>2014-12-29T08:54:59.000Z</time>
      </trkpt>
      <trkpt lat="50.36406" lon="4.30541">
        <ele>131.80000305176</ele>
        <time>2014-12-29T08:55:03.000Z</time>
      </trkpt>
      <trkpt lat="50.36399" lon="4.3055">
        <ele>131.80000305176</ele>
        <time>2014-12-29T08:55:13.000Z</time>
      </trkpt>
      <trkpt lat="50.36395" lon="4.30554">
        <ele>132</ele>
        <time>2014-12-29T08:55:17.000Z</time>
      </trkpt>
      <trkpt lat="50.36387" lon="4.30563">
        <ele>132.39999389648</ele>
        <time>2014-12-29T08:55:24.000Z</time>
      </trkpt>
      <trkpt lat="50.36381" lon="4.30569">
        <ele>132.60000610352</ele>
        <time>2014-12-29T08:55:31.000Z</time>
      </trkpt>
      <trkpt lat="50.3638" lon="4.3057">
        <ele>132.60000610352</ele>
        <time>2014-12-29T08:55:32.000Z</time>
      </trkpt>
      <trkpt lat="50.36373" lon="4.30579">
        <ele>132.80000305176</ele>
        <time>2014-12-29T08:55:41.000Z</time>
      </trkpt>
      <trkpt lat="50.36368" lon="4.30584">
        <ele>132.80000305176</ele>
        <time>2014-12-29T08:55:45.000Z</time>
      </trkpt>
      <trkpt lat="50.3636" lon="4.30592">
        <ele>133</ele>
        <time>2014-12-29T08:55:54.000Z</time>
      </trkpt>
      <trkpt lat="50.36355" lon="4.30598">
        <ele>133.19999694824</ele>
        <time>2014-12-29T08:55:58.000Z</time>
      </trkpt>
      <trkpt lat="50.36347" lon="4.30607">
        <ele>133.19999694824</ele>
        <time>2014-12-29T08:56:06.000Z</time>
      </trkpt>
      <trkpt lat="50.36338" lon="4.30615">
        <ele>133.39999389648</ele>
        <time>2014-12-29T08:56:14.000Z</time>
      </trkpt>
      <trkpt lat="50.36331" lon="4.30621">
        <ele>133.60000610352</ele>
        <time>2014-12-29T08:56:21.000Z</time>
      </trkpt>
      <trkpt lat="50.36325" lon="4.30628">
        <ele>133.80000305176</ele>
        <time>2014-12-29T08:56:27.000Z</time>
      </trkpt>
      <trkpt lat="50.36315" lon="4.30638">
        <ele>133.80000305176</ele>
        <time>2014-12-29T08:56:36.000Z</time>
      </trkpt>
      <trkpt lat="50.36307" lon="4.30646">
        <ele>134</ele>
        <time>2014-12-29T08:56:44.000Z</time>
      </trkpt>
      <trkpt lat="50.36301" lon="4.30651">
        <ele>134</ele>
        <time>2014-12-29T08:56:51.000Z</time>
      </trkpt>
      <trkpt lat="50.36295" lon="4.30657">
        <ele>134.19999694824</ele>
        <time>2014-12-29T08:56:57.000Z</time>
      </trkpt>
      <trkpt lat="50.36286" lon="4.30665">
        <ele>134.39999389648</ele>
        <time>2014-12-29T08:57:04.000Z</time>
      </trkpt>
      <trkpt lat="50.36279" lon="4.30673">
        <ele>134.60000610352</ele>
        <time>2014-12-29T08:57:13.000Z</time>
      </trkpt>
      <trkpt lat="50.36272" lon="4.30678">
        <ele>134.60000610352</ele>
        <time>2014-12-29T08:57:21.000Z</time>
      </trkpt>
      <trkpt lat="50.36264" lon="4.30685">
        <ele>134.80000305176</ele>
        <time>2014-12-29T08:57:29.000Z</time>
      </trkpt>
      <trkpt lat="50.36257" lon="4.30692">
        <ele>134.80000305176</ele>
        <time>2014-12-29T08:57:37.000Z</time>
      </trkpt>
      <trkpt lat="50.36248" lon="4.307">
        <ele>134.80000305176</ele>
        <time>2014-12-29T08:57:45.000Z</time>
      </trkpt>
      <trkpt lat="50.36237" lon="4.3071">
        <ele>135.19999694824</ele>
        <time>2014-12-29T08:57:56.000Z</time>
      </trkpt>
      <trkpt lat="50.36228" lon="4.30719">
        <ele>135.19999694824</ele>
        <time>2014-12-29T08:58:03.000Z</time>
      </trkpt>
      <trkpt lat="50.36219" lon="4.30727">
        <ele>135</ele>
        <time>2014-12-29T08:58:12.000Z</time>
      </trkpt>
      <trkpt lat="50.36213" lon="4.30732">
        <ele>135</ele>
        <time>2014-12-29T08:58:18.000Z</time>
      </trkpt>
      <trkpt lat="50.36206" lon="4.30739">
        <ele>135</ele>
        <time>2014-12-29T08:58:24.000Z</time>
      </trkpt>
      <trkpt lat="50.36199" lon="4.30744">
        <ele>134.80000305176</ele>
        <time>2014-12-29T08:58:32.000Z</time>
      </trkpt>
      <trkpt lat="50.36191" lon="4.30752">
        <ele>134.80000305176</ele>
        <time>2014-12-29T08:58:41.000Z</time>
      </trkpt>
      <trkpt lat="50.36188" lon="4.30755">
        <ele>134.80000305176</ele>
        <time>2014-12-29T08:58:48.000Z</time>
      </trkpt>
      <trkpt lat="50.36186" lon="4.30755">
        <ele>134.80000305176</ele>
        <time>2014-12-29T08:58:53.000Z</time>
      </trkpt>
      <trkpt lat="50.36184" lon="4.30761">
        <ele>134.60000610352</ele>
        <time>2014-12-29T08:59:01.000Z</time>
      </trkpt>
      <trkpt lat="50.3618" lon="4.30759">
        <ele>134.80000305176</ele>
        <time>2014-12-29T08:59:03.000Z</time>
      </trkpt>
      <trkpt lat="50.36173" lon="4.30762">
        <ele>134.80000305176</ele>
        <time>2014-12-29T08:59:11.000Z</time>
      </trkpt>
      <trkpt lat="50.3617" lon="4.30764">
        <ele>134.80000305176</ele>
        <time>2014-12-29T08:59:14.000Z</time>
      </trkpt>
      <trkpt lat="50.36163" lon="4.3077">
        <ele>134.60000610352</ele>
        <time>2014-12-29T08:59:21.000Z</time>
      </trkpt>
      <trkpt lat="50.36161" lon="4.30771">
        <ele>134.60000610352</ele>
        <time>2014-12-29T08:59:24.000Z</time>
      </trkpt>
      <trkpt lat="50.36151" lon="4.30778">
        <ele>134.39999389648</ele>
        <time>2014-12-29T08:59:31.000Z</time>
      </trkpt>
      <trkpt lat="50.36141" lon="4.30785">
        <ele>134.39999389648</ele>
        <time>2014-12-29T08:59:40.000Z</time>
      </trkpt>
      <trkpt lat="50.36134" lon="4.3079">
        <ele>134.19999694824</ele>
        <time>2014-12-29T08:59:48.000Z</time>
      </trkpt>
      <trkpt lat="50.36129" lon="4.30792">
        <ele>134.39999389648</ele>
        <time>2014-12-29T08:59:53.000Z</time>
      </trkpt>
      <trkpt lat="50.36121" lon="4.30797">
        <ele>135</ele>
        <time>2014-12-29T09:00:02.000Z</time>
      </trkpt>
      <trkpt lat="50.36116" lon="4.308">
        <ele>135.39999389648</ele>
        <time>2014-12-29T09:00:06.000Z</time>
      </trkpt>
      <trkpt lat="50.36115" lon="4.30802">
        <ele>135.39999389648</ele>
        <time>2014-12-29T09:00:08.000Z</time>
      </trkpt>
      <trkpt lat="50.36112" lon="4.30803">
        <ele>135.60000610352</ele>
        <time>2014-12-29T09:00:11.000Z</time>
      </trkpt>
      <trkpt lat="50.36103" lon="4.30809">
        <ele>136.19999694824</ele>
        <time>2014-12-29T09:00:19.000Z</time>
      </trkpt>
      <trkpt lat="50.36095" lon="4.30816">
        <ele>136.80000305176</ele>
        <time>2014-12-29T09:00:27.000Z</time>
      </trkpt>
      <trkpt lat="50.36085" lon="4.30822">
        <ele>137.60000610352</ele>
        <time>2014-12-29T09:00:37.000Z</time>
      </trkpt>
      <trkpt lat="50.36075" lon="4.30829">
        <ele>138.19999694824</ele>
        <time>2014-12-29T09:00:47.000Z</time>
      </trkpt>
      <trkpt lat="50.3607" lon="4.30833">
        <ele>138.60000610352</ele>
        <time>2014-12-29T09:00:53.000Z</time>
      </trkpt>
      <trkpt lat="50.36062" lon="4.30839">
        <ele>139</ele>
        <time>2014-12-29T09:00:59.000Z</time>
      </trkpt>
      <trkpt lat="50.36055" lon="4.30844">
        <ele>139.60000610352</ele>
        <time>2014-12-29T09:01:07.000Z</time>
      </trkpt>
      <trkpt lat="50.36048" lon="4.3085">
        <ele>140</ele>
        <time>2014-12-29T09:01:14.000Z</time>
      </trkpt>
      <trkpt lat="50.36042" lon="4.30855">
        <ele>140</ele>
        <time>2014-12-29T09:01:19.000Z</time>
      </trkpt>
      <trkpt lat="50.36033" lon="4.30861">
        <ele>140</ele>
        <time>2014-12-29T09:01:29.000Z</time>
      </trkpt>
      <trkpt lat="50.36024" lon="4.30867">
        <ele>140</ele>
        <time>2014-12-29T09:01:38.000Z</time>
      </trkpt>
      <trkpt lat="50.36017" lon="4.30872">
        <ele>140</ele>
        <time>2014-12-29T09:01:44.000Z</time>
      </trkpt>
      <trkpt lat="50.36014" lon="4.30875">
        <ele>140</ele>
        <time>2014-12-29T09:01:49.000Z</time>
      </trkpt>
      <trkpt lat="50.36005" lon="4.30881">
        <ele>140.19999694824</ele>
        <time>2014-12-29T09:01:57.000Z</time>
      </trkpt>
      <trkpt lat="50.35996" lon="4.3089">
        <ele>140.19999694824</ele>
        <time>2014-12-29T09:02:07.000Z</time>
      </trkpt>
      <trkpt lat="50.35993" lon="4.30891">
        <ele>140.39999389648</ele>
        <time>2014-12-29T09:02:09.000Z</time>
      </trkpt>
      <trkpt lat="50.35986" lon="4.30897">
        <ele>140.39999389648</ele>
        <time>2014-12-29T09:02:17.000Z</time>
      </trkpt>
      <trkpt lat="50.35983" lon="4.30898">
        <ele>140.39999389648</ele>
        <time>2014-12-29T09:02:20.000Z</time>
      </trkpt>
      <trkpt lat="50.35976" lon="4.30901">
        <ele>140.60000610352</ele>
        <time>2014-12-29T09:02:26.000Z</time>
      </trkpt>
      <trkpt lat="50.35967" lon="4.30907">
        <ele>140.80000305176</ele>
        <time>2014-12-29T09:02:35.000Z</time>
      </trkpt>
      <trkpt lat="50.35961" lon="4.3091">
        <ele>141</ele>
        <time>2014-12-29T09:02:41.000Z</time>
      </trkpt>
      <trkpt lat="50.35957" lon="4.3091">
        <ele>141.19999694824</ele>
        <time>2014-12-29T09:02:44.000Z</time>
      </trkpt>
      <trkpt lat="50.35953" lon="4.30912">
        <ele>141.39999389648</ele>
        <time>2014-12-29T09:02:48.000Z</time>
      </trkpt>
      <trkpt lat="50.35947" lon="4.30917">
        <ele>141.80000305176</ele>
        <time>2014-12-29T09:02:56.000Z</time>
      </trkpt>
      <trkpt lat="50.35944" lon="4.30918">
        <ele>141.80000305176</ele>
        <time>2014-12-29T09:02:59.000Z</time>
      </trkpt>
      <trkpt lat="50.35939" lon="4.30919">
        <ele>142.19999694824</ele>
        <time>2014-12-29T09:03:03.000Z</time>
      </trkpt>
      <trkpt lat="50.35931" lon="4.30924">
        <ele>142.39999389648</ele>
        <time>2014-12-29T09:03:12.000Z</time>
      </trkpt>
      <trkpt lat="50.35926" lon="4.30927">
        <ele>142.60000610352</ele>
        <time>2014-12-29T09:03:19.000Z</time>
      </trkpt>
      <trkpt lat="50.3592" lon="4.3093">
        <ele>142.60000610352</ele>
        <time>2014-12-29T09:03:26.000Z</time>
      </trkpt>
      <trkpt lat="50.35914" lon="4.30933">
        <ele>142.80000305176</ele>
        <time>2014-12-29T09:03:32.000Z</time>
      </trkpt>
      <trkpt lat="50.3591" lon="4.30936">
        <ele>143</ele>
        <time>2014-12-29T09:03:36.000Z</time>
      </trkpt>
      <trkpt lat="50.35904" lon="4.30939">
        <ele>143.19999694824</ele>
        <time>2014-12-29T09:03:43.000Z</time>
      </trkpt>
      <trkpt lat="50.35903" lon="4.30939">
        <ele>143.19999694824</ele>
        <time>2014-12-29T09:03:44.000Z</time>
      </trkpt>
      <trkpt lat="50.35898" lon="4.3094">
        <ele>143.39999389648</ele>
        <time>2014-12-29T09:03:49.000Z</time>
      </trkpt>
      <trkpt lat="50.35893" lon="4.30941">
        <ele>143.60000610352</ele>
        <time>2014-12-29T09:03:55.000Z</time>
      </trkpt>
      <trkpt lat="50.35891" lon="4.30942">
        <ele>143.60000610352</ele>
        <time>2014-12-29T09:03:57.000Z</time>
      </trkpt>
      <trkpt lat="50.35889" lon="4.30944">
        <ele>143.80000305176</ele>
        <time>2014-12-29T09:03:59.000Z</time>
      </trkpt>
      <trkpt lat="50.35879" lon="4.30953">
        <ele>143.80000305176</ele>
        <time>2014-12-29T09:04:09.000Z</time>
      </trkpt>
      <trkpt lat="50.35874" lon="4.30958">
        <ele>143.60000610352</ele>
        <time>2014-12-29T09:04:15.000Z</time>
      </trkpt>
      <trkpt lat="50.35874" lon="4.30959">
        <ele>143.60000610352</ele>
        <time>2014-12-29T09:04:16.000Z</time>
      </trkpt>
      <trkpt lat="50.35871" lon="4.30965">
        <ele>143.39999389648</ele>
        <time>2014-12-29T09:04:21.000Z</time>
      </trkpt>
      <trkpt lat="50.35869" lon="4.30972">
        <ele>143.19999694824</ele>
        <time>2014-12-29T09:04:26.000Z</time>
      </trkpt>
      <trkpt lat="50.35865" lon="4.3098">
        <ele>142.80000305176</ele>
        <time>2014-12-29T09:04:31.000Z</time>
      </trkpt>
      <trkpt lat="50.35863" lon="4.30987">
        <ele>142.39999389648</ele>
        <time>2014-12-29T09:04:36.000Z</time>
      </trkpt>
      <trkpt lat="50.35862" lon="4.30991">
        <ele>142.19999694824</ele>
        <time>2014-12-29T09:04:39.000Z</time>
      </trkpt>
      <trkpt lat="50.35859" lon="4.30988">
        <ele>142.60000610352</ele>
        <time>2014-12-29T09:04:52.000Z</time>
      </trkpt>
      <trkpt lat="50.35851" lon="4.30988">
        <ele>143</ele>
        <time>2014-12-29T09:05:02.000Z</time>
      </trkpt>
      <trkpt lat="50.35847" lon="4.30985">
        <ele>143.39999389648</ele>
        <time>2014-12-29T09:05:07.000Z</time>
      </trkpt>
      <trkpt lat="50.35844" lon="4.30986">
        <ele>143.39999389648</ele>
        <time>2014-12-29T09:05:09.000Z</time>
      </trkpt>
      <trkpt lat="50.35834" lon="4.30989">
        <ele>143.60000610352</ele>
        <time>2014-12-29T09:05:19.000Z</time>
      </trkpt>
      <trkpt lat="50.35825" lon="4.30989">
        <ele>143.80000305176</ele>
        <time>2014-12-29T09:05:27.000Z</time>
      </trkpt>
      <trkpt lat="50.35821" lon="4.30989">
        <ele>143.80000305176</ele>
        <time>2014-12-29T09:05:29.000Z</time>
      </trkpt>
      <trkpt lat="50.35816" lon="4.30987">
        <ele>144.19999694824</ele>
        <time>2014-12-29T09:05:34.000Z</time>
      </trkpt>
      <trkpt lat="50.35808" lon="4.30985">
        <ele>144.60000610352</ele>
        <time>2014-12-29T09:05:41.000Z</time>
      </trkpt>
      <trkpt lat="50.35801" lon="4.30983">
        <ele>145</ele>
        <time>2014-12-29T09:05:48.000Z</time>
      </trkpt>
      <trkpt lat="50.35778" lon="4.30986">
        <ele>144.39999389648</ele>
        <time>2014-12-29T09:06:07.000Z</time>
      </trkpt>
      <trkpt lat="50.3577" lon="4.30988">
        <ele>144.19999694824</ele>
        <time>2014-12-29T09:06:14.000Z</time>
      </trkpt>
      <trkpt lat="50.35768" lon="4.30988">
        <ele>144.19999694824</ele>
        <time>2014-12-29T09:06:15.000Z</time>
      </trkpt>
      <trkpt lat="50.35762" lon="4.30982">
        <ele>144.60000610352</ele>
        <time>2014-12-29T09:06:23.000Z</time>
      </trkpt>
      <trkpt lat="50.35756" lon="4.30983">
        <ele>144.39999389648</ele>
        <time>2014-12-29T09:06:29.000Z</time>
      </trkpt>
      <trkpt lat="50.35752" lon="4.30981">
        <ele>144.60000610352</ele>
        <time>2014-12-29T09:06:33.000Z</time>
      </trkpt>
      <trkpt lat="50.35745" lon="4.30976">
        <ele>145</ele>
        <time>2014-12-29T09:06:39.000Z</time>
      </trkpt>
      <trkpt lat="50.35739" lon="4.30972">
        <ele>145.19999694824</ele>
        <time>2014-12-29T09:06:46.000Z</time>
      </trkpt>
      <trkpt lat="50.35735" lon="4.3097">
        <ele>145.19999694824</ele>
        <time>2014-12-29T09:06:50.000Z</time>
      </trkpt>
      <trkpt lat="50.35727" lon="4.30968">
        <ele>145</ele>
        <time>2014-12-29T09:06:57.000Z</time>
      </trkpt>
      <trkpt lat="50.35722" lon="4.30965">
        <ele>145.19999694824</ele>
        <time>2014-12-29T09:07:02.000Z</time>
      </trkpt>
      <trkpt lat="50.35713" lon="4.30957">
        <ele>145.80000305176</ele>
        <time>2014-12-29T09:07:12.000Z</time>
      </trkpt>
      <trkpt lat="50.35711" lon="4.30955">
        <ele>145.80000305176</ele>
        <time>2014-12-29T09:07:14.000Z</time>
      </trkpt>
      <trkpt lat="50.35706" lon="4.30954">
        <ele>146</ele>
        <time>2014-12-29T09:07:19.000Z</time>
      </trkpt>
      <trkpt lat="50.357" lon="4.30948">
        <ele>146.60000610352</ele>
        <time>2014-12-29T09:07:26.000Z</time>
      </trkpt>
      <trkpt lat="50.35695" lon="4.30945">
        <ele>146.80000305176</ele>
        <time>2014-12-29T09:07:31.000Z</time>
      </trkpt>
      <trkpt lat="50.35688" lon="4.30939">
        <ele>147.60000610352</ele>
        <time>2014-12-29T09:07:38.000Z</time>
      </trkpt>
      <trkpt lat="50.35686" lon="4.30938">
        <ele>147.80000305176</ele>
        <time>2014-12-29T09:07:39.000Z</time>
      </trkpt>
      <trkpt lat="50.35679" lon="4.30932">
        <ele>148.80000305176</ele>
        <time>2014-12-29T09:07:47.000Z</time>
      </trkpt>
      <trkpt lat="50.35678" lon="4.30931">
        <ele>148.80000305176</ele>
        <time>2014-12-29T09:07:48.000Z</time>
      </trkpt>
      <trkpt lat="50.35674" lon="4.30929">
        <ele>149</ele>
        <time>2014-12-29T09:07:52.000Z</time>
      </trkpt>
      <trkpt lat="50.35672" lon="4.30927">
        <ele>149.19999694824</ele>
        <time>2014-12-29T09:07:54.000Z</time>
      </trkpt>
      <trkpt lat="50.35665" lon="4.30925">
        <ele>149.39999389648</ele>
        <time>2014-12-29T09:08:01.000Z</time>
      </trkpt>
      <trkpt lat="50.35664" lon="4.30924">
        <ele>149.60000610352</ele>
        <time>2014-12-29T09:08:03.000Z</time>
      </trkpt>
      <trkpt lat="50.35657" lon="4.3092">
        <ele>150.19999694824</ele>
        <time>2014-12-29T09:08:11.000Z</time>
      </trkpt>
      <trkpt lat="50.35655" lon="4.30918">
        <ele>150.39999389648</ele>
        <time>2014-12-29T09:08:13.000Z</time>
      </trkpt>
      <trkpt lat="50.35652" lon="4.30916">
        <ele>150.80000305176</ele>
        <time>2014-12-29T09:08:17.000Z</time>
      </trkpt>
      <trkpt lat="50.35645" lon="4.30911">
        <ele>151.19999694824</ele>
        <time>2014-12-29T09:08:24.000Z</time>
      </trkpt>
      <trkpt lat="50.35642" lon="4.3091">
        <ele>151.39999389648</ele>
        <time>2014-12-29T09:08:29.000Z</time>
      </trkpt>
      <trkpt lat="50.35638" lon="4.30908">
        <ele>151.80000305176</ele>
        <time>2014-12-29T09:08:34.000Z</time>
      </trkpt>
      <trkpt lat="50.35634" lon="4.30906">
        <ele>152</ele>
        <time>2014-12-29T09:08:39.000Z</time>
      </trkpt>
      <trkpt lat="50.35627" lon="4.30901">
        <ele>153</ele>
        <time>2014-12-29T09:08:45.000Z</time>
      </trkpt>
      <trkpt lat="50.35622" lon="4.30897">
        <ele>154</ele>
        <time>2014-12-29T09:08:50.000Z</time>
      </trkpt>
      <trkpt lat="50.35616" lon="4.30893">
        <ele>155.19999694824</ele>
        <time>2014-12-29T09:08:57.000Z</time>
      </trkpt>
      <trkpt lat="50.35609" lon="4.30889">
        <ele>156.19999694824</ele>
        <time>2014-12-29T09:09:03.000Z</time>
      </trkpt>
      <trkpt lat="50.35603" lon="4.30884">
        <ele>157.60000610352</ele>
        <time>2014-12-29T09:09:09.000Z</time>
      </trkpt>
      <trkpt lat="50.35599" lon="4.30881">
        <ele>158.39999389648</ele>
        <time>2014-12-29T09:09:14.000Z</time>
      </trkpt>
      <trkpt lat="50.35594" lon="4.30877">
        <ele>159.39999389648</ele>
        <time>2014-12-29T09:09:19.000Z</time>
      </trkpt>
      <trkpt lat="50.3559" lon="4.30875">
        <ele>160</ele>
        <time>2014-12-29T09:09:22.000Z</time>
      </trkpt>
      <trkpt lat="50.35584" lon="4.30872">
        <ele>160.80000305176</ele>
        <time>2014-12-29T09:09:28.000Z</time>
      </trkpt>
      <trkpt lat="50.35584" lon="4.30873">
        <ele>160.80000305176</ele>
        <time>2014-12-29T09:09:29.000Z</time>
      </trkpt>
      <trkpt lat="50.3558" lon="4.30871">
        <ele>161.39999389648</ele>
        <time>2014-12-29T09:09:38.000Z</time>
      </trkpt>
      <trkpt lat="50.35578" lon="4.3087">
        <ele>161.80000305176</ele>
        <time>2014-12-29T09:09:41.000Z</time>
      </trkpt>
      <trkpt lat="50.35574" lon="4.3087">
        <ele>162</ele>
        <time>2014-12-29T09:09:45.000Z</time>
      </trkpt>
      <trkpt lat="50.3557" lon="4.30867">
        <ele>162.80000305176</ele>
        <time>2014-12-29T09:09:50.000Z</time>
      </trkpt>
      <trkpt lat="50.35566" lon="4.30862">
        <ele>163.80000305176</ele>
        <time>2014-12-29T09:09:56.000Z</time>
      </trkpt>
      <trkpt lat="50.35563" lon="4.30858">
        <ele>164.60000610352</ele>
        <time>2014-12-29T09:10:03.000Z</time>
      </trkpt>
      <trkpt lat="50.35559" lon="4.30854">
        <ele>165.39999389648</ele>
        <time>2014-12-29T09:10:09.000Z</time>
      </trkpt>
      <trkpt lat="50.35553" lon="4.30848">
        <ele>166.39999389648</ele>
        <time>2014-12-29T09:10:14.000Z</time>
      </trkpt>
      <trkpt lat="50.35552" lon="4.30847">
        <ele>166.60000610352</ele>
        <time>2014-12-29T09:10:16.000Z</time>
      </trkpt>
      <trkpt lat="50.35548" lon="4.30843">
        <ele>167.39999389648</ele>
        <time>2014-12-29T09:10:21.000Z</time>
      </trkpt>
      <trkpt lat="50.35542" lon="4.30838">
        <ele>168</ele>
        <time>2014-12-29T09:10:28.000Z</time>
      </trkpt>
      <trkpt lat="50.35538" lon="4.30836">
        <ele>168</ele>
        <time>2014-12-29T09:10:32.000Z</time>
      </trkpt>
      <trkpt lat="50.3553" lon="4.30829">
        <ele>168.39999389648</ele>
        <time>2014-12-29T09:10:39.000Z</time>
      </trkpt>
      <trkpt lat="50.35522" lon="4.30823">
        <ele>169</ele>
        <time>2014-12-29T09:10:48.000Z</time>
      </trkpt>
      <trkpt lat="50.35516" lon="4.30815">
        <ele>169.80000305176</ele>
        <time>2014-12-29T09:10:55.000Z</time>
      </trkpt>
      <trkpt lat="50.35511" lon="4.30807">
        <ele>170.39999389648</ele>
        <time>2014-12-29T09:11:01.000Z</time>
      </trkpt>
      <trkpt lat="50.35508" lon="4.30801">
        <ele>171.19999694824</ele>
        <time>2014-12-29T09:11:06.000Z</time>
      </trkpt>
      <trkpt lat="50.35507" lon="4.30798">
        <ele>171.39999389648</ele>
        <time>2014-12-29T09:11:08.000Z</time>
      </trkpt>
      <trkpt lat="50.35502" lon="4.30794">
        <ele>171.60000610352</ele>
        <time>2014-12-29T09:11:15.000Z</time>
      </trkpt>
      <trkpt lat="50.35499" lon="4.30793">
        <ele>171.80000305176</ele>
        <time>2014-12-29T09:11:23.000Z</time>
      </trkpt>
      <trkpt lat="50.35494" lon="4.30788">
        <ele>172.19999694824</ele>
        <time>2014-12-29T09:11:29.000Z</time>
      </trkpt>
      <trkpt lat="50.35491" lon="4.30786">
        <ele>172.19999694824</ele>
        <time>2014-12-29T09:11:33.000Z</time>
      </trkpt>
      <trkpt lat="50.35486" lon="4.30782">
        <ele>172.60000610352</ele>
        <time>2014-12-29T09:11:39.000Z</time>
      </trkpt>
      <trkpt lat="50.35484" lon="4.30779">
        <ele>172.80000305176</ele>
        <time>2014-12-29T09:11:42.000Z</time>
      </trkpt>
      <trkpt lat="50.35478" lon="4.30769">
        <ele>174</ele>
        <time>2014-12-29T09:11:51.000Z</time>
      </trkpt>
      <trkpt lat="50.35474" lon="4.30765">
        <ele>174.60000610352</ele>
        <time>2014-12-29T09:11:56.000Z</time>
      </trkpt>
      <trkpt lat="50.35466" lon="4.3076">
        <ele>175</ele>
        <time>2014-12-29T09:12:04.000Z</time>
      </trkpt>
      <trkpt lat="50.35462" lon="4.30758">
        <ele>175.19999694824</ele>
        <time>2014-12-29T09:12:09.000Z</time>
      </trkpt>
      <trkpt lat="50.35456" lon="4.3075">
        <ele>176.19999694824</ele>
        <time>2014-12-29T09:12:17.000Z</time>
      </trkpt>
      <trkpt lat="50.35454" lon="4.30745">
        <ele>176.80000305176</ele>
        <time>2014-12-29T09:12:21.000Z</time>
      </trkpt>
      <trkpt lat="50.3545" lon="4.30738">
        <ele>177.60000610352</ele>
        <time>2014-12-29T09:12:28.000Z</time>
      </trkpt>
      <trkpt lat="50.35446" lon="4.30732">
        <ele>178.60000610352</ele>
        <time>2014-12-29T09:12:34.000Z</time>
      </trkpt>
      <trkpt lat="50.35442" lon="4.30723">
        <ele>179.60000610352</ele>
        <time>2014-12-29T09:12:41.000Z</time>
      </trkpt>
      <trkpt lat="50.35439" lon="4.30715">
        <ele>180.80000305176</ele>
        <time>2014-12-29T09:12:47.000Z</time>
      </trkpt>
      <trkpt lat="50.35436" lon="4.30707">
        <ele>181.80000305176</ele>
        <time>2014-12-29T09:12:52.000Z</time>
      </trkpt>
      <trkpt lat="50.35433" lon="4.307">
        <ele>182.80000305176</ele>
        <time>2014-12-29T09:12:57.000Z</time>
      </trkpt>
      <trkpt lat="50.35429" lon="4.30689">
        <ele>183.60000610352</ele>
        <time>2014-12-29T09:13:04.000Z</time>
      </trkpt>
      <trkpt lat="50.35426" lon="4.30678">
        <ele>184.19999694824</ele>
        <time>2014-12-29T09:13:13.000Z</time>
      </trkpt>
      <trkpt lat="50.35423" lon="4.30668">
        <ele>184.80000305176</ele>
        <time>2014-12-29T09:13:20.000Z</time>
      </trkpt>
      <trkpt lat="50.35423" lon="4.30667">
        <ele>184.80000305176</ele>
        <time>2014-12-29T09:13:22.000Z</time>
      </trkpt>
      <trkpt lat="50.3542" lon="4.30658">
        <ele>185.19999694824</ele>
        <time>2014-12-29T09:13:30.000Z</time>
      </trkpt>
      <trkpt lat="50.35422" lon="4.30657">
        <ele>185.39999389648</ele>
        <time>2014-12-29T09:13:42.000Z</time>
      </trkpt>
      <trkpt lat="50.35428" lon="4.3065">
        <ele>186</ele>
        <time>2014-12-29T09:14:17.000Z</time>
      </trkpt>
      <trkpt lat="50.3542" lon="4.30644">
        <ele>186.19999694824</ele>
        <time>2014-12-29T09:14:25.000Z</time>
      </trkpt>
      <trkpt lat="50.35413" lon="4.30637">
        <ele>186.39999389648</ele>
        <time>2014-12-29T09:14:32.000Z</time>
      </trkpt>
      <trkpt lat="50.35411" lon="4.30636">
        <ele>186.39999389648</ele>
        <time>2014-12-29T09:14:34.000Z</time>
      </trkpt>
      <trkpt lat="50.35406" lon="4.30631">
        <ele>186.60000610352</ele>
        <time>2014-12-29T09:14:39.000Z</time>
      </trkpt>
      <trkpt lat="50.35401" lon="4.30625">
        <ele>186.80000305176</ele>
        <time>2014-12-29T09:14:45.000Z</time>
      </trkpt>
      <trkpt lat="50.35388" lon="4.30607">
        <ele>187.60000610352</ele>
        <time>2014-12-29T09:15:00.000Z</time>
      </trkpt>
      <trkpt lat="50.35383" lon="4.30598">
        <ele>188</ele>
        <time>2014-12-29T09:15:06.000Z</time>
      </trkpt>
      <trkpt lat="50.35378" lon="4.30588">
        <ele>188.39999389648</ele>
        <time>2014-12-29T09:15:13.000Z</time>
      </trkpt>
      <trkpt lat="50.35374" lon="4.30582">
        <ele>188.60000610352</ele>
        <time>2014-12-29T09:15:17.000Z</time>
      </trkpt>
      <trkpt lat="50.35369" lon="4.30571">
        <ele>189</ele>
        <time>2014-12-29T09:15:25.000Z</time>
      </trkpt>
      <trkpt lat="50.35368" lon="4.3057">
        <ele>189</ele>
        <time>2014-12-29T09:15:26.000Z</time>
      </trkpt>
      <trkpt lat="50.35364" lon="4.30563">
        <ele>189.19999694824</ele>
        <time>2014-12-29T09:15:31.000Z</time>
      </trkpt>
      <trkpt lat="50.3536" lon="4.30557">
        <ele>189.39999389648</ele>
        <time>2014-12-29T09:15:37.000Z</time>
      </trkpt>
      <trkpt lat="50.35354" lon="4.30547">
        <ele>189.60000610352</ele>
        <time>2014-12-29T09:15:45.000Z</time>
      </trkpt>
      <trkpt lat="50.35353" lon="4.30546">
        <ele>189.80000305176</ele>
        <time>2014-12-29T09:15:46.000Z</time>
      </trkpt>
      <trkpt lat="50.35345" lon="4.30536">
        <ele>190</ele>
        <time>2014-12-29T09:15:55.000Z</time>
      </trkpt>
      <trkpt lat="50.35344" lon="4.30536">
        <ele>190</ele>
        <time>2014-12-29T09:15:56.000Z</time>
      </trkpt>
      <trkpt lat="50.35329" lon="4.3052">
        <ele>190.19999694824</ele>
        <time>2014-12-29T09:16:15.000Z</time>
      </trkpt>
      <trkpt lat="50.35326" lon="4.30518">
        <ele>190</ele>
        <time>2014-12-29T09:16:18.000Z</time>
      </trkpt>
      <trkpt lat="50.35317" lon="4.30515">
        <ele>189.80000305176</ele>
        <time>2014-12-29T09:16:26.000Z</time>
      </trkpt>
      <trkpt lat="50.3531" lon="4.30512">
        <ele>189.60000610352</ele>
        <time>2014-12-29T09:16:32.000Z</time>
      </trkpt>
      <trkpt lat="50.35302" lon="4.30508">
        <ele>189.60000610352</ele>
        <time>2014-12-29T09:16:38.000Z</time>
      </trkpt>
      <trkpt lat="50.35294" lon="4.30502">
        <ele>189.80000305176</ele>
        <time>2014-12-29T09:16:45.000Z</time>
      </trkpt>
      <trkpt lat="50.35284" lon="4.30495">
        <ele>190.39999389648</ele>
        <time>2014-12-29T09:16:53.000Z</time>
      </trkpt>
      <trkpt lat="50.35275" lon="4.30487">
        <ele>191.19999694824</ele>
        <time>2014-12-29T09:17:02.000Z</time>
      </trkpt>
      <trkpt lat="50.3527" lon="4.30483">
        <ele>191.60000610352</ele>
        <time>2014-12-29T09:17:07.000Z</time>
      </trkpt>
      <trkpt lat="50.35266" lon="4.30478">
        <ele>191.80000305176</ele>
        <time>2014-12-29T09:17:13.000Z</time>
      </trkpt>
      <trkpt lat="50.35263" lon="4.30475">
        <ele>192.19999694824</ele>
        <time>2014-12-29T09:17:17.000Z</time>
      </trkpt>
      <trkpt lat="50.35261" lon="4.30472">
        <ele>192.39999389648</ele>
        <time>2014-12-29T09:17:25.000Z</time>
      </trkpt>
      <trkpt lat="50.35254" lon="4.30461">
        <ele>193.19999694824</ele>
        <time>2014-12-29T09:17:33.000Z</time>
      </trkpt>
      <trkpt lat="50.35254" lon="4.3046">
        <ele>193.19999694824</ele>
        <time>2014-12-29T09:17:34.000Z</time>
      </trkpt>
      <trkpt lat="50.35247" lon="4.30453">
        <ele>193.80000305176</ele>
        <time>2014-12-29T09:17:41.000Z</time>
      </trkpt>
      <trkpt lat="50.35245" lon="4.30451">
        <ele>194</ele>
        <time>2014-12-29T09:17:43.000Z</time>
      </trkpt>
      <trkpt lat="50.35236" lon="4.30443">
        <ele>194.60000610352</ele>
        <time>2014-12-29T09:17:52.000Z</time>
      </trkpt>
      <trkpt lat="50.35229" lon="4.30437">
        <ele>195</ele>
        <time>2014-12-29T09:17:59.000Z</time>
      </trkpt>
      <trkpt lat="50.35222" lon="4.3043">
        <ele>195.39999389648</ele>
        <time>2014-12-29T09:18:05.000Z</time>
      </trkpt>
      <trkpt lat="50.35217" lon="4.30425">
        <ele>195.80000305176</ele>
        <time>2014-12-29T09:18:11.000Z</time>
      </trkpt>
      <trkpt lat="50.3521" lon="4.30413">
        <ele>196.19999694824</ele>
        <time>2014-12-29T09:18:19.000Z</time>
      </trkpt>
      <trkpt lat="50.35205" lon="4.30401">
        <ele>196.39999389648</ele>
        <time>2014-12-29T09:18:27.000Z</time>
      </trkpt>
      <trkpt lat="50.352" lon="4.30388">
        <ele>196.80000305176</ele>
        <time>2014-12-29T09:18:35.000Z</time>
      </trkpt>
      <trkpt lat="50.35194" lon="4.30378">
        <ele>197</ele>
        <time>2014-12-29T09:18:42.000Z</time>
      </trkpt>
      <trkpt lat="50.35191" lon="4.30373">
        <ele>197.19999694824</ele>
        <time>2014-12-29T09:18:46.000Z</time>
      </trkpt>
      <trkpt lat="50.35182" lon="4.30357">
        <ele>197.39999389648</ele>
        <time>2014-12-29T09:18:59.000Z</time>
      </trkpt>
      <trkpt lat="50.3518" lon="4.30355">
        <ele>197.39999389648</ele>
        <time>2014-12-29T09:19:02.000Z</time>
      </trkpt>
      <trkpt lat="50.35178" lon="4.30353">
        <ele>197.60000610352</ele>
        <time>2014-12-29T09:19:11.000Z</time>
      </trkpt>
      <trkpt lat="50.35179" lon="4.30351">
        <ele>197.60000610352</ele>
        <time>2014-12-29T09:19:25.000Z</time>
      </trkpt>
      <trkpt lat="50.35175" lon="4.30348">
        <ele>197.60000610352</ele>
        <time>2014-12-29T09:19:33.000Z</time>
      </trkpt>
      <trkpt lat="50.35174" lon="4.30342">
        <ele>197.80000305176</ele>
        <time>2014-12-29T09:19:41.000Z</time>
      </trkpt>
      <trkpt lat="50.35175" lon="4.3034">
        <ele>197.80000305176</ele>
        <time>2014-12-29T09:19:47.000Z</time>
      </trkpt>
      <trkpt lat="50.35171" lon="4.30336">
        <ele>198</ele>
        <time>2014-12-29T09:20:18.000Z</time>
      </trkpt>
      <trkpt lat="50.35165" lon="4.30337">
        <ele>197.80000305176</ele>
        <time>2014-12-29T09:20:24.000Z</time>
      </trkpt>
      <trkpt lat="50.35159" lon="4.30339">
        <ele>197.60000610352</ele>
        <time>2014-12-29T09:20:30.000Z</time>
      </trkpt>
      <trkpt lat="50.3515" lon="4.30341">
        <ele>197.19999694824</ele>
        <time>2014-12-29T09:20:39.000Z</time>
      </trkpt>
      <trkpt lat="50.35145" lon="4.3034">
        <ele>197.19999694824</ele>
        <time>2014-12-29T09:20:44.000Z</time>
      </trkpt>
      <trkpt lat="50.35139" lon="4.30337">
        <ele>197.19999694824</ele>
        <time>2014-12-29T09:20:49.000Z</time>
      </trkpt>
      <trkpt lat="50.35131" lon="4.30329">
        <ele>197.19999694824</ele>
        <time>2014-12-29T09:20:57.000Z</time>
      </trkpt>
      <trkpt lat="50.35128" lon="4.30324">
        <ele>197.39999389648</ele>
        <time>2014-12-29T09:21:02.000Z</time>
      </trkpt>
      <trkpt lat="50.35124" lon="4.30313">
        <ele>197.60000610352</ele>
        <time>2014-12-29T09:21:09.000Z</time>
      </trkpt>
      <trkpt lat="50.35122" lon="4.303">
        <ele>198</ele>
        <time>2014-12-29T09:21:18.000Z</time>
      </trkpt>
      <trkpt lat="50.35122" lon="4.30288">
        <ele>198.39999389648</ele>
        <time>2014-12-29T09:21:26.000Z</time>
      </trkpt>
      <trkpt lat="50.35121" lon="4.30282">
        <ele>198.60000610352</ele>
        <time>2014-12-29T09:21:30.000Z</time>
      </trkpt>
      <trkpt lat="50.35121" lon="4.30279">
        <ele>198.80000305176</ele>
        <time>2014-12-29T09:21:32.000Z</time>
      </trkpt>
      <trkpt lat="50.35119" lon="4.30265">
        <ele>199</ele>
        <time>2014-12-29T09:21:39.000Z</time>
      </trkpt>
      <trkpt lat="50.35118" lon="4.30255">
        <ele>199.19999694824</ele>
        <time>2014-12-29T09:21:47.000Z</time>
      </trkpt>
      <trkpt lat="50.35114" lon="4.30239">
        <ele>199.60000610352</ele>
        <time>2014-12-29T09:21:56.000Z</time>
      </trkpt>
      <trkpt lat="50.35108" lon="4.30228">
        <ele>199.80000305176</ele>
        <time>2014-12-29T09:22:05.000Z</time>
      </trkpt>
      <trkpt lat="50.35104" lon="4.30222">
        <ele>199.80000305176</ele>
        <time>2014-12-29T09:22:10.000Z</time>
      </trkpt>
      <trkpt lat="50.35097" lon="4.30214">
        <ele>199.80000305176</ele>
        <time>2014-12-29T09:22:17.000Z</time>
      </trkpt>
      <trkpt lat="50.35096" lon="4.30214">
        <ele>199.80000305176</ele>
        <time>2014-12-29T09:22:18.000Z</time>
      </trkpt>
      <trkpt lat="50.35088" lon="4.30209">
        <ele>199.60000610352</ele>
        <time>2014-12-29T09:22:26.000Z</time>
      </trkpt>
      <trkpt lat="50.3508" lon="4.30204">
        <ele>199.60000610352</ele>
        <time>2014-12-29T09:22:34.000Z</time>
      </trkpt>
      <trkpt lat="50.35073" lon="4.30198">
        <ele>199.60000610352</ele>
        <time>2014-12-29T09:22:42.000Z</time>
      </trkpt>
      <trkpt lat="50.35068" lon="4.30194">
        <ele>199.60000610352</ele>
        <time>2014-12-29T09:22:48.000Z</time>
      </trkpt>
      <trkpt lat="50.35062" lon="4.3019">
        <ele>199.39999389648</ele>
        <time>2014-12-29T09:22:57.000Z</time>
      </trkpt>
      <trkpt lat="50.35057" lon="4.30184">
        <ele>199.39999389648</ele>
        <time>2014-12-29T09:23:04.000Z</time>
      </trkpt>
      <trkpt lat="50.35052" lon="4.30177">
        <ele>199.39999389648</ele>
        <time>2014-12-29T09:23:11.000Z</time>
      </trkpt>
      <trkpt lat="50.3505" lon="4.30175">
        <ele>199.39999389648</ele>
        <time>2014-12-29T09:23:14.000Z</time>
      </trkpt>
      <trkpt lat="50.35045" lon="4.3017">
        <ele>199.19999694824</ele>
        <time>2014-12-29T09:23:20.000Z</time>
      </trkpt>
      <trkpt lat="50.35037" lon="4.30159">
        <ele>199.19999694824</ele>
        <time>2014-12-29T09:23:29.000Z</time>
      </trkpt>
      <trkpt lat="50.3503" lon="4.3015">
        <ele>199.19999694824</ele>
        <time>2014-12-29T09:23:37.000Z</time>
      </trkpt>
      <trkpt lat="50.35023" lon="4.30141">
        <ele>199</ele>
        <time>2014-12-29T09:23:44.000Z</time>
      </trkpt>
      <trkpt lat="50.3502" lon="4.30137">
        <ele>199</ele>
        <time>2014-12-29T09:23:47.000Z</time>
      </trkpt>
      <trkpt lat="50.35012" lon="4.30124">
        <ele>199</ele>
        <time>2014-12-29T09:23:57.000Z</time>
      </trkpt>
      <trkpt lat="50.3501" lon="4.30119">
        <ele>199</ele>
        <time>2014-12-29T09:24:01.000Z</time>
      </trkpt>
      <trkpt lat="50.3501" lon="4.30116">
        <ele>199</ele>
        <time>2014-12-29T09:24:06.000Z</time>
      </trkpt>
      <trkpt lat="50.35009" lon="4.30115">
        <ele>199</ele>
        <time>2014-12-29T09:24:07.000Z</time>
      </trkpt>
      <trkpt lat="50.35004" lon="4.30106">
        <ele>199</ele>
        <time>2014-12-29T09:24:13.000Z</time>
      </trkpt>
      <trkpt lat="50.34999" lon="4.30093">
        <ele>198.80000305176</ele>
        <time>2014-12-29T09:24:21.000Z</time>
      </trkpt>
      <trkpt lat="50.34992" lon="4.30081">
        <ele>198.60000610352</ele>
        <time>2014-12-29T09:24:29.000Z</time>
      </trkpt>
      <trkpt lat="50.34986" lon="4.30069">
        <ele>198.60000610352</ele>
        <time>2014-12-29T09:24:37.000Z</time>
      </trkpt>
      <trkpt lat="50.3498" lon="4.30056">
        <ele>198.39999389648</ele>
        <time>2014-12-29T09:24:46.000Z</time>
      </trkpt>
      <trkpt lat="50.34976" lon="4.30043">
        <ele>198.19999694824</ele>
        <time>2014-12-29T09:25:04.000Z</time>
      </trkpt>
      <trkpt lat="50.34973" lon="4.30053">
        <ele>198.19999694824</ele>
        <time>2014-12-29T09:26:21.000Z</time>
      </trkpt>
      <trkpt lat="50.34972" lon="4.30054">
        <ele>198.19999694824</ele>
        <time>2014-12-29T09:26:27.000Z</time>
      </trkpt>
      <trkpt lat="50.34971" lon="4.30054">
        <ele>198.19999694824</ele>
        <time>2014-12-29T09:26:34.000Z</time>
      </trkpt>
      <trkpt lat="50.34973" lon="4.30048">
        <ele>198.19999694824</ele>
        <time>2014-12-29T09:26:59.000Z</time>
      </trkpt>
      <trkpt lat="50.34972" lon="4.30044">
        <ele>198.19999694824</ele>
        <time>2014-12-29T09:27:13.000Z</time>
      </trkpt>
      <trkpt lat="50.34973" lon="4.30042">
        <ele>198.19999694824</ele>
        <time>2014-12-29T09:27:20.000Z</time>
      </trkpt>
      <trkpt lat="50.34973" lon="4.30026">
        <ele>198.19999694824</ele>
        <time>2014-12-29T09:29:13.000Z</time>
      </trkpt>
      <trkpt lat="50.34971" lon="4.30023">
        <ele>198</ele>
        <time>2014-12-29T09:29:18.000Z</time>
      </trkpt>
      <trkpt lat="50.3497" lon="4.30021">
        <ele>197.80000305176</ele>
        <time>2014-12-29T09:29:19.000Z</time>
      </trkpt>
      <trkpt lat="50.34969" lon="4.30013">
        <ele>197.60000610352</ele>
        <time>2014-12-29T09:29:26.000Z</time>
      </trkpt>
      <trkpt lat="50.34969" lon="4.30012">
        <ele>197.60000610352</ele>
        <time>2014-12-29T09:29:27.000Z</time>
      </trkpt>
      <trkpt lat="50.34967" lon="4.30005">
        <ele>197.19999694824</ele>
        <time>2014-12-29T09:29:31.000Z</time>
      </trkpt>
      <trkpt lat="50.34965" lon="4.29995">
        <ele>196.80000305176</ele>
        <time>2014-12-29T09:29:39.000Z</time>
      </trkpt>
      <trkpt lat="50.34963" lon="4.29984">
        <ele>196</ele>
        <time>2014-12-29T09:29:46.000Z</time>
      </trkpt>
      <trkpt lat="50.34964" lon="4.29973">
        <ele>195.80000305176</ele>
        <time>2014-12-29T09:29:53.000Z</time>
      </trkpt>
      <trkpt lat="50.34964" lon="4.29955">
        <ele>195</ele>
        <time>2014-12-29T09:30:02.000Z</time>
      </trkpt>
      <trkpt lat="50.34965" lon="4.29942">
        <ele>195</ele>
        <time>2014-12-29T09:30:09.000Z</time>
      </trkpt>
      <trkpt lat="50.34965" lon="4.29937">
        <ele>194.80000305176</ele>
        <time>2014-12-29T09:30:11.000Z</time>
      </trkpt>
      <trkpt lat="50.34967" lon="4.29929">
        <ele>194.60000610352</ele>
        <time>2014-12-29T09:30:16.000Z</time>
      </trkpt>
      <trkpt lat="50.34968" lon="4.29918">
        <ele>194.39999389648</ele>
        <time>2014-12-29T09:30:23.000Z</time>
      </trkpt>
      <trkpt lat="50.34968" lon="4.29915">
        <ele>194.39999389648</ele>
        <time>2014-12-29T09:30:25.000Z</time>
      </trkpt>
      <trkpt lat="50.3497" lon="4.29907">
        <ele>194.19999694824</ele>
        <time>2014-12-29T09:30:30.000Z</time>
      </trkpt>
      <trkpt lat="50.34978" lon="4.29891">
        <ele>194.19999694824</ele>
        <time>2014-12-29T09:30:41.000Z</time>
      </trkpt>
      <trkpt lat="50.3498" lon="4.29887">
        <ele>194.19999694824</ele>
        <time>2014-12-29T09:30:45.000Z</time>
      </trkpt>
      <trkpt lat="50.34989" lon="4.29875">
        <ele>194.19999694824</ele>
        <time>2014-12-29T09:30:54.000Z</time>
      </trkpt>
      <trkpt lat="50.34993" lon="4.29862">
        <ele>194</ele>
        <time>2014-12-29T09:31:03.000Z</time>
      </trkpt>
      <trkpt lat="50.34993" lon="4.2986">
        <ele>194</ele>
        <time>2014-12-29T09:31:04.000Z</time>
      </trkpt>
      <trkpt lat="50.34994" lon="4.29851">
        <ele>194</ele>
        <time>2014-12-29T09:31:09.000Z</time>
      </trkpt>
      <trkpt lat="50.34994" lon="4.29834">
        <ele>193.80000305176</ele>
        <time>2014-12-29T09:31:19.000Z</time>
      </trkpt>
      <trkpt lat="50.34995" lon="4.29834">
        <ele>193.80000305176</ele>
        <time>2014-12-29T09:31:20.000Z</time>
      </trkpt>
      <trkpt lat="50.34995" lon="4.29833">
        <ele>193.80000305176</ele>
        <time>2014-12-29T09:31:21.000Z</time>
      </trkpt>
      <trkpt lat="50.34995" lon="4.2983">
        <ele>193.80000305176</ele>
        <time>2014-12-29T09:31:24.000Z</time>
      </trkpt>
      <trkpt lat="50.34996" lon="4.29819">
        <ele>193.60000610352</ele>
        <time>2014-12-29T09:31:30.000Z</time>
      </trkpt>
      <trkpt lat="50.34994" lon="4.29806">
        <ele>193.39999389648</ele>
        <time>2014-12-29T09:31:38.000Z</time>
      </trkpt>
      <trkpt lat="50.34995" lon="4.29804">
        <ele>193.39999389648</ele>
        <time>2014-12-29T09:31:39.000Z</time>
      </trkpt>
      <trkpt lat="50.34995" lon="4.29791">
        <ele>193</ele>
        <time>2014-12-29T09:31:45.000Z</time>
      </trkpt>
      <trkpt lat="50.34993" lon="4.29772">
        <ele>192.60000610352</ele>
        <time>2014-12-29T09:31:54.000Z</time>
      </trkpt>
      <trkpt lat="50.34994" lon="4.29769">
        <ele>192.60000610352</ele>
        <time>2014-12-29T09:31:56.000Z</time>
      </trkpt>
      <trkpt lat="50.34992" lon="4.29755">
        <ele>192.39999389648</ele>
        <time>2014-12-29T09:32:03.000Z</time>
      </trkpt>
      <trkpt lat="50.34993" lon="4.29752">
        <ele>192.39999389648</ele>
        <time>2014-12-29T09:32:05.000Z</time>
      </trkpt>
      <trkpt lat="50.34996" lon="4.2975">
        <ele>192.39999389648</ele>
        <time>2014-12-29T09:32:09.000Z</time>
      </trkpt>
      <trkpt lat="50.34999" lon="4.29743">
        <ele>192.39999389648</ele>
        <time>2014-12-29T09:32:13.000Z</time>
      </trkpt>
      <trkpt lat="50.35" lon="4.29735">
        <ele>192.39999389648</ele>
        <time>2014-12-29T09:32:17.000Z</time>
      </trkpt>
      <trkpt lat="50.35001" lon="4.29732">
        <ele>192.19999694824</ele>
        <time>2014-12-29T09:32:19.000Z</time>
      </trkpt>
      <trkpt lat="50.35" lon="4.29731">
        <ele>192.19999694824</ele>
        <time>2014-12-29T09:32:20.000Z</time>
      </trkpt>
      <trkpt lat="50.35002" lon="4.29718">
        <ele>192.19999694824</ele>
        <time>2014-12-29T09:32:27.000Z</time>
      </trkpt>
      <trkpt lat="50.35006" lon="4.29701">
        <ele>192</ele>
        <time>2014-12-29T09:32:35.000Z</time>
      </trkpt>
      <trkpt lat="50.35007" lon="4.29697">
        <ele>192</ele>
        <time>2014-12-29T09:32:39.000Z</time>
      </trkpt>
      <trkpt lat="50.35006" lon="4.29683">
        <ele>192.19999694824</ele>
        <time>2014-12-29T09:32:46.000Z</time>
      </trkpt>
      <trkpt lat="50.35004" lon="4.29667">
        <ele>192.39999389648</ele>
        <time>2014-12-29T09:32:54.000Z</time>
      </trkpt>
      <trkpt lat="50.35002" lon="4.29646">
        <ele>192.39999389648</ele>
        <time>2014-12-29T09:33:04.000Z</time>
      </trkpt>
      <trkpt lat="50.35002" lon="4.29645">
        <ele>192.39999389648</ele>
        <time>2014-12-29T09:33:05.000Z</time>
      </trkpt>
      <trkpt lat="50.35002" lon="4.2963">
        <ele>192</ele>
        <time>2014-12-29T09:33:12.000Z</time>
      </trkpt>
      <trkpt lat="50.35" lon="4.29615">
        <ele>191.60000610352</ele>
        <time>2014-12-29T09:33:20.000Z</time>
      </trkpt>
      <trkpt lat="50.34997" lon="4.29596">
        <ele>191.60000610352</ele>
        <time>2014-12-29T09:33:29.000Z</time>
      </trkpt>
      <trkpt lat="50.34993" lon="4.2958">
        <ele>191.60000610352</ele>
        <time>2014-12-29T09:33:38.000Z</time>
      </trkpt>
      <trkpt lat="50.34989" lon="4.29566">
        <ele>191.80000305176</ele>
        <time>2014-12-29T09:33:45.000Z</time>
      </trkpt>
      <trkpt lat="50.34982" lon="4.29551">
        <ele>191.80000305176</ele>
        <time>2014-12-29T09:33:54.000Z</time>
      </trkpt>
      <trkpt lat="50.34975" lon="4.2954">
        <ele>191.80000305176</ele>
        <time>2014-12-29T09:34:03.000Z</time>
      </trkpt>
      <trkpt lat="50.34965" lon="4.29523">
        <ele>191.80000305176</ele>
        <time>2014-12-29T09:34:15.000Z</time>
      </trkpt>
      <trkpt lat="50.34958" lon="4.29508">
        <ele>191</ele>
        <time>2014-12-29T09:34:24.000Z</time>
      </trkpt>
      <trkpt lat="50.34949" lon="4.29491">
        <ele>190</ele>
        <time>2014-12-29T09:34:35.000Z</time>
      </trkpt>
      <trkpt lat="50.34944" lon="4.29475">
        <ele>189.19999694824</ele>
        <time>2014-12-29T09:34:44.000Z</time>
      </trkpt>
      <trkpt lat="50.34939" lon="4.29462">
        <ele>188.39999389648</ele>
        <time>2014-12-29T09:34:51.000Z</time>
      </trkpt>
      <trkpt lat="50.34932" lon="4.29445">
        <ele>187.60000610352</ele>
        <time>2014-12-29T09:35:02.000Z</time>
      </trkpt>
      <trkpt lat="50.34926" lon="4.2943">
        <ele>188</ele>
        <time>2014-12-29T09:35:10.000Z</time>
      </trkpt>
      <trkpt lat="50.3492" lon="4.29414">
        <ele>188.60000610352</ele>
        <time>2014-12-29T09:35:20.000Z</time>
      </trkpt>
      <trkpt lat="50.34915" lon="4.29402">
        <ele>188.80000305176</ele>
        <time>2014-12-29T09:35:27.000Z</time>
      </trkpt>
      <trkpt lat="50.34911" lon="4.29392">
        <ele>189</ele>
        <time>2014-12-29T09:35:33.000Z</time>
      </trkpt>
      <trkpt lat="50.34906" lon="4.29376">
        <ele>188.80000305176</ele>
        <time>2014-12-29T09:35:42.000Z</time>
      </trkpt>
      <trkpt lat="50.34893" lon="4.29342">
        <ele>188.60000610352</ele>
        <time>2014-12-29T09:36:01.000Z</time>
      </trkpt>
      <trkpt lat="50.34886" lon="4.29327">
        <ele>188.60000610352</ele>
        <time>2014-12-29T09:36:10.000Z</time>
      </trkpt>
      <trkpt lat="50.34881" lon="4.29312">
        <ele>188.60000610352</ele>
        <time>2014-12-29T09:36:19.000Z</time>
      </trkpt>
      <trkpt lat="50.34875" lon="4.29294">
        <ele>188</ele>
        <time>2014-12-29T09:36:29.000Z</time>
      </trkpt>
      <trkpt lat="50.3487" lon="4.29278">
        <ele>187.60000610352</ele>
        <time>2014-12-29T09:36:38.000Z</time>
      </trkpt>
      <trkpt lat="50.34866" lon="4.29262">
        <ele>188</ele>
        <time>2014-12-29T09:36:46.000Z</time>
      </trkpt>
      <trkpt lat="50.3486" lon="4.29243">
        <ele>187.60000610352</ele>
        <time>2014-12-29T09:36:57.000Z</time>
      </trkpt>
      <trkpt lat="50.34854" lon="4.29225">
        <ele>187.39999389648</ele>
        <time>2014-12-29T09:37:07.000Z</time>
      </trkpt>
      <trkpt lat="50.34848" lon="4.29205">
        <ele>187.19999694824</ele>
        <time>2014-12-29T09:37:18.000Z</time>
      </trkpt>
      <trkpt lat="50.34843" lon="4.29188">
        <ele>187</ele>
        <time>2014-12-29T09:37:27.000Z</time>
      </trkpt>
      <trkpt lat="50.3484" lon="4.29181">
        <ele>187</ele>
        <time>2014-12-29T09:37:33.000Z</time>
      </trkpt>
      <trkpt lat="50.34836" lon="4.29163">
        <ele>187</ele>
        <time>2014-12-29T09:37:43.000Z</time>
      </trkpt>
      <trkpt lat="50.34833" lon="4.29142">
        <ele>187</ele>
        <time>2014-12-29T09:37:54.000Z</time>
      </trkpt>
      <trkpt lat="50.34832" lon="4.29127">
        <ele>186.80000305176</ele>
        <time>2014-12-29T09:38:02.000Z</time>
      </trkpt>
      <trkpt lat="50.34833" lon="4.29108">
        <ele>186.80000305176</ele>
        <time>2014-12-29T09:38:11.000Z</time>
      </trkpt>
      <trkpt lat="50.34835" lon="4.29093">
        <ele>187</ele>
        <time>2014-12-29T09:38:19.000Z</time>
      </trkpt>
      <trkpt lat="50.34837" lon="4.29074">
        <ele>187.39999389648</ele>
        <time>2014-12-29T09:38:28.000Z</time>
      </trkpt>
      <trkpt lat="50.34835" lon="4.29058">
        <ele>187.39999389648</ele>
        <time>2014-12-29T09:38:36.000Z</time>
      </trkpt>
      <trkpt lat="50.34832" lon="4.29042">
        <ele>187.19999694824</ele>
        <time>2014-12-29T09:38:45.000Z</time>
      </trkpt>
      <trkpt lat="50.34831" lon="4.2903">
        <ele>187.19999694824</ele>
        <time>2014-12-29T09:38:51.000Z</time>
      </trkpt>
      <trkpt lat="50.34832" lon="4.2901">
        <ele>187.19999694824</ele>
        <time>2014-12-29T09:39:02.000Z</time>
      </trkpt>
      <trkpt lat="50.34834" lon="4.28997">
        <ele>187.19999694824</ele>
        <time>2014-12-29T09:39:09.000Z</time>
      </trkpt>
      <trkpt lat="50.34838" lon="4.28984">
        <ele>187.39999389648</ele>
        <time>2014-12-29T09:39:17.000Z</time>
      </trkpt>
      <trkpt lat="50.3484" lon="4.28981">
        <ele>187.39999389648</ele>
        <time>2014-12-29T09:39:20.000Z</time>
      </trkpt>
      <trkpt lat="50.34848" lon="4.28968">
        <ele>187.39999389648</ele>
        <time>2014-12-29T09:39:29.000Z</time>
      </trkpt>
      <trkpt lat="50.34853" lon="4.2896">
        <ele>187.39999389648</ele>
        <time>2014-12-29T09:39:36.000Z</time>
      </trkpt>
      <trkpt lat="50.34861" lon="4.28947">
        <ele>187.60000610352</ele>
        <time>2014-12-29T09:39:46.000Z</time>
      </trkpt>
      <trkpt lat="50.34867" lon="4.28933">
        <ele>187.60000610352</ele>
        <time>2014-12-29T09:39:55.000Z</time>
      </trkpt>
      <trkpt lat="50.34872" lon="4.28915">
        <ele>187.60000610352</ele>
        <time>2014-12-29T09:40:05.000Z</time>
      </trkpt>
      <trkpt lat="50.34879" lon="4.28908">
        <ele>187.60000610352</ele>
        <time>2014-12-29T09:40:12.000Z</time>
      </trkpt>
      <trkpt lat="50.34886" lon="4.28906">
        <ele>187.60000610352</ele>
        <time>2014-12-29T09:40:19.000Z</time>
      </trkpt>
      <trkpt lat="50.34888" lon="4.28905">
        <ele>187.60000610352</ele>
        <time>2014-12-29T09:40:21.000Z</time>
      </trkpt>
      <trkpt lat="50.3489" lon="4.28903">
        <ele>187.60000610352</ele>
        <time>2014-12-29T09:40:25.000Z</time>
      </trkpt>
      <trkpt lat="50.34897" lon="4.28893">
        <ele>187.60000610352</ele>
        <time>2014-12-29T09:40:34.000Z</time>
      </trkpt>
      <trkpt lat="50.34905" lon="4.28885">
        <ele>187.39999389648</ele>
        <time>2014-12-29T09:40:43.000Z</time>
      </trkpt>
      <trkpt lat="50.34911" lon="4.28869">
        <ele>186.60000610352</ele>
        <time>2014-12-29T09:40:53.000Z</time>
      </trkpt>
      <trkpt lat="50.34915" lon="4.28829">
        <ele>185.80000305176</ele>
        <time>2014-12-29T09:41:13.000Z</time>
      </trkpt>
      <trkpt lat="50.34918" lon="4.2881">
        <ele>185.39999389648</ele>
        <time>2014-12-29T09:41:23.000Z</time>
      </trkpt>
      <trkpt lat="50.34923" lon="4.28784">
        <ele>185</ele>
        <time>2014-12-29T09:41:37.000Z</time>
      </trkpt>
      <trkpt lat="50.34928" lon="4.28767">
        <ele>184.80000305176</ele>
        <time>2014-12-29T09:41:47.000Z</time>
      </trkpt>
      <trkpt lat="50.34933" lon="4.2875">
        <ele>184.39999389648</ele>
        <time>2014-12-29T09:41:57.000Z</time>
      </trkpt>
      <trkpt lat="50.34938" lon="4.2873">
        <ele>184.39999389648</ele>
        <time>2014-12-29T09:42:09.000Z</time>
      </trkpt>
      <trkpt lat="50.34941" lon="4.28715">
        <ele>184.19999694824</ele>
        <time>2014-12-29T09:42:17.000Z</time>
      </trkpt>
      <trkpt lat="50.34944" lon="4.28699">
        <ele>184.19999694824</ele>
        <time>2014-12-29T09:42:26.000Z</time>
      </trkpt>
      <trkpt lat="50.34948" lon="4.28677">
        <ele>183.60000610352</ele>
        <time>2014-12-29T09:42:37.000Z</time>
      </trkpt>
      <trkpt lat="50.34954" lon="4.28664">
        <ele>183.19999694824</ele>
        <time>2014-12-29T09:42:45.000Z</time>
      </trkpt>
      <trkpt lat="50.34961" lon="4.2865">
        <ele>182.80000305176</ele>
        <time>2014-12-29T09:42:55.000Z</time>
      </trkpt>
      <trkpt lat="50.34964" lon="4.28638">
        <ele>182.60000610352</ele>
        <time>2014-12-29T09:43:03.000Z</time>
      </trkpt>
      <trkpt lat="50.34965" lon="4.28635">
        <ele>182.60000610352</ele>
        <time>2014-12-29T09:43:05.000Z</time>
      </trkpt>
      <trkpt lat="50.34968" lon="4.28623">
        <ele>182.39999389648</ele>
        <time>2014-12-29T09:43:13.000Z</time>
      </trkpt>
      <trkpt lat="50.34969" lon="4.28607">
        <ele>182.19999694824</ele>
        <time>2014-12-29T09:43:22.000Z</time>
      </trkpt>
      <trkpt lat="50.3497" lon="4.28605">
        <ele>182</ele>
        <time>2014-12-29T09:43:23.000Z</time>
      </trkpt>
      <trkpt lat="50.34974" lon="4.2859">
        <ele>182</ele>
        <time>2014-12-29T09:43:32.000Z</time>
      </trkpt>
      <trkpt lat="50.3498" lon="4.28575">
        <ele>182.19999694824</ele>
        <time>2014-12-29T09:43:41.000Z</time>
      </trkpt>
      <trkpt lat="50.34985" lon="4.28563">
        <ele>182.19999694824</ele>
        <time>2014-12-29T09:43:49.000Z</time>
      </trkpt>
      <trkpt lat="50.34987" lon="4.28546">
        <ele>182</ele>
        <time>2014-12-29T09:43:59.000Z</time>
      </trkpt>
      <trkpt lat="50.34987" lon="4.28529">
        <ele>181.60000610352</ele>
        <time>2014-12-29T09:44:08.000Z</time>
      </trkpt>
      <trkpt lat="50.34986" lon="4.28518">
        <ele>181.19999694824</ele>
        <time>2014-12-29T09:44:15.000Z</time>
      </trkpt>
      <trkpt lat="50.34986" lon="4.28504">
        <ele>180.60000610352</ele>
        <time>2014-12-29T09:44:23.000Z</time>
      </trkpt>
      <trkpt lat="50.34983" lon="4.28488">
        <ele>180</ele>
        <time>2014-12-29T09:44:32.000Z</time>
      </trkpt>
      <trkpt lat="50.34981" lon="4.28475">
        <ele>179.39999389648</ele>
        <time>2014-12-29T09:44:39.000Z</time>
      </trkpt>
      <trkpt lat="50.34979" lon="4.28462">
        <ele>179</ele>
        <time>2014-12-29T09:44:46.000Z</time>
      </trkpt>
      <trkpt lat="50.34976" lon="4.28446">
        <ele>178.19999694824</ele>
        <time>2014-12-29T09:44:55.000Z</time>
      </trkpt>
      <trkpt lat="50.34974" lon="4.2843">
        <ele>177.80000305176</ele>
        <time>2014-12-29T09:45:04.000Z</time>
      </trkpt>
      <trkpt lat="50.34972" lon="4.28422">
        <ele>177.60000610352</ele>
        <time>2014-12-29T09:45:09.000Z</time>
      </trkpt>
      <trkpt lat="50.34971" lon="4.2842">
        <ele>177.60000610352</ele>
        <time>2014-12-29T09:45:15.000Z</time>
      </trkpt>
      <trkpt lat="50.34968" lon="4.28415">
        <ele>177.39999389648</ele>
        <time>2014-12-29T09:45:20.000Z</time>
      </trkpt>
      <trkpt lat="50.34966" lon="4.28415">
        <ele>177.39999389648</ele>
        <time>2014-12-29T09:45:21.000Z</time>
      </trkpt>
      <trkpt lat="50.3496" lon="4.28417">
        <ele>177.19999694824</ele>
        <time>2014-12-29T09:45:26.000Z</time>
      </trkpt>
      <trkpt lat="50.34957" lon="4.28417">
        <ele>177</ele>
        <time>2014-12-29T09:45:29.000Z</time>
      </trkpt>
      <trkpt lat="50.34949" lon="4.28416">
        <ele>176.80000305176</ele>
        <time>2014-12-29T09:45:36.000Z</time>
      </trkpt>
      <trkpt lat="50.34946" lon="4.28407">
        <ele>176.39999389648</ele>
        <time>2014-12-29T09:45:43.000Z</time>
      </trkpt>
      <trkpt lat="50.34945" lon="4.28402">
        <ele>176.19999694824</ele>
        <time>2014-12-29T09:45:46.000Z</time>
      </trkpt>
      <trkpt lat="50.34944" lon="4.28377">
        <ele>175.60000610352</ele>
        <time>2014-12-29T09:46:01.000Z</time>
      </trkpt>
      <trkpt lat="50.34943" lon="4.28366">
        <ele>175.39999389648</ele>
        <time>2014-12-29T09:46:08.000Z</time>
      </trkpt>
      <trkpt lat="50.34943" lon="4.28364">
        <ele>175.19999694824</ele>
        <time>2014-12-29T09:46:09.000Z</time>
      </trkpt>
      <trkpt lat="50.34942" lon="4.28355">
        <ele>174.39999389648</ele>
        <time>2014-12-29T09:46:15.000Z</time>
      </trkpt>
      <trkpt lat="50.34942" lon="4.2835">
        <ele>174</ele>
        <time>2014-12-29T09:46:18.000Z</time>
      </trkpt>
      <trkpt lat="50.3494" lon="4.28335">
        <ele>172.60000610352</ele>
        <time>2014-12-29T09:46:27.000Z</time>
      </trkpt>
      <trkpt lat="50.3494" lon="4.2832">
        <ele>171.60000610352</ele>
        <time>2014-12-29T09:46:36.000Z</time>
      </trkpt>
      <trkpt lat="50.34939" lon="4.28312">
        <ele>171</ele>
        <time>2014-12-29T09:46:41.000Z</time>
      </trkpt>
      <trkpt lat="50.3494" lon="4.28299">
        <ele>170.39999389648</ele>
        <time>2014-12-29T09:46:49.000Z</time>
      </trkpt>
      <trkpt lat="50.34937" lon="4.28285">
        <ele>169.39999389648</ele>
        <time>2014-12-29T09:46:58.000Z</time>
      </trkpt>
      <trkpt lat="50.34937" lon="4.28282">
        <ele>169.19999694824</ele>
        <time>2014-12-29T09:46:59.000Z</time>
      </trkpt>
      <trkpt lat="50.34937" lon="4.28272">
        <ele>168.39999389648</ele>
        <time>2014-12-29T09:47:06.000Z</time>
      </trkpt>
      <trkpt lat="50.34937" lon="4.28268">
        <ele>168</ele>
        <time>2014-12-29T09:47:11.000Z</time>
      </trkpt>
      <trkpt lat="50.34937" lon="4.28254">
        <ele>166.80000305176</ele>
        <time>2014-12-29T09:47:19.000Z</time>
      </trkpt>
      <trkpt lat="50.34935" lon="4.28245">
        <ele>166.19999694824</ele>
        <time>2014-12-29T09:47:25.000Z</time>
      </trkpt>
      <trkpt lat="50.34935" lon="4.28234">
        <ele>165.60000610352</ele>
        <time>2014-12-29T09:47:32.000Z</time>
      </trkpt>
      <trkpt lat="50.34933" lon="4.28219">
        <ele>164.80000305176</ele>
        <time>2014-12-29T09:47:40.000Z</time>
      </trkpt>
      <trkpt lat="50.34932" lon="4.28206">
        <ele>164</ele>
        <time>2014-12-29T09:47:47.000Z</time>
      </trkpt>
      <trkpt lat="50.34932" lon="4.28193">
        <ele>163.39999389648</ele>
        <time>2014-12-29T09:47:56.000Z</time>
      </trkpt>
      <trkpt lat="50.34932" lon="4.28183">
        <ele>162.80000305176</ele>
        <time>2014-12-29T09:48:06.000Z</time>
      </trkpt>
      <trkpt lat="50.34933" lon="4.28175">
        <ele>162.60000610352</ele>
        <time>2014-12-29T09:48:14.000Z</time>
      </trkpt>
      <trkpt lat="50.34933" lon="4.28171">
        <ele>162.39999389648</ele>
        <time>2014-12-29T09:48:20.000Z</time>
      </trkpt>
      <trkpt lat="50.34934" lon="4.28165">
        <ele>162.39999389648</ele>
        <time>2014-12-29T09:48:26.000Z</time>
      </trkpt>
      <trkpt lat="50.34935" lon="4.28157">
        <ele>162.19999694824</ele>
        <time>2014-12-29T09:48:33.000Z</time>
      </trkpt>
      <trkpt lat="50.34936" lon="4.28151">
        <ele>162.19999694824</ele>
        <time>2014-12-29T09:48:40.000Z</time>
      </trkpt>
      <trkpt lat="50.34935" lon="4.28144">
        <ele>162</ele>
        <time>2014-12-29T09:48:51.000Z</time>
      </trkpt>
      <trkpt lat="50.34927" lon="4.28129">
        <ele>160.60000610352</ele>
        <time>2014-12-29T09:49:02.000Z</time>
      </trkpt>
      <trkpt lat="50.34929" lon="4.2813">
        <ele>160.80000305176</ele>
        <time>2014-12-29T09:49:09.000Z</time>
      </trkpt>
      <trkpt lat="50.34929" lon="4.2813">
        <ele>160.80000305176</ele>
        <time>2014-12-29T09:49:17.000Z</time>
      </trkpt>
      <trkpt lat="50.34929" lon="4.28128">
        <ele>160.80000305176</ele>
        <time>2014-12-29T09:49:24.000Z</time>
      </trkpt>
      <trkpt lat="50.34924" lon="4.28122">
        <ele>160</ele>
        <time>2014-12-29T09:49:36.000Z</time>
      </trkpt>
      <trkpt lat="50.3492" lon="4.28116">
        <ele>159.19999694824</ele>
        <time>2014-12-29T09:49:41.000Z</time>
      </trkpt>
      <trkpt lat="50.34918" lon="4.28117">
        <ele>159</ele>
        <time>2014-12-29T09:49:48.000Z</time>
      </trkpt>
      <trkpt lat="50.34916" lon="4.28114">
        <ele>158.60000610352</ele>
        <time>2014-12-29T09:50:28.000Z</time>
      </trkpt>
      <trkpt lat="50.34914" lon="4.2811">
        <ele>158.19999694824</ele>
        <time>2014-12-29T09:50:32.000Z</time>
      </trkpt>
      <trkpt lat="50.34911" lon="4.28107">
        <ele>157.60000610352</ele>
        <time>2014-12-29T09:50:38.000Z</time>
      </trkpt>
      <trkpt lat="50.34907" lon="4.28105">
        <ele>157</ele>
        <time>2014-12-29T09:50:43.000Z</time>
      </trkpt>
      <trkpt lat="50.34905" lon="4.28103">
        <ele>156.60000610352</ele>
        <time>2014-12-29T09:50:49.000Z</time>
      </trkpt>
      <trkpt lat="50.34905" lon="4.28102">
        <ele>156.60000610352</ele>
        <time>2014-12-29T09:50:55.000Z</time>
      </trkpt>
      <trkpt lat="50.349" lon="4.28099">
        <ele>155.80000305176</ele>
        <time>2014-12-29T09:51:15.000Z</time>
      </trkpt>
      <trkpt lat="50.34893" lon="4.28091">
        <ele>154.60000610352</ele>
        <time>2014-12-29T09:51:23.000Z</time>
      </trkpt>
      <trkpt lat="50.34885" lon="4.28079">
        <ele>153</ele>
        <time>2014-12-29T09:51:33.000Z</time>
      </trkpt>
      <trkpt lat="50.34881" lon="4.28081">
        <ele>152.39999389648</ele>
        <time>2014-12-29T09:51:40.000Z</time>
      </trkpt>
      <trkpt lat="50.34875" lon="4.28081">
        <ele>152</ele>
        <time>2014-12-29T09:51:47.000Z</time>
      </trkpt>
      <trkpt lat="50.34866" lon="4.28078">
        <ele>151</ele>
        <time>2014-12-29T09:51:56.000Z</time>
      </trkpt>
      <trkpt lat="50.34859" lon="4.28075">
        <ele>150.39999389648</ele>
        <time>2014-12-29T09:52:02.000Z</time>
      </trkpt>
      <trkpt lat="50.34852" lon="4.28072">
        <ele>149.60000610352</ele>
        <time>2014-12-29T09:52:09.000Z</time>
      </trkpt>
      <trkpt lat="50.34845" lon="4.28068">
        <ele>148.80000305176</ele>
        <time>2014-12-29T09:52:16.000Z</time>
      </trkpt>
      <trkpt lat="50.34836" lon="4.28063">
        <ele>147.80000305176</ele>
        <time>2014-12-29T09:52:25.000Z</time>
      </trkpt>
      <trkpt lat="50.34831" lon="4.28061">
        <ele>147.19999694824</ele>
        <time>2014-12-29T09:52:30.000Z</time>
      </trkpt>
      <trkpt lat="50.34822" lon="4.28057">
        <ele>146.39999389648</ele>
        <time>2014-12-29T09:52:38.000Z</time>
      </trkpt>
      <trkpt lat="50.34815" lon="4.28054">
        <ele>146</ele>
        <time>2014-12-29T09:52:44.000Z</time>
      </trkpt>
      <trkpt lat="50.34806" lon="4.28053">
        <ele>145.60000610352</ele>
        <time>2014-12-29T09:52:52.000Z</time>
      </trkpt>
      <trkpt lat="50.34805" lon="4.28052">
        <ele>145.39999389648</ele>
        <time>2014-12-29T09:52:53.000Z</time>
      </trkpt>
      <trkpt lat="50.34797" lon="4.2805">
        <ele>144.80000305176</ele>
        <time>2014-12-29T09:53:01.000Z</time>
      </trkpt>
      <trkpt lat="50.34796" lon="4.28049">
        <ele>144.60000610352</ele>
        <time>2014-12-29T09:53:02.000Z</time>
      </trkpt>
      <trkpt lat="50.34794" lon="4.2804">
        <ele>143.39999389648</ele>
        <time>2014-12-29T09:53:07.000Z</time>
      </trkpt>
      <trkpt lat="50.34794" lon="4.28031">
        <ele>142.60000610352</ele>
        <time>2014-12-29T09:53:12.000Z</time>
      </trkpt>
      <trkpt lat="50.34794" lon="4.2803">
        <ele>142.39999389648</ele>
        <time>2014-12-29T09:53:13.000Z</time>
      </trkpt>
      <trkpt lat="50.34795" lon="4.28014">
        <ele>142.19999694824</ele>
        <time>2014-12-29T09:53:22.000Z</time>
      </trkpt>
      <trkpt lat="50.348" lon="4.27998">
        <ele>142.39999389648</ele>
        <time>2014-12-29T09:53:32.000Z</time>
      </trkpt>
      <trkpt lat="50.34806" lon="4.27987">
        <ele>142.80000305176</ele>
        <time>2014-12-29T09:53:40.000Z</time>
      </trkpt>
      <trkpt lat="50.34814" lon="4.27976">
        <ele>143.19999694824</ele>
        <time>2014-12-29T09:53:48.000Z</time>
      </trkpt>
      <trkpt lat="50.34819" lon="4.27967">
        <ele>143.39999389648</ele>
        <time>2014-12-29T09:53:55.000Z</time>
      </trkpt>
      <trkpt lat="50.34819" lon="4.27965">
        <ele>143.60000610352</ele>
        <time>2014-12-29T09:53:56.000Z</time>
      </trkpt>
      <trkpt lat="50.34822" lon="4.27961">
        <ele>144.19999694824</ele>
        <time>2014-12-29T09:54:03.000Z</time>
      </trkpt>
      <trkpt lat="50.34824" lon="4.27958">
        <ele>144.80000305176</ele>
        <time>2014-12-29T09:54:07.000Z</time>
      </trkpt>
      <trkpt lat="50.34829" lon="4.27952">
        <ele>145.80000305176</ele>
        <time>2014-12-29T09:54:13.000Z</time>
      </trkpt>
      <trkpt lat="50.34829" lon="4.27941">
        <ele>146</ele>
        <time>2014-12-29T09:54:19.000Z</time>
      </trkpt>
      <trkpt lat="50.34828" lon="4.27939">
        <ele>146</ele>
        <time>2014-12-29T09:54:20.000Z</time>
      </trkpt>
      <trkpt lat="50.34828" lon="4.27938">
        <ele>146</ele>
        <time>2014-12-29T09:54:21.000Z</time>
      </trkpt>
      <trkpt lat="50.34826" lon="4.27937">
        <ele>145.60000610352</ele>
        <time>2014-12-29T09:54:24.000Z</time>
      </trkpt>
      <trkpt lat="50.34822" lon="4.27939">
        <ele>145</ele>
        <time>2014-12-29T09:54:30.000Z</time>
      </trkpt>
      <trkpt lat="50.34817" lon="4.27941">
        <ele>144.19999694824</ele>
        <time>2014-12-29T09:54:38.000Z</time>
      </trkpt>
      <trkpt lat="50.34813" lon="4.27942">
        <ele>143.60000610352</ele>
        <time>2014-12-29T09:54:43.000Z</time>
      </trkpt>
      <trkpt lat="50.34808" lon="4.27944">
        <ele>142.60000610352</ele>
        <time>2014-12-29T09:54:50.000Z</time>
      </trkpt>
      <trkpt lat="50.34805" lon="4.27945">
        <ele>142.19999694824</ele>
        <time>2014-12-29T09:54:54.000Z</time>
      </trkpt>
      <trkpt lat="50.34801" lon="4.27946">
        <ele>141.60000610352</ele>
        <time>2014-12-29T09:55:00.000Z</time>
      </trkpt>
      <trkpt lat="50.348" lon="4.27946">
        <ele>141.39999389648</ele>
        <time>2014-12-29T09:55:01.000Z</time>
      </trkpt>
      <trkpt lat="50.34794" lon="4.27948">
        <ele>140.19999694824</ele>
        <time>2014-12-29T09:55:07.000Z</time>
      </trkpt>
      <trkpt lat="50.34791" lon="4.27949">
        <ele>139.80000305176</ele>
        <time>2014-12-29T09:55:13.000Z</time>
      </trkpt>
      <trkpt lat="50.34787" lon="4.27949">
        <ele>139</ele>
        <time>2014-12-29T09:55:27.000Z</time>
      </trkpt>
      <trkpt lat="50.34783" lon="4.27951">
        <ele>138.19999694824</ele>
        <time>2014-12-29T09:55:32.000Z</time>
      </trkpt>
      <trkpt lat="50.34777" lon="4.27955">
        <ele>137</ele>
        <time>2014-12-29T09:55:38.000Z</time>
      </trkpt>
      <trkpt lat="50.34776" lon="4.27956">
        <ele>136.80000305176</ele>
        <time>2014-12-29T09:55:39.000Z</time>
      </trkpt>
      <trkpt lat="50.3477" lon="4.2796">
        <ele>135.60000610352</ele>
        <time>2014-12-29T09:55:46.000Z</time>
      </trkpt>
      <trkpt lat="50.34765" lon="4.27961">
        <ele>134.60000610352</ele>
        <time>2014-12-29T09:55:54.000Z</time>
      </trkpt>
      <trkpt lat="50.34762" lon="4.27963">
        <ele>134.19999694824</ele>
        <time>2014-12-29T09:55:58.000Z</time>
      </trkpt>
      <trkpt lat="50.34758" lon="4.27966">
        <ele>133.39999389648</ele>
        <time>2014-12-29T09:56:03.000Z</time>
      </trkpt>
      <trkpt lat="50.34757" lon="4.27966">
        <ele>133.19999694824</ele>
        <time>2014-12-29T09:56:05.000Z</time>
      </trkpt>
      <trkpt lat="50.34754" lon="4.27968">
        <ele>132.60000610352</ele>
        <time>2014-12-29T09:56:12.000Z</time>
      </trkpt>
      <trkpt lat="50.34753" lon="4.27968">
        <ele>132.39999389648</ele>
        <time>2014-12-29T09:56:13.000Z</time>
      </trkpt>
      <trkpt lat="50.34748" lon="4.27973">
        <ele>131.39999389648</ele>
        <time>2014-12-29T09:56:18.000Z</time>
      </trkpt>
      <trkpt lat="50.34746" lon="4.27971">
        <ele>131.19999694824</ele>
        <time>2014-12-29T09:56:20.000Z</time>
      </trkpt>
      <trkpt lat="50.34748" lon="4.27968">
        <ele>131.39999389648</ele>
        <time>2014-12-29T09:56:34.000Z</time>
      </trkpt>
      <trkpt lat="50.34751" lon="4.27962">
        <ele>131.80000305176</ele>
        <time>2014-12-29T09:56:39.000Z</time>
      </trkpt>
      <trkpt lat="50.34755" lon="4.27954">
        <ele>132.60000610352</ele>
        <time>2014-12-29T09:56:46.000Z</time>
      </trkpt>
      <trkpt lat="50.34759" lon="4.27945">
        <ele>133</ele>
        <time>2014-12-29T09:56:53.000Z</time>
      </trkpt>
      <trkpt lat="50.34761" lon="4.27938">
        <ele>133</ele>
        <time>2014-12-29T09:56:57.000Z</time>
      </trkpt>
      <trkpt lat="50.34763" lon="4.27935">
        <ele>133.19999694824</ele>
        <time>2014-12-29T09:57:04.000Z</time>
      </trkpt>
      <trkpt lat="50.34764" lon="4.27934">
        <ele>133.39999389648</ele>
        <time>2014-12-29T09:57:10.000Z</time>
      </trkpt>
      <trkpt lat="50.34765" lon="4.27931">
        <ele>133.60000610352</ele>
        <time>2014-12-29T09:57:14.000Z</time>
      </trkpt>
      <trkpt lat="50.34768" lon="4.27921">
        <ele>133.39999389648</ele>
        <time>2014-12-29T09:57:20.000Z</time>
      </trkpt>
      <trkpt lat="50.34771" lon="4.27911">
        <ele>133.80000305176</ele>
        <time>2014-12-29T09:57:28.000Z</time>
      </trkpt>
      <trkpt lat="50.3477" lon="4.27905">
        <ele>133.39999389648</ele>
        <time>2014-12-29T09:57:34.000Z</time>
      </trkpt>
      <trkpt lat="50.34765" lon="4.27897">
        <ele>131.80000305176</ele>
        <time>2014-12-29T09:57:41.000Z</time>
      </trkpt>
      <trkpt lat="50.34764" lon="4.27896">
        <ele>131.60000610352</ele>
        <time>2014-12-29T09:57:42.000Z</time>
      </trkpt>
      <trkpt lat="50.34764" lon="4.27891">
        <ele>131.80000305176</ele>
        <time>2014-12-29T09:57:46.000Z</time>
      </trkpt>
      <trkpt lat="50.34771" lon="4.27878">
        <ele>132.80000305176</ele>
        <time>2014-12-29T09:57:56.000Z</time>
      </trkpt>
      <trkpt lat="50.34778" lon="4.27865">
        <ele>134.39999389648</ele>
        <time>2014-12-29T09:58:05.000Z</time>
      </trkpt>
      <trkpt lat="50.34784" lon="4.27853">
        <ele>135.60000610352</ele>
        <time>2014-12-29T09:58:13.000Z</time>
      </trkpt>
      <trkpt lat="50.34792" lon="4.27839">
        <ele>136.39999389648</ele>
        <time>2014-12-29T09:58:22.000Z</time>
      </trkpt>
      <trkpt lat="50.34798" lon="4.27823">
        <ele>136.80000305176</ele>
        <time>2014-12-29T09:58:32.000Z</time>
      </trkpt>
      <trkpt lat="50.34801" lon="4.27817">
        <ele>137</ele>
        <time>2014-12-29T09:58:36.000Z</time>
      </trkpt>
      <trkpt lat="50.34807" lon="4.27801">
        <ele>137.60000610352</ele>
        <time>2014-12-29T09:58:46.000Z</time>
      </trkpt>
      <trkpt lat="50.34812" lon="4.27786">
        <ele>138.39999389648</ele>
        <time>2014-12-29T09:58:55.000Z</time>
      </trkpt>
      <trkpt lat="50.34818" lon="4.27762">
        <ele>139.39999389648</ele>
        <time>2014-12-29T09:59:08.000Z</time>
      </trkpt>
      <trkpt lat="50.34821" lon="4.27747">
        <ele>139.39999389648</ele>
        <time>2014-12-29T09:59:16.000Z</time>
      </trkpt>
      <trkpt lat="50.34825" lon="4.2773">
        <ele>139.39999389648</ele>
        <time>2014-12-29T09:59:25.000Z</time>
      </trkpt>
      <trkpt lat="50.34827" lon="4.27709">
        <ele>140</ele>
        <time>2014-12-29T09:59:35.000Z</time>
      </trkpt>
      <trkpt lat="50.34829" lon="4.27687">
        <ele>141.19999694824</ele>
        <time>2014-12-29T09:59:46.000Z</time>
      </trkpt>
      <trkpt lat="50.34831" lon="4.27665">
        <ele>143</ele>
        <time>2014-12-29T09:59:57.000Z</time>
      </trkpt>
      <trkpt lat="50.34832" lon="4.27645">
        <ele>144.19999694824</ele>
        <time>2014-12-29T10:00:07.000Z</time>
      </trkpt>
      <trkpt lat="50.34832" lon="4.27623">
        <ele>144.60000610352</ele>
        <time>2014-12-29T10:00:18.000Z</time>
      </trkpt>
      <trkpt lat="50.34831" lon="4.27604">
        <ele>145</ele>
        <time>2014-12-29T10:00:28.000Z</time>
      </trkpt>
      <trkpt lat="50.3483" lon="4.27592">
        <ele>145.39999389648</ele>
        <time>2014-12-29T10:00:34.000Z</time>
      </trkpt>
      <trkpt lat="50.34827" lon="4.27567">
        <ele>145.60000610352</ele>
        <time>2014-12-29T10:00:47.000Z</time>
      </trkpt>
      <trkpt lat="50.34825" lon="4.2755">
        <ele>145.19999694824</ele>
        <time>2014-12-29T10:00:56.000Z</time>
      </trkpt>
      <trkpt lat="50.3482" lon="4.27535">
        <ele>143.80000305176</ele>
        <time>2014-12-29T10:01:04.000Z</time>
      </trkpt>
      <trkpt lat="50.34815" lon="4.2752">
        <ele>143.19999694824</ele>
        <time>2014-12-29T10:01:12.000Z</time>
      </trkpt>
      <trkpt lat="50.34809" lon="4.27506">
        <ele>142.60000610352</ele>
        <time>2014-12-29T10:01:20.000Z</time>
      </trkpt>
      <trkpt lat="50.34806" lon="4.27497">
        <ele>142.39999389648</ele>
        <time>2014-12-29T10:01:25.000Z</time>
      </trkpt>
      <trkpt lat="50.34806" lon="4.27488">
        <ele>143.19999694824</ele>
        <time>2014-12-29T10:01:30.000Z</time>
      </trkpt>
      <trkpt lat="50.34803" lon="4.27473">
        <ele>143.39999389648</ele>
        <time>2014-12-29T10:01:39.000Z</time>
      </trkpt>
      <trkpt lat="50.348" lon="4.27465">
        <ele>143</ele>
        <time>2014-12-29T10:01:44.000Z</time>
      </trkpt>
      <trkpt lat="50.34793" lon="4.27448">
        <ele>142.80000305176</ele>
        <time>2014-12-29T10:01:55.000Z</time>
      </trkpt>
      <trkpt lat="50.34792" lon="4.27445">
        <ele>142.80000305176</ele>
        <time>2014-12-29T10:01:57.000Z</time>
      </trkpt>
      <trkpt lat="50.34789" lon="4.27435">
        <ele>142.60000610352</ele>
        <time>2014-12-29T10:02:03.000Z</time>
      </trkpt>
      <trkpt lat="50.34781" lon="4.27419">
        <ele>142</ele>
        <time>2014-12-29T10:02:14.000Z</time>
      </trkpt>
      <trkpt lat="50.3478" lon="4.27416">
        <ele>142</ele>
        <time>2014-12-29T10:02:18.000Z</time>
      </trkpt>
      <trkpt lat="50.34772" lon="4.27404">
        <ele>141</ele>
        <time>2014-12-29T10:02:27.000Z</time>
      </trkpt>
      <trkpt lat="50.34763" lon="4.2739">
        <ele>139.80000305176</ele>
        <time>2014-12-29T10:02:38.000Z</time>
      </trkpt>
      <trkpt lat="50.34752" lon="4.27372">
        <ele>138.19999694824</ele>
        <time>2014-12-29T10:02:52.000Z</time>
      </trkpt>
      <trkpt lat="50.34743" lon="4.27361">
        <ele>137.19999694824</ele>
        <time>2014-12-29T10:03:04.000Z</time>
      </trkpt>
      <trkpt lat="50.34736" lon="4.27349">
        <ele>137.19999694824</ele>
        <time>2014-12-29T10:03:13.000Z</time>
      </trkpt>
      <trkpt lat="50.3473" lon="4.27337">
        <ele>137.60000610352</ele>
        <time>2014-12-29T10:03:22.000Z</time>
      </trkpt>
      <trkpt lat="50.34724" lon="4.27327">
        <ele>137.60000610352</ele>
        <time>2014-12-29T10:03:30.000Z</time>
      </trkpt>
      <trkpt lat="50.34721" lon="4.27319">
        <ele>137.80000305176</ele>
        <time>2014-12-29T10:03:36.000Z</time>
      </trkpt>
      <trkpt lat="50.34719" lon="4.27316">
        <ele>137.80000305176</ele>
        <time>2014-12-29T10:03:40.000Z</time>
      </trkpt>
      <trkpt lat="50.34713" lon="4.27305">
        <ele>138.19999694824</ele>
        <time>2014-12-29T10:03:48.000Z</time>
      </trkpt>
      <trkpt lat="50.34712" lon="4.27304">
        <ele>138.19999694824</ele>
        <time>2014-12-29T10:03:49.000Z</time>
      </trkpt>
      <trkpt lat="50.34708" lon="4.27298">
        <ele>138.39999389648</ele>
        <time>2014-12-29T10:03:54.000Z</time>
      </trkpt>
      <trkpt lat="50.34707" lon="4.27297">
        <ele>138.39999389648</ele>
        <time>2014-12-29T10:03:56.000Z</time>
      </trkpt>
      <trkpt lat="50.34703" lon="4.2729">
        <ele>138.60000610352</ele>
        <time>2014-12-29T10:04:02.000Z</time>
      </trkpt>
      <trkpt lat="50.34702" lon="4.27287">
        <ele>138.80000305176</ele>
        <time>2014-12-29T10:04:04.000Z</time>
      </trkpt>
      <trkpt lat="50.34697" lon="4.27279">
        <ele>139</ele>
        <time>2014-12-29T10:04:11.000Z</time>
      </trkpt>
      <trkpt lat="50.34696" lon="4.27278">
        <ele>139</ele>
        <time>2014-12-29T10:04:12.000Z</time>
      </trkpt>
      <trkpt lat="50.34696" lon="4.27277">
        <ele>139</ele>
        <time>2014-12-29T10:04:13.000Z</time>
      </trkpt>
      <trkpt lat="50.3469" lon="4.27271">
        <ele>138.80000305176</ele>
        <time>2014-12-29T10:04:19.000Z</time>
      </trkpt>
      <trkpt lat="50.34686" lon="4.27266">
        <ele>138.60000610352</ele>
        <time>2014-12-29T10:04:23.000Z</time>
      </trkpt>
      <trkpt lat="50.3468" lon="4.27255">
        <ele>138.60000610352</ele>
        <time>2014-12-29T10:04:32.000Z</time>
      </trkpt>
      <trkpt lat="50.34677" lon="4.27248">
        <ele>138.80000305176</ele>
        <time>2014-12-29T10:04:37.000Z</time>
      </trkpt>
      <trkpt lat="50.34669" lon="4.27237">
        <ele>138.39999389648</ele>
        <time>2014-12-29T10:04:46.000Z</time>
      </trkpt>
      <trkpt lat="50.34661" lon="4.27224">
        <ele>138.60000610352</ele>
        <time>2014-12-29T10:04:55.000Z</time>
      </trkpt>
      <trkpt lat="50.34655" lon="4.2721">
        <ele>139.19999694824</ele>
        <time>2014-12-29T10:05:04.000Z</time>
      </trkpt>
      <trkpt lat="50.3465" lon="4.27192">
        <ele>140.19999694824</ele>
        <time>2014-12-29T10:05:14.000Z</time>
      </trkpt>
      <trkpt lat="50.34646" lon="4.27179">
        <ele>140.60000610352</ele>
        <time>2014-12-29T10:05:21.000Z</time>
      </trkpt>
      <trkpt lat="50.34643" lon="4.27167">
        <ele>140.80000305176</ele>
        <time>2014-12-29T10:05:28.000Z</time>
      </trkpt>
      <trkpt lat="50.34639" lon="4.2715">
        <ele>141.39999389648</ele>
        <time>2014-12-29T10:05:37.000Z</time>
      </trkpt>
      <trkpt lat="50.34639" lon="4.27148">
        <ele>141.80000305176</ele>
        <time>2014-12-29T10:05:38.000Z</time>
      </trkpt>
      <trkpt lat="50.34643" lon="4.27144">
        <ele>142.80000305176</ele>
        <time>2014-12-29T10:05:41.000Z</time>
      </trkpt>
      <trkpt lat="50.34649" lon="4.27138">
        <ele>144.60000610352</ele>
        <time>2014-12-29T10:05:48.000Z</time>
      </trkpt>
      <trkpt lat="50.34654" lon="4.2713">
        <ele>146</ele>
        <time>2014-12-29T10:05:54.000Z</time>
      </trkpt>
      <trkpt lat="50.34657" lon="4.27124">
        <ele>147</ele>
        <time>2014-12-29T10:05:59.000Z</time>
      </trkpt>
      <trkpt lat="50.34661" lon="4.27112">
        <ele>148.19999694824</ele>
        <time>2014-12-29T10:06:07.000Z</time>
      </trkpt>
      <trkpt lat="50.34664" lon="4.27102">
        <ele>149.19999694824</ele>
        <time>2014-12-29T10:06:12.000Z</time>
      </trkpt>
      <trkpt lat="50.34665" lon="4.27095">
        <ele>150</ele>
        <time>2014-12-29T10:06:16.000Z</time>
      </trkpt>
      <trkpt lat="50.34669" lon="4.27082">
        <ele>151.60000610352</ele>
        <time>2014-12-29T10:06:24.000Z</time>
      </trkpt>
      <trkpt lat="50.34672" lon="4.27072">
        <ele>152.80000305176</ele>
        <time>2014-12-29T10:06:31.000Z</time>
      </trkpt>
      <trkpt lat="50.34672" lon="4.2707">
        <ele>153</ele>
        <time>2014-12-29T10:06:32.000Z</time>
      </trkpt>
      <trkpt lat="50.34673" lon="4.27068">
        <ele>153.19999694824</ele>
        <time>2014-12-29T10:06:33.000Z</time>
      </trkpt>
      <trkpt lat="50.34674" lon="4.27062">
        <ele>153.39999389648</ele>
        <time>2014-12-29T10:06:37.000Z</time>
      </trkpt>
      <trkpt lat="50.34674" lon="4.27061">
        <ele>153.60000610352</ele>
        <time>2014-12-29T10:06:39.000Z</time>
      </trkpt>
      <trkpt lat="50.34677" lon="4.27052">
        <ele>154.19999694824</ele>
        <time>2014-12-29T10:06:45.000Z</time>
      </trkpt>
      <trkpt lat="50.34677" lon="4.27051">
        <ele>154.39999389648</ele>
        <time>2014-12-29T10:06:46.000Z</time>
      </trkpt>
      <trkpt lat="50.34681" lon="4.27036">
        <ele>155.39999389648</ele>
        <time>2014-12-29T10:06:56.000Z</time>
      </trkpt>
      <trkpt lat="50.34682" lon="4.27029">
        <ele>155.80000305176</ele>
        <time>2014-12-29T10:07:00.000Z</time>
      </trkpt>
      <trkpt lat="50.34683" lon="4.27019">
        <ele>156.19999694824</ele>
        <time>2014-12-29T10:07:06.000Z</time>
      </trkpt>
      <trkpt lat="50.34683" lon="4.27013">
        <ele>156.39999389648</ele>
        <time>2014-12-29T10:07:10.000Z</time>
      </trkpt>
      <trkpt lat="50.34683" lon="4.27012">
        <ele>156.39999389648</ele>
        <time>2014-12-29T10:07:16.000Z</time>
      </trkpt>
      <trkpt lat="50.34682" lon="4.27002">
        <ele>156.80000305176</ele>
        <time>2014-12-29T10:07:52.000Z</time>
      </trkpt>
      <trkpt lat="50.34682" lon="4.26991">
        <ele>157</ele>
        <time>2014-12-29T10:07:59.000Z</time>
      </trkpt>
      <trkpt lat="50.34683" lon="4.26981">
        <ele>157.19999694824</ele>
        <time>2014-12-29T10:08:07.000Z</time>
      </trkpt>
      <trkpt lat="50.34683" lon="4.26978">
        <ele>157.19999694824</ele>
        <time>2014-12-29T10:08:09.000Z</time>
      </trkpt>
      <trkpt lat="50.34684" lon="4.26963">
        <ele>157.60000610352</ele>
        <time>2014-12-29T10:08:18.000Z</time>
      </trkpt>
      <trkpt lat="50.34686" lon="4.2695">
        <ele>158</ele>
        <time>2014-12-29T10:08:27.000Z</time>
      </trkpt>
      <trkpt lat="50.34687" lon="4.2694">
        <ele>158.19999694824</ele>
        <time>2014-12-29T10:08:34.000Z</time>
      </trkpt>
      <trkpt lat="50.34689" lon="4.26927">
        <ele>159</ele>
        <time>2014-12-29T10:08:42.000Z</time>
      </trkpt>
      <trkpt lat="50.3469" lon="4.26918">
        <ele>159.19999694824</ele>
        <time>2014-12-29T10:08:48.000Z</time>
      </trkpt>
      <trkpt lat="50.34693" lon="4.26905">
        <ele>159.39999389648</ele>
        <time>2014-12-29T10:08:56.000Z</time>
      </trkpt>
      <trkpt lat="50.34697" lon="4.26896">
        <ele>159.80000305176</ele>
        <time>2014-12-29T10:09:03.000Z</time>
      </trkpt>
      <trkpt lat="50.34701" lon="4.26887">
        <ele>160</ele>
        <time>2014-12-29T10:09:10.000Z</time>
      </trkpt>
      <trkpt lat="50.34702" lon="4.26885">
        <ele>160.19999694824</ele>
        <time>2014-12-29T10:09:11.000Z</time>
      </trkpt>
      <trkpt lat="50.34705" lon="4.26878">
        <ele>160.39999389648</ele>
        <time>2014-12-29T10:09:16.000Z</time>
      </trkpt>
      <trkpt lat="50.34709" lon="4.26867">
        <ele>160.60000610352</ele>
        <time>2014-12-29T10:09:23.000Z</time>
      </trkpt>
      <trkpt lat="50.34709" lon="4.26853">
        <ele>160.39999389648</ele>
        <time>2014-12-29T10:09:30.000Z</time>
      </trkpt>
      <trkpt lat="50.34703" lon="4.26842">
        <ele>159.80000305176</ele>
        <time>2014-12-29T10:09:37.000Z</time>
      </trkpt>
      <trkpt lat="50.34696" lon="4.26832">
        <ele>159.19999694824</ele>
        <time>2014-12-29T10:09:44.000Z</time>
      </trkpt>
      <trkpt lat="50.34699" lon="4.26716">
        <ele>158.19999694824</ele>
        <time>2014-12-29T10:09:56.000Z</time>
      </trkpt>
      <trkpt lat="50.34682" lon="4.26809">
        <ele>157.80000305176</ele>
        <time>2014-12-29T10:10:00.000Z</time>
      </trkpt>
      <trkpt lat="50.34678" lon="4.26794">
        <ele>157.19999694824</ele>
        <time>2014-12-29T10:10:08.000Z</time>
      </trkpt>
      <trkpt lat="50.34679" lon="4.26775">
        <ele>156.80000305176</ele>
        <time>2014-12-29T10:10:18.000Z</time>
      </trkpt>
      <trkpt lat="50.3468" lon="4.26767">
        <ele>156.80000305176</ele>
        <time>2014-12-29T10:10:23.000Z</time>
      </trkpt>
      <trkpt lat="50.34682" lon="4.26752">
        <ele>156.80000305176</ele>
        <time>2014-12-29T10:10:31.000Z</time>
      </trkpt>
      <trkpt lat="50.34683" lon="4.26744">
        <ele>156.60000610352</ele>
        <time>2014-12-29T10:10:35.000Z</time>
      </trkpt>
      <trkpt lat="50.34685" lon="4.26733">
        <ele>156.39999389648</ele>
        <time>2014-12-29T10:10:41.000Z</time>
      </trkpt>
      <trkpt lat="50.34685" lon="4.26731">
        <ele>156.39999389648</ele>
        <time>2014-12-29T10:10:42.000Z</time>
      </trkpt>
      <trkpt lat="50.34683" lon="4.26714">
        <ele>156</ele>
        <time>2014-12-29T10:10:51.000Z</time>
      </trkpt>
      <trkpt lat="50.34681" lon="4.26703">
        <ele>155.60000610352</ele>
        <time>2014-12-29T10:10:58.000Z</time>
      </trkpt>
      <trkpt lat="50.34676" lon="4.26689">
        <ele>154.60000610352</ele>
        <time>2014-12-29T10:11:07.000Z</time>
      </trkpt>
      <trkpt lat="50.34672" lon="4.26679">
        <ele>153.6</ele>
        <time>2014-12-29T10:11:14Z</time>
      </trkpt>
      <trkpt lat="50.34675" lon="4.26667">
        <ele>152.60000610352</ele>
        <time>2014-12-29T10:11:21.000Z</time>
      </trkpt>
      <trkpt lat="50.3468" lon="4.26651">
        <ele>151.60000610352</ele>
        <time>2014-12-29T10:11:30.000Z</time>
      </trkpt>
      <trkpt lat="50.3468" lon="4.2665">
        <ele>151.60000610352</ele>
        <time>2014-12-29T10:11:31.000Z</time>
      </trkpt>
      <trkpt lat="50.34682" lon="4.26645">
        <ele>151.39999389648</ele>
        <time>2014-12-29T10:11:34.000Z</time>
      </trkpt>
      <trkpt lat="50.34684" lon="4.26639">
        <ele>151</ele>
        <time>2014-12-29T10:11:37.000Z</time>
      </trkpt>
      <trkpt lat="50.34681" lon="4.26623">
        <ele>149.80000305176</ele>
        <time>2014-12-29T10:11:45.000Z</time>
      </trkpt>
      <trkpt lat="50.3468" lon="4.26622">
        <ele>149.60000610352</ele>
        <time>2014-12-29T10:11:46.000Z</time>
      </trkpt>
      <trkpt lat="50.34673" lon="4.26612">
        <ele>148.39999389648</ele>
        <time>2014-12-29T10:11:54.000Z</time>
      </trkpt>
      <trkpt lat="50.34668" lon="4.26607">
        <ele>147.80000305176</ele>
        <time>2014-12-29T10:11:59.000Z</time>
      </trkpt>
      <trkpt lat="50.34661" lon="4.26598">
        <ele>146.60000610352</ele>
        <time>2014-12-29T10:12:07.000Z</time>
      </trkpt>
      <trkpt lat="50.34666" lon="4.2658">
        <ele>145.39999389648</ele>
        <time>2014-12-29T10:19:12.000Z</time>
      </trkpt>
      <trkpt lat="50.34664" lon="4.26569">
        <ele>144.39999389648</ele>
        <time>2014-12-29T10:19:19.000Z</time>
      </trkpt>
      <trkpt lat="50.34664" lon="4.26567">
        <ele>144.19999694824</ele>
        <time>2014-12-29T10:19:20.000Z</time>
      </trkpt>
      <trkpt lat="50.34662" lon="4.26551">
        <ele>143</ele>
        <time>2014-12-29T10:19:29.000Z</time>
      </trkpt>
      <trkpt lat="50.34662" lon="4.26549">
        <ele>142.80000305176</ele>
        <time>2014-12-29T10:19:30.000Z</time>
      </trkpt>
      <trkpt lat="50.34661" lon="4.26544">
        <ele>142.39999389648</ele>
        <time>2014-12-29T10:19:34.000Z</time>
      </trkpt>
      <trkpt lat="50.3466" lon="4.26541">
        <ele>142.19999694824</ele>
        <time>2014-12-29T10:19:42.000Z</time>
      </trkpt>
      <trkpt lat="50.34659" lon="4.26541">
        <ele>142</ele>
        <time>2014-12-29T10:19:46.000Z</time>
      </trkpt>
      <trkpt lat="50.34654" lon="4.26543">
        <ele>141.80000305176</ele>
        <time>2014-12-29T10:19:52.000Z</time>
      </trkpt>
      <trkpt lat="50.34652" lon="4.26544">
        <ele>141.60000610352</ele>
        <time>2014-12-29T10:19:54.000Z</time>
      </trkpt>
      <trkpt lat="50.34645" lon="4.26553">
        <ele>141.80000305176</ele>
        <time>2014-12-29T10:20:03.000Z</time>
      </trkpt>
      <trkpt lat="50.34636" lon="4.2656">
        <ele>141.80000305176</ele>
        <time>2014-12-29T10:20:12.000Z</time>
      </trkpt>
      <trkpt lat="50.34633" lon="4.26566">
        <ele>142.19999694824</ele>
        <time>2014-12-29T10:20:21.000Z</time>
      </trkpt>
      <trkpt lat="50.34629" lon="4.26573">
        <ele>142.39999389648</ele>
        <time>2014-12-29T10:20:27.000Z</time>
      </trkpt>
      <trkpt lat="50.34626" lon="4.26571">
        <ele>141.80000305176</ele>
        <time>2014-12-29T10:20:34.000Z</time>
      </trkpt>
      <trkpt lat="50.34623" lon="4.26567">
        <ele>141.19999694824</ele>
        <time>2014-12-29T10:20:39.000Z</time>
      </trkpt>
      <trkpt lat="50.34623" lon="4.26564">
        <ele>141</ele>
        <time>2014-12-29T10:20:42.000Z</time>
      </trkpt>
      <trkpt lat="50.34625" lon="4.26557">
        <ele>140.60000610352</ele>
        <time>2014-12-29T10:20:47.000Z</time>
      </trkpt>
      <trkpt lat="50.34626" lon="4.26555">
        <ele>140.60000610352</ele>
        <time>2014-12-29T10:20:49.000Z</time>
      </trkpt>
      <trkpt lat="50.34629" lon="4.26545">
        <ele>140</ele>
        <time>2014-12-29T10:20:57.000Z</time>
      </trkpt>
      <trkpt lat="50.3463" lon="4.26537">
        <ele>139.60000610352</ele>
        <time>2014-12-29T10:21:03.000Z</time>
      </trkpt>
      <trkpt lat="50.3463" lon="4.26536">
        <ele>139.39999389648</ele>
        <time>2014-12-29T10:21:04.000Z</time>
      </trkpt>
      <trkpt lat="50.3463" lon="4.26531">
        <ele>139</ele>
        <time>2014-12-29T10:21:07.000Z</time>
      </trkpt>
      <trkpt lat="50.34635" lon="4.26518">
        <ele>138.60000610352</ele>
        <time>2014-12-29T10:21:15.000Z</time>
      </trkpt>
      <trkpt lat="50.34637" lon="4.26515">
        <ele>138.60000610352</ele>
        <time>2014-12-29T10:21:21.000Z</time>
      </trkpt>
      <trkpt lat="50.34636" lon="4.2651">
        <ele>138.39999389648</ele>
        <time>2014-12-29T10:21:29.000Z</time>
      </trkpt>
      <trkpt lat="50.34633" lon="4.26507">
        <ele>137.80000305176</ele>
        <time>2014-12-29T10:21:35.000Z</time>
      </trkpt>
      <trkpt lat="50.34629" lon="4.26508">
        <ele>137.60000610352</ele>
        <time>2014-12-29T10:21:43.000Z</time>
      </trkpt>
      <trkpt lat="50.34626" lon="4.2651">
        <ele>137.39999389648</ele>
        <time>2014-12-29T10:21:51.000Z</time>
      </trkpt>
      <trkpt lat="50.34621" lon="4.2651">
        <ele>136.80000305176</ele>
        <time>2014-12-29T10:21:58.000Z</time>
      </trkpt>
      <trkpt lat="50.34617" lon="4.26504">
        <ele>136.19999694824</ele>
        <time>2014-12-29T10:22:05.000Z</time>
      </trkpt>
      <trkpt lat="50.34616" lon="4.26501">
        <ele>136</ele>
        <time>2014-12-29T10:22:10.000Z</time>
      </trkpt>
      <trkpt lat="50.34615" lon="4.26496">
        <ele>135.39999389648</ele>
        <time>2014-12-29T10:22:16.000Z</time>
      </trkpt>
      <trkpt lat="50.34615" lon="4.26496">
        <ele>135.39999389648</ele>
        <time>2014-12-29T10:22:27.000Z</time>
      </trkpt>
      <trkpt lat="50.34616" lon="4.26493">
        <ele>135.39999389648</ele>
        <time>2014-12-29T10:22:36.000Z</time>
      </trkpt>
      <trkpt lat="50.34614" lon="4.26491">
        <ele>135</ele>
        <time>2014-12-29T10:22:41.000Z</time>
      </trkpt>
      <trkpt lat="50.34611" lon="4.26494">
        <ele>135</ele>
        <time>2014-12-29T10:22:47.000Z</time>
      </trkpt>
      <trkpt lat="50.34603" lon="4.26501">
        <ele>134.60000610352</ele>
        <time>2014-12-29T10:22:56.000Z</time>
      </trkpt>
      <trkpt lat="50.34601" lon="4.26504">
        <ele>134.39999389648</ele>
        <time>2014-12-29T10:23:01.000Z</time>
      </trkpt>
      <trkpt lat="50.34597" lon="4.2651">
        <ele>134.19999694824</ele>
        <time>2014-12-29T10:23:08.000Z</time>
      </trkpt>
      <trkpt lat="50.34594" lon="4.26514">
        <ele>134</ele>
        <time>2014-12-29T10:23:26.000Z</time>
      </trkpt>
      <trkpt lat="50.34593" lon="4.26515">
        <ele>134</ele>
        <time>2014-12-29T10:23:31.000Z</time>
      </trkpt>
      <trkpt lat="50.34589" lon="4.26521">
        <ele>133.60000610352</ele>
        <time>2014-12-29T10:23:37.000Z</time>
      </trkpt>
      <trkpt lat="50.34581" lon="4.2653">
        <ele>133</ele>
        <time>2014-12-29T10:23:45.000Z</time>
      </trkpt>
      <trkpt lat="50.34571" lon="4.26538">
        <ele>132.39999389648</ele>
        <time>2014-12-29T10:23:54.000Z</time>
      </trkpt>
      <trkpt lat="50.34557" lon="4.26527">
        <ele>130</ele>
        <time>2014-12-29T10:24:07.000Z</time>
      </trkpt>
      <trkpt lat="50.34548" lon="4.2652">
        <ele>128.80000305176</ele>
        <time>2014-12-29T10:24:15.000Z</time>
      </trkpt>
      <trkpt lat="50.34543" lon="4.26515">
        <ele>128.19999694824</ele>
        <time>2014-12-29T10:24:21.000Z</time>
      </trkpt>
      <trkpt lat="50.34542" lon="4.26514">
        <ele>128</ele>
        <time>2014-12-29T10:24:23.000Z</time>
      </trkpt>
      <trkpt lat="50.34541" lon="4.26513">
        <ele>127.80000305176</ele>
        <time>2014-12-29T10:24:25.000Z</time>
      </trkpt>
      <trkpt lat="50.34532" lon="4.26512">
        <ele>127</ele>
        <time>2014-12-29T10:24:31.000Z</time>
      </trkpt>
      <trkpt lat="50.3452" lon="4.26506">
        <ele>125.59999847412</ele>
        <time>2014-12-29T10:24:37.000Z</time>
      </trkpt>
      <trkpt lat="50.34507" lon="4.26499">
        <ele>124</ele>
        <time>2014-12-29T10:24:46.000Z</time>
      </trkpt>
      <trkpt lat="50.34501" lon="4.26495">
        <ele>123.19999694824</ele>
        <time>2014-12-29T10:24:52.000Z</time>
      </trkpt>
      <trkpt lat="50.34491" lon="4.26488">
        <ele>122</ele>
        <time>2014-12-29T10:25:01.000Z</time>
      </trkpt>
      <trkpt lat="50.34483" lon="4.26483">
        <ele>121</ele>
        <time>2014-12-29T10:25:08.000Z</time>
      </trkpt>
      <trkpt lat="50.34472" lon="4.26478">
        <ele>119.80000305176</ele>
        <time>2014-12-29T10:25:17.000Z</time>
      </trkpt>
      <trkpt lat="50.34461" lon="4.26471">
        <ele>118.80000305176</ele>
        <time>2014-12-29T10:25:27.000Z</time>
      </trkpt>
      <trkpt lat="50.3446" lon="4.26469">
        <ele>118.80000305176</ele>
        <time>2014-12-29T10:25:28.000Z</time>
      </trkpt>
      <trkpt lat="50.34459" lon="4.26467">
        <ele>118.80000305176</ele>
        <time>2014-12-29T10:25:32.000Z</time>
      </trkpt>
      <trkpt lat="50.3446" lon="4.26458">
        <ele>119</ele>
        <time>2014-12-29T10:25:37.000Z</time>
      </trkpt>
      <trkpt lat="50.34458" lon="4.26454">
        <ele>119</ele>
        <time>2014-12-29T10:25:42.000Z</time>
      </trkpt>
      <trkpt lat="50.34458" lon="4.26454">
        <ele>119</ele>
        <time>2014-12-29T10:25:52.000Z</time>
      </trkpt>
      <trkpt lat="50.3446" lon="4.26456">
        <ele>119</ele>
        <time>2014-12-29T10:26:13.000Z</time>
      </trkpt>
      <trkpt lat="50.34459" lon="4.26455">
        <ele>119</ele>
        <time>2014-12-29T10:26:18.000Z</time>
      </trkpt>
      <trkpt lat="50.34461" lon="4.26456">
        <ele>119</ele>
        <time>2014-12-29T10:26:25.000Z</time>
      </trkpt>
      <trkpt lat="50.34456" lon="4.26454">
        <ele>119.19999694824</ele>
        <time>2014-12-29T10:26:31.000Z</time>
      </trkpt>
      <trkpt lat="50.34455" lon="4.26452">
        <ele>119.19999694824</ele>
        <time>2014-12-29T10:26:36.000Z</time>
      </trkpt>
      <trkpt lat="50.34457" lon="4.26452">
        <ele>119.19999694824</ele>
        <time>2014-12-29T10:26:56.000Z</time>
      </trkpt>
      <trkpt lat="50.34453" lon="4.26451">
        <ele>119.19999694824</ele>
        <time>2014-12-29T10:27:09.000Z</time>
      </trkpt>
      <trkpt lat="50.34447" lon="4.26447">
        <ele>119.40000152588</ele>
        <time>2014-12-29T10:27:17.000Z</time>
      </trkpt>
      <trkpt lat="50.34437" lon="4.26442">
        <ele>119.80000305176</ele>
        <time>2014-12-29T10:27:28.000Z</time>
      </trkpt>
      <trkpt lat="50.34424" lon="4.26435">
        <ele>120.19999694824</ele>
        <time>2014-12-29T10:27:40.000Z</time>
      </trkpt>
      <trkpt lat="50.3442" lon="4.26433">
        <ele>120.40000152588</ele>
        <time>2014-12-29T10:27:44.000Z</time>
      </trkpt>
      <trkpt lat="50.34417" lon="4.26424">
        <ele>120.59999847412</ele>
        <time>2014-12-29T10:27:50.000Z</time>
      </trkpt>
      <trkpt lat="50.34421" lon="4.26412">
        <ele>120.80000305176</ele>
        <time>2014-12-29T10:27:58.000Z</time>
      </trkpt>
      <trkpt lat="50.34422" lon="4.26408">
        <ele>121</ele>
        <time>2014-12-29T10:28:00.000Z</time>
      </trkpt>
      <trkpt lat="50.34424" lon="4.26396">
        <ele>121</ele>
        <time>2014-12-29T10:28:08.000Z</time>
      </trkpt>
      <trkpt lat="50.34427" lon="4.26385">
        <ele>121</ele>
        <time>2014-12-29T10:28:15.000Z</time>
      </trkpt>
      <trkpt lat="50.34428" lon="4.26376">
        <ele>121.19999694824</ele>
        <time>2014-12-29T10:28:20.000Z</time>
      </trkpt>
      <trkpt lat="50.34424" lon="4.26372">
        <ele>121.40000152588</ele>
        <time>2014-12-29T10:28:24.000Z</time>
      </trkpt>
      <trkpt lat="50.34417" lon="4.26362">
        <ele>121.80000305176</ele>
        <time>2014-12-29T10:28:32.000Z</time>
      </trkpt>
      <trkpt lat="50.34412" lon="4.26351">
        <ele>123.19999694824</ele>
        <time>2014-12-29T10:28:39.000Z</time>
      </trkpt>
      <trkpt lat="50.34408" lon="4.26336">
        <ele>125</ele>
        <time>2014-12-29T10:28:47.000Z</time>
      </trkpt>
      <trkpt lat="50.34406" lon="4.26321">
        <ele>126.59999847412</ele>
        <time>2014-12-29T10:28:55.000Z</time>
      </trkpt>
      <trkpt lat="50.34404" lon="4.26308">
        <ele>128.19999694824</ele>
        <time>2014-12-29T10:29:02.000Z</time>
      </trkpt>
      <trkpt lat="50.34402" lon="4.26303">
        <ele>128.80000305176</ele>
        <time>2014-12-29T10:29:05.000Z</time>
      </trkpt>
      <trkpt lat="50.34401" lon="4.26297">
        <ele>129.19999694824</ele>
        <time>2014-12-29T10:29:12.000Z</time>
      </trkpt>
      <trkpt lat="50.34399" lon="4.26291">
        <ele>129.60000610352</ele>
        <time>2014-12-29T10:29:16.000Z</time>
      </trkpt>
      <trkpt lat="50.34396" lon="4.26282">
        <ele>130.39999389648</ele>
        <time>2014-12-29T10:29:21.000Z</time>
      </trkpt>
      <trkpt lat="50.34396" lon="4.26278">
        <ele>130.80000305176</ele>
        <time>2014-12-29T10:29:23.000Z</time>
      </trkpt>
      <trkpt lat="50.34392" lon="4.2626">
        <ele>132.80000305176</ele>
        <time>2014-12-29T10:29:32.000Z</time>
      </trkpt>
      <trkpt lat="50.34391" lon="4.26258">
        <ele>133</ele>
        <time>2014-12-29T10:29:33.000Z</time>
      </trkpt>
      <trkpt lat="50.34388" lon="4.26248">
        <ele>134.39999389648</ele>
        <time>2014-12-29T10:29:39.000Z</time>
      </trkpt>
      <trkpt lat="50.34387" lon="4.26245">
        <ele>134.80000305176</ele>
        <time>2014-12-29T10:29:41.000Z</time>
      </trkpt>
      <trkpt lat="50.34385" lon="4.26241">
        <ele>135.19999694824</ele>
        <time>2014-12-29T10:29:50.000Z</time>
      </trkpt>
      <trkpt lat="50.34381" lon="4.26229">
        <ele>136.80000305176</ele>
        <time>2014-12-29T10:30:00.000Z</time>
      </trkpt>
      <trkpt lat="50.34379" lon="4.26224">
        <ele>137.19999694824</ele>
        <time>2014-12-29T10:30:03.000Z</time>
      </trkpt>
      <trkpt lat="50.34375" lon="4.26216">
        <ele>138</ele>
        <time>2014-12-29T10:30:10.000Z</time>
      </trkpt>
      <trkpt lat="50.34373" lon="4.26213">
        <ele>138.19999694824</ele>
        <time>2014-12-29T10:30:13.000Z</time>
      </trkpt>
      <trkpt lat="50.34372" lon="4.26209">
        <ele>138.60000610352</ele>
        <time>2014-12-29T10:30:19.000Z</time>
      </trkpt>
      <trkpt lat="50.3437" lon="4.26205">
        <ele>139</ele>
        <time>2014-12-29T10:30:31.000Z</time>
      </trkpt>
      <trkpt lat="50.34367" lon="4.26199">
        <ele>139.60000610352</ele>
        <time>2014-12-29T10:30:37.000Z</time>
      </trkpt>
      <trkpt lat="50.34364" lon="4.26195">
        <ele>140</ele>
        <time>2014-12-29T10:30:41.000Z</time>
      </trkpt>
      <trkpt lat="50.34362" lon="4.26191">
        <ele>140.60000610352</ele>
        <time>2014-12-29T10:30:46.000Z</time>
      </trkpt>
      <trkpt lat="50.34358" lon="4.26186">
        <ele>141.19999694824</ele>
        <time>2014-12-29T10:31:03.000Z</time>
      </trkpt>
      <trkpt lat="50.34355" lon="4.26182">
        <ele>141.80000305176</ele>
        <time>2014-12-29T10:31:09.000Z</time>
      </trkpt>
      <trkpt lat="50.34352" lon="4.26175">
        <ele>142.60000610352</ele>
        <time>2014-12-29T10:31:16.000Z</time>
      </trkpt>
      <trkpt lat="50.3435" lon="4.26173">
        <ele>143</ele>
        <time>2014-12-29T10:31:21.000Z</time>
      </trkpt>
      <trkpt lat="50.34347" lon="4.26169">
        <ele>143.39999389648</ele>
        <time>2014-12-29T10:31:28.000Z</time>
      </trkpt>
      <trkpt lat="50.34344" lon="4.26163">
        <ele>144.19999694824</ele>
        <time>2014-12-29T10:31:42.000Z</time>
      </trkpt>
      <trkpt lat="50.34343" lon="4.26159">
        <ele>145</ele>
        <time>2014-12-29T10:32:05.000Z</time>
      </trkpt>
      <trkpt lat="50.34342" lon="4.26159">
        <ele>144.80000305176</ele>
        <time>2014-12-29T10:32:17.000Z</time>
      </trkpt>
      <trkpt lat="50.34341" lon="4.26158">
        <ele>145</ele>
        <time>2014-12-29T10:32:23.000Z</time>
      </trkpt>
      <trkpt lat="50.34338" lon="4.26153">
        <ele>145.60000610352</ele>
        <time>2014-12-29T10:32:29.000Z</time>
      </trkpt>
      <trkpt lat="50.34335" lon="4.26145">
        <ele>146.60000610352</ele>
        <time>2014-12-29T10:32:35.000Z</time>
      </trkpt>
      <trkpt lat="50.34334" lon="4.26142">
        <ele>147</ele>
        <time>2014-12-29T10:32:37.000Z</time>
      </trkpt>
      <trkpt lat="50.34332" lon="4.26136">
        <ele>148</ele>
        <time>2014-12-29T10:32:41.000Z</time>
      </trkpt>
      <trkpt lat="50.34331" lon="4.26128">
        <ele>149</ele>
        <time>2014-12-29T10:32:46.000Z</time>
      </trkpt>
      <trkpt lat="50.34329" lon="4.26117">
        <ele>150.60000610352</ele>
        <time>2014-12-29T10:32:53.000Z</time>
      </trkpt>
      <trkpt lat="50.34327" lon="4.26109">
        <ele>151.60000610352</ele>
        <time>2014-12-29T10:32:58.000Z</time>
      </trkpt>
      <trkpt lat="50.34328" lon="4.26109">
        <ele>151.39999389648</ele>
        <time>2014-12-29T10:33:11.000Z</time>
      </trkpt>
      <trkpt lat="50.34325" lon="4.26108">
        <ele>151.60000610352</ele>
        <time>2014-12-29T10:33:17.000Z</time>
      </trkpt>
      <trkpt lat="50.34321" lon="4.26107">
        <ele>151.80000305176</ele>
        <time>2014-12-29T10:33:22.000Z</time>
      </trkpt>
      <trkpt lat="50.34315" lon="4.26108">
        <ele>151.60000610352</ele>
        <time>2014-12-29T10:33:28.000Z</time>
      </trkpt>
      <trkpt lat="50.3431" lon="4.26108">
        <ele>151.60000610352</ele>
        <time>2014-12-29T10:33:36.000Z</time>
      </trkpt>
      <trkpt lat="50.34304" lon="4.26106">
        <ele>151.80000305176</ele>
        <time>2014-12-29T10:33:42.000Z</time>
      </trkpt>
      <trkpt lat="50.34301" lon="4.26106">
        <ele>151.80000305176</ele>
        <time>2014-12-29T10:33:45.000Z</time>
      </trkpt>
      <trkpt lat="50.34297" lon="4.26105">
        <ele>152</ele>
        <time>2014-12-29T10:33:49.000Z</time>
      </trkpt>
      <trkpt lat="50.34286" lon="4.26103">
        <ele>151.39999389648</ele>
        <time>2014-12-29T10:34:00.000Z</time>
      </trkpt>
      <trkpt lat="50.3428" lon="4.26101">
        <ele>151.39999389648</ele>
        <time>2014-12-29T10:34:07.000Z</time>
      </trkpt>
      <trkpt lat="50.34278" lon="4.26101">
        <ele>151.39999389648</ele>
        <time>2014-12-29T10:34:09.000Z</time>
      </trkpt>
      <trkpt lat="50.34276" lon="4.26098">
        <ele>151.60000610352</ele>
        <time>2014-12-29T10:34:15.000Z</time>
      </trkpt>
      <trkpt lat="50.34273" lon="4.26092">
        <ele>152</ele>
        <time>2014-12-29T10:34:31.000Z</time>
      </trkpt>
      <trkpt lat="50.34272" lon="4.26083">
        <ele>152.80000305176</ele>
        <time>2014-12-29T10:34:42.000Z</time>
      </trkpt>
      <trkpt lat="50.34269" lon="4.26067">
        <ele>154.60000610352</ele>
        <time>2014-12-29T10:34:52.000Z</time>
      </trkpt>
      <trkpt lat="50.34269" lon="4.26066">
        <ele>154.80000305176</ele>
        <time>2014-12-29T10:34:53.000Z</time>
      </trkpt>
      <trkpt lat="50.34265" lon="4.26054">
        <ele>156</ele>
        <time>2014-12-29T10:35:01.000Z</time>
      </trkpt>
      <trkpt lat="50.34261" lon="4.2604">
        <ele>157.60000610352</ele>
        <time>2014-12-29T10:35:10.000Z</time>
      </trkpt>
      <trkpt lat="50.34256" lon="4.26025">
        <ele>158.60000610352</ele>
        <time>2014-12-29T10:35:19.000Z</time>
      </trkpt>
      <trkpt lat="50.3425" lon="4.26016">
        <ele>158.19999694824</ele>
        <time>2014-12-29T10:35:27.000Z</time>
      </trkpt>
      <trkpt lat="50.34243" lon="4.26007">
        <ele>157.60000610352</ele>
        <time>2014-12-29T10:35:35.000Z</time>
      </trkpt>
      <trkpt lat="50.34232" lon="4.25998">
        <ele>156.80000305176</ele>
        <time>2014-12-29T10:35:45.000Z</time>
      </trkpt>
      <trkpt lat="50.34221" lon="4.2599">
        <ele>156</ele>
        <time>2014-12-29T10:35:55.000Z</time>
      </trkpt>
      <trkpt lat="50.34212" lon="4.25984">
        <ele>155.60000610352</ele>
        <time>2014-12-29T10:36:03.000Z</time>
      </trkpt>
      <trkpt lat="50.34203" lon="4.25979">
        <ele>156</ele>
        <time>2014-12-29T10:36:11.000Z</time>
      </trkpt>
      <trkpt lat="50.34195" lon="4.25974">
        <ele>156.39999389648</ele>
        <time>2014-12-29T10:36:19.000Z</time>
      </trkpt>
      <trkpt lat="50.34186" lon="4.25966">
        <ele>156.80000305176</ele>
        <time>2014-12-29T10:36:27.000Z</time>
      </trkpt>
      <trkpt lat="50.34178" lon="4.25955">
        <ele>157.19999694824</ele>
        <time>2014-12-29T10:36:36.000Z</time>
      </trkpt>
      <trkpt lat="50.3417" lon="4.25944">
        <ele>157.60000610352</ele>
        <time>2014-12-29T10:36:45.000Z</time>
      </trkpt>
      <trkpt lat="50.34162" lon="4.2593">
        <ele>157.80000305176</ele>
        <time>2014-12-29T10:36:55.000Z</time>
      </trkpt>
      <trkpt lat="50.34155" lon="4.25912">
        <ele>158.19999694824</ele>
        <time>2014-12-29T10:37:07.000Z</time>
      </trkpt>
      <trkpt lat="50.3415" lon="4.25897">
        <ele>158.39999389648</ele>
        <time>2014-12-29T10:37:16.000Z</time>
      </trkpt>
      <trkpt lat="50.34143" lon="4.2588">
        <ele>158.60000610352</ele>
        <time>2014-12-29T10:37:26.000Z</time>
      </trkpt>
      <trkpt lat="50.34136" lon="4.25867">
        <ele>158.80000305176</ele>
        <time>2014-12-29T10:37:35.000Z</time>
      </trkpt>
      <trkpt lat="50.34129" lon="4.25857">
        <ele>158.80000305176</ele>
        <time>2014-12-29T10:37:42.000Z</time>
      </trkpt>
      <trkpt lat="50.3412" lon="4.25843">
        <ele>158.80000305176</ele>
        <time>2014-12-29T10:37:52.000Z</time>
      </trkpt>
      <trkpt lat="50.34103" lon="4.25824">
        <ele>158.80000305176</ele>
        <time>2014-12-29T10:38:09.000Z</time>
      </trkpt>
      <trkpt lat="50.34092" lon="4.25812">
        <ele>158.80000305176</ele>
        <time>2014-12-29T10:38:19.000Z</time>
      </trkpt>
      <trkpt lat="50.34085" lon="4.25805">
        <ele>158.80000305176</ele>
        <time>2014-12-29T10:38:26.000Z</time>
      </trkpt>
      <trkpt lat="50.34077" lon="4.25796">
        <ele>158.60000610352</ele>
        <time>2014-12-29T10:38:34.000Z</time>
      </trkpt>
      <trkpt lat="50.34071" lon="4.25788">
        <ele>158.60000610352</ele>
        <time>2014-12-29T10:38:40.000Z</time>
      </trkpt>
      <trkpt lat="50.34068" lon="4.25783">
        <ele>158.60000610352</ele>
        <time>2014-12-29T10:38:44.000Z</time>
      </trkpt>
      <trkpt lat="50.34065" lon="4.25779">
        <ele>158.60000610352</ele>
        <time>2014-12-29T10:38:47.000Z</time>
      </trkpt>
      <trkpt lat="50.34054" lon="4.25769">
        <ele>158.80000305176</ele>
        <time>2014-12-29T10:38:56.000Z</time>
      </trkpt>
      <trkpt lat="50.34041" lon="4.25754">
        <ele>158.60000610352</ele>
        <time>2014-12-29T10:39:09.000Z</time>
      </trkpt>
      <trkpt lat="50.34028" lon="4.25743">
        <ele>158.60000610352</ele>
        <time>2014-12-29T10:39:20.000Z</time>
      </trkpt>
      <trkpt lat="50.34018" lon="4.25737">
        <ele>158.39999389648</ele>
        <time>2014-12-29T10:39:29.000Z</time>
      </trkpt>
      <trkpt lat="50.34008" lon="4.25742">
        <ele>158.60000610352</ele>
        <time>2014-12-29T10:39:37.000Z</time>
      </trkpt>
      <trkpt lat="50.34007" lon="4.25743">
        <ele>158.60000610352</ele>
        <time>2014-12-29T10:39:38.000Z</time>
      </trkpt>
      <trkpt lat="50.34006" lon="4.25755">
        <ele>159</ele>
        <time>2014-12-29T10:39:45.000Z</time>
      </trkpt>
      <trkpt lat="50.34003" lon="4.25769">
        <ele>159.19999694824</ele>
        <time>2014-12-29T10:39:52.000Z</time>
      </trkpt>
      <trkpt lat="50.34" lon="4.25789">
        <ele>159.80000305176</ele>
        <time>2014-12-29T10:40:02.000Z</time>
      </trkpt>
      <trkpt lat="50.33995" lon="4.25806">
        <ele>160.19999694824</ele>
        <time>2014-12-29T10:40:11.000Z</time>
      </trkpt>
      <trkpt lat="50.33991" lon="4.25824">
        <ele>161</ele>
        <time>2014-12-29T10:40:21.000Z</time>
      </trkpt>
      <trkpt lat="50.33987" lon="4.25837">
        <ele>161.60000610352</ele>
        <time>2014-12-29T10:40:29.000Z</time>
      </trkpt>
      <trkpt lat="50.33984" lon="4.25848">
        <ele>162</ele>
        <time>2014-12-29T10:40:36.000Z</time>
      </trkpt>
      <trkpt lat="50.33981" lon="4.25861">
        <ele>162.60000610352</ele>
        <time>2014-12-29T10:40:44.000Z</time>
      </trkpt>
      <trkpt lat="50.33977" lon="4.25877">
        <ele>162.80000305176</ele>
        <time>2014-12-29T10:40:53.000Z</time>
      </trkpt>
      <trkpt lat="50.33973" lon="4.25896">
        <ele>163.19999694824</ele>
        <time>2014-12-29T10:41:04.000Z</time>
      </trkpt>
      <trkpt lat="50.33969" lon="4.2591">
        <ele>163.39999389648</ele>
        <time>2014-12-29T10:41:12.000Z</time>
      </trkpt>
      <trkpt lat="50.33964" lon="4.25928">
        <ele>163.80000305176</ele>
        <time>2014-12-29T10:41:22.000Z</time>
      </trkpt>
      <trkpt lat="50.33962" lon="4.25933">
        <ele>163.80000305176</ele>
        <time>2014-12-29T10:41:27.000Z</time>
      </trkpt>
      <trkpt lat="50.33959" lon="4.25944">
        <ele>163.80000305176</ele>
        <time>2014-12-29T10:41:33.000Z</time>
      </trkpt>
      <trkpt lat="50.33957" lon="4.25957">
        <ele>164</ele>
        <time>2014-12-29T10:41:40.000Z</time>
      </trkpt>
      <trkpt lat="50.33953" lon="4.25973">
        <ele>164</ele>
        <time>2014-12-29T10:41:49.000Z</time>
      </trkpt>
      <trkpt lat="50.33948" lon="4.25992">
        <ele>164.19999694824</ele>
        <time>2014-12-29T10:41:59.000Z</time>
      </trkpt>
      <trkpt lat="50.33945" lon="4.26009">
        <ele>164.19999694824</ele>
        <time>2014-12-29T10:42:08.000Z</time>
      </trkpt>
      <trkpt lat="50.33945" lon="4.26008">
        <ele>164.19999694824</ele>
        <time>2014-12-29T10:42:11.000Z</time>
      </trkpt>
      <trkpt lat="50.33945" lon="4.2601">
        <ele>164.19999694824</ele>
        <time>2014-12-29T10:42:12.000Z</time>
      </trkpt>
      <trkpt lat="50.33942" lon="4.26019">
        <ele>164.39999389648</ele>
        <time>2014-12-29T10:42:17.000Z</time>
      </trkpt>
      <trkpt lat="50.33938" lon="4.26036">
        <ele>164.19999694824</ele>
        <time>2014-12-29T10:42:26.000Z</time>
      </trkpt>
      <trkpt lat="50.33936" lon="4.26043">
        <ele>164</ele>
        <time>2014-12-29T10:42:31.000Z</time>
      </trkpt>
      <trkpt lat="50.3393" lon="4.26065">
        <ele>163.39999389648</ele>
        <time>2014-12-29T10:42:43.000Z</time>
      </trkpt>
      <trkpt lat="50.33926" lon="4.2608">
        <ele>163</ele>
        <time>2014-12-29T10:42:51.000Z</time>
      </trkpt>
      <trkpt lat="50.33923" lon="4.26097">
        <ele>163</ele>
        <time>2014-12-29T10:43:00.000Z</time>
      </trkpt>
      <trkpt lat="50.33918" lon="4.26118">
        <ele>162.80000305176</ele>
        <time>2014-12-29T10:43:12.000Z</time>
      </trkpt>
      <trkpt lat="50.33915" lon="4.26136">
        <ele>162.19999694824</ele>
        <time>2014-12-29T10:43:22.000Z</time>
      </trkpt>
      <trkpt lat="50.33913" lon="4.26146">
        <ele>161.80000305176</ele>
        <time>2014-12-29T10:43:27.000Z</time>
      </trkpt>
      <trkpt lat="50.33912" lon="4.2615">
        <ele>161.80000305176</ele>
        <time>2014-12-29T10:43:32.000Z</time>
      </trkpt>
      <trkpt lat="50.3391" lon="4.26163">
        <ele>161.60000610352</ele>
        <time>2014-12-29T10:43:39.000Z</time>
      </trkpt>
      <trkpt lat="50.33908" lon="4.2618">
        <ele>161.60000610352</ele>
        <time>2014-12-29T10:43:48.000Z</time>
      </trkpt>
      <trkpt lat="50.33908" lon="4.26191">
        <ele>161.39999389648</ele>
        <time>2014-12-29T10:43:55.000Z</time>
      </trkpt>
      <trkpt lat="50.33914" lon="4.26211">
        <ele>161.19999694824</ele>
        <time>2014-12-29T10:44:06.000Z</time>
      </trkpt>
      <trkpt lat="50.33923" lon="4.26231">
        <ele>161</ele>
        <time>2014-12-29T10:44:18.000Z</time>
      </trkpt>
      <trkpt lat="50.3393" lon="4.26245">
        <ele>160.80000305176</ele>
        <time>2014-12-29T10:44:28.000Z</time>
      </trkpt>
      <trkpt lat="50.33933" lon="4.26256">
        <ele>160.80000305176</ele>
        <time>2014-12-29T10:44:34.000Z</time>
      </trkpt>
      <trkpt lat="50.33939" lon="4.26269">
        <ele>160.60000610352</ele>
        <time>2014-12-29T10:44:42.000Z</time>
      </trkpt>
      <trkpt lat="50.33945" lon="4.26284">
        <ele>160.39999389648</ele>
        <time>2014-12-29T10:44:51.000Z</time>
      </trkpt>
      <trkpt lat="50.33954" lon="4.26305">
        <ele>160.19999694824</ele>
        <time>2014-12-29T10:45:04.000Z</time>
      </trkpt>
      <trkpt lat="50.33963" lon="4.26325">
        <ele>160</ele>
        <time>2014-12-29T10:45:17.000Z</time>
      </trkpt>
      <trkpt lat="50.33968" lon="4.26337">
        <ele>159.80000305176</ele>
        <time>2014-12-29T10:45:25.000Z</time>
      </trkpt>
      <trkpt lat="50.33968" lon="4.26338">
        <ele>159.80000305176</ele>
        <time>2014-12-29T10:45:26.000Z</time>
      </trkpt>
      <trkpt lat="50.33973" lon="4.26349">
        <ele>159.39999389648</ele>
        <time>2014-12-29T10:45:34.000Z</time>
      </trkpt>
      <trkpt lat="50.3398" lon="4.26363">
        <ele>158.80000305176</ele>
        <time>2014-12-29T10:45:44.000Z</time>
      </trkpt>
      <trkpt lat="50.33987" lon="4.26375">
        <ele>157.80000305176</ele>
        <time>2014-12-29T10:45:54.000Z</time>
      </trkpt>
      <trkpt lat="50.33991" lon="4.26383">
        <ele>157</ele>
        <time>2014-12-29T10:46:01.000Z</time>
      </trkpt>
      <trkpt lat="50.34" lon="4.26398">
        <ele>155.80000305176</ele>
        <time>2014-12-29T10:46:12.000Z</time>
      </trkpt>
      <trkpt lat="50.34007" lon="4.26409">
        <ele>154.80000305176</ele>
        <time>2014-12-29T10:46:20.000Z</time>
      </trkpt>
      <trkpt lat="50.34013" lon="4.26422">
        <ele>154</ele>
        <time>2014-12-29T10:46:30.000Z</time>
      </trkpt>
      <trkpt lat="50.34014" lon="4.26423">
        <ele>154</ele>
        <time>2014-12-29T10:46:31.000Z</time>
      </trkpt>
      <trkpt lat="50.34016" lon="4.26426">
        <ele>153.80000305176</ele>
        <time>2014-12-29T10:46:34.000Z</time>
      </trkpt>
      <trkpt lat="50.34017" lon="4.26426">
        <ele>153.60000610352</ele>
        <time>2014-12-29T10:46:36.000Z</time>
      </trkpt>
      <trkpt lat="50.34015" lon="4.26426">
        <ele>153.80000305176</ele>
        <time>2014-12-29T10:46:41.000Z</time>
      </trkpt>
      <trkpt lat="50.34015" lon="4.26425">
        <ele>153.80000305176</ele>
        <time>2014-12-29T10:46:48.000Z</time>
      </trkpt>
      <trkpt lat="50.34012" lon="4.26416">
        <ele>154.19999694824</ele>
        <time>2014-12-29T10:48:07.000Z</time>
      </trkpt>
      <trkpt lat="50.3401" lon="4.26413">
        <ele>154.39999389648</ele>
        <time>2014-12-29T10:48:13.000Z</time>
      </trkpt>
      <trkpt lat="50.34015" lon="4.2642">
        <ele>153.80000305176</ele>
        <time>2014-12-29T10:48:19.000Z</time>
      </trkpt>
      <trkpt lat="50.34015" lon="4.26423">
        <ele>153.80000305176</ele>
        <time>2014-12-29T10:48:27.000Z</time>
      </trkpt>
      <trkpt lat="50.34018" lon="4.26426">
        <ele>153.60000610352</ele>
        <time>2014-12-29T10:48:59.000Z</time>
      </trkpt>
      <trkpt lat="50.34018" lon="4.26428">
        <ele>153.60000610352</ele>
        <time>2014-12-29T10:49:07.000Z</time>
      </trkpt>
      <trkpt lat="50.34018" lon="4.2643">
        <ele>153.39999389648</ele>
        <time>2014-12-29T10:49:13.000Z</time>
      </trkpt>
      <trkpt lat="50.34019" lon="4.2643">
        <ele>153.39999389648</ele>
        <time>2014-12-29T10:49:26.000Z</time>
      </trkpt>
      <trkpt lat="50.34019" lon="4.2643">
        <ele>153.39999389648</ele>
        <time>2014-12-29T10:50:11.000Z</time>
      </trkpt>
      <trkpt lat="50.34018" lon="4.26427">
        <ele>153.39999389648</ele>
        <time>2014-12-29T10:51:13.000Z</time>
      </trkpt>
      <trkpt lat="50.34017" lon="4.26425">
        <ele>153.60000610352</ele>
        <time>2014-12-29T10:51:27.000Z</time>
      </trkpt>
      <trkpt lat="50.34017" lon="4.26422">
        <ele>153.60000610352</ele>
        <time>2014-12-29T10:51:35.000Z</time>
      </trkpt>
      <trkpt lat="50.34018" lon="4.26424">
        <ele>153.60000610352</ele>
        <time>2014-12-29T10:52:19.000Z</time>
      </trkpt>
      <trkpt lat="50.34016" lon="4.2643">
        <ele>153.80000305176</ele>
        <time>2014-12-29T10:52:25.000Z</time>
      </trkpt>
      <trkpt lat="50.34017" lon="4.26437">
        <ele>153.60000610352</ele>
        <time>2014-12-29T10:52:29.000Z</time>
      </trkpt>
      <trkpt lat="50.34018" lon="4.26454">
        <ele>153.19999694824</ele>
        <time>2014-12-29T10:52:37.000Z</time>
      </trkpt>
      <trkpt lat="50.34016" lon="4.26471">
        <ele>152.60000610352</ele>
        <time>2014-12-29T10:52:45.000Z</time>
      </trkpt>
      <trkpt lat="50.34014" lon="4.2649">
        <ele>152</ele>
        <time>2014-12-29T10:52:54.000Z</time>
      </trkpt>
      <trkpt lat="50.34011" lon="4.26511">
        <ele>152.19999694824</ele>
        <time>2014-12-29T10:53:05.000Z</time>
      </trkpt>
      <trkpt lat="50.34006" lon="4.2653">
        <ele>153</ele>
        <time>2014-12-29T10:53:15.000Z</time>
      </trkpt>
      <trkpt lat="50.34" lon="4.26552">
        <ele>152.80000305176</ele>
        <time>2014-12-29T10:53:27.000Z</time>
      </trkpt>
      <trkpt lat="50.33996" lon="4.26569">
        <ele>153.19999694824</ele>
        <time>2014-12-29T10:53:36.000Z</time>
      </trkpt>
      <trkpt lat="50.33992" lon="4.26584">
        <ele>153.80000305176</ele>
        <time>2014-12-29T10:53:44.000Z</time>
      </trkpt>
      <trkpt lat="50.33988" lon="4.26604">
        <ele>155</ele>
        <time>2014-12-29T10:53:55.000Z</time>
      </trkpt>
      <trkpt lat="50.33983" lon="4.26627">
        <ele>155.39999389648</ele>
        <time>2014-12-29T10:54:07.000Z</time>
      </trkpt>
      <trkpt lat="50.33979" lon="4.26645">
        <ele>155.80000305176</ele>
        <time>2014-12-29T10:54:16.000Z</time>
      </trkpt>
      <trkpt lat="50.33977" lon="4.26661">
        <ele>156.19999694824</ele>
        <time>2014-12-29T10:54:24.000Z</time>
      </trkpt>
      <trkpt lat="50.33975" lon="4.26679">
        <ele>156.39999389648</ele>
        <time>2014-12-29T10:54:33.000Z</time>
      </trkpt>
      <trkpt lat="50.33975" lon="4.26695">
        <ele>156.39999389648</ele>
        <time>2014-12-29T10:54:41.000Z</time>
      </trkpt>
      <trkpt lat="50.33975" lon="4.26698">
        <ele>156.19999694824</ele>
        <time>2014-12-29T10:54:42.000Z</time>
      </trkpt>
      <trkpt lat="50.33977" lon="4.26706">
        <ele>155.39999389648</ele>
        <time>2014-12-29T10:54:46.000Z</time>
      </trkpt>
      <trkpt lat="50.33979" lon="4.26722">
        <ele>154.39999389648</ele>
        <time>2014-12-29T10:54:54.000Z</time>
      </trkpt>
      <trkpt lat="50.33985" lon="4.26729">
        <ele>153</ele>
        <time>2014-12-29T10:54:59.000Z</time>
      </trkpt>
      <trkpt lat="50.33987" lon="4.26746">
        <ele>152</ele>
        <time>2014-12-29T10:55:08.000Z</time>
      </trkpt>
      <trkpt lat="50.33987" lon="4.26763">
        <ele>151.80000305176</ele>
        <time>2014-12-29T10:55:17.000Z</time>
      </trkpt>
      <trkpt lat="50.33988" lon="4.26778">
        <ele>151.60000610352</ele>
        <time>2014-12-29T10:55:24.000Z</time>
      </trkpt>
      <trkpt lat="50.33988" lon="4.2678">
        <ele>151.39999389648</ele>
        <time>2014-12-29T10:55:25.000Z</time>
      </trkpt>
      <trkpt lat="50.33988" lon="4.26785">
        <ele>151.19999694824</ele>
        <time>2014-12-29T10:55:30.000Z</time>
      </trkpt>
      <trkpt lat="50.33989" lon="4.26794">
        <ele>150.60000610352</ele>
        <time>2014-12-29T10:55:35.000Z</time>
      </trkpt>
      <trkpt lat="50.3399" lon="4.26812">
        <ele>149.80000305176</ele>
        <time>2014-12-29T10:55:44.000Z</time>
      </trkpt>
      <trkpt lat="50.3399" lon="4.2683">
        <ele>149.80000305176</ele>
        <time>2014-12-29T10:55:53.000Z</time>
      </trkpt>
      <trkpt lat="50.33989" lon="4.26848">
        <ele>149.60000610352</ele>
        <time>2014-12-29T10:56:02.000Z</time>
      </trkpt>
      <trkpt lat="50.3399" lon="4.26863">
        <ele>149.39999389648</ele>
        <time>2014-12-29T10:56:10.000Z</time>
      </trkpt>
      <trkpt lat="50.3399" lon="4.26867">
        <ele>149.60000610352</ele>
        <time>2014-12-29T10:56:12.000Z</time>
      </trkpt>
      <trkpt lat="50.33985" lon="4.26878">
        <ele>152</ele>
        <time>2014-12-29T10:56:19.000Z</time>
      </trkpt>
      <trkpt lat="50.33984" lon="4.26883">
        <ele>152.80000305176</ele>
        <time>2014-12-29T10:56:22.000Z</time>
      </trkpt>
      <trkpt lat="50.33984" lon="4.26899">
        <ele>153.60000610352</ele>
        <time>2014-12-29T10:56:32.000Z</time>
      </trkpt>
      <trkpt lat="50.33984" lon="4.26911">
        <ele>154</ele>
        <time>2014-12-29T10:56:38.000Z</time>
      </trkpt>
      <trkpt lat="50.33984" lon="4.26927">
        <ele>154.60000610352</ele>
        <time>2014-12-29T10:56:47.000Z</time>
      </trkpt>
      <trkpt lat="50.33983" lon="4.26933">
        <ele>155</ele>
        <time>2014-12-29T10:56:53.000Z</time>
      </trkpt>
      <trkpt lat="50.33983" lon="4.26938">
        <ele>155.19999694824</ele>
        <time>2014-12-29T10:57:00.000Z</time>
      </trkpt>
      <trkpt lat="50.33988" lon="4.2695">
        <ele>154.60000610352</ele>
        <time>2014-12-29T10:57:26.000Z</time>
      </trkpt>
      <trkpt lat="50.33987" lon="4.26951">
        <ele>155</ele>
        <time>2014-12-29T10:57:32.000Z</time>
      </trkpt>
      <trkpt lat="50.33984" lon="4.26957">
        <ele>156.60000610352</ele>
        <time>2014-12-29T10:57:37.000Z</time>
      </trkpt>
      <trkpt lat="50.3398" lon="4.2697">
        <ele>158.19999694824</ele>
        <time>2014-12-29T10:57:44.000Z</time>
      </trkpt>
      <trkpt lat="50.33976" lon="4.26984">
        <ele>159.39999389648</ele>
        <time>2014-12-29T10:57:52.000Z</time>
      </trkpt>
      <trkpt lat="50.33964" lon="4.27022">
        <ele>162.60000610352</ele>
        <time>2014-12-29T10:58:14.000Z</time>
      </trkpt>
      <trkpt lat="50.33959" lon="4.27037">
        <ele>163.39999389648</ele>
        <time>2014-12-29T10:58:24.000Z</time>
      </trkpt>
      <trkpt lat="50.33955" lon="4.27051">
        <ele>163.80000305176</ele>
        <time>2014-12-29T10:58:32.000Z</time>
      </trkpt>
      <trkpt lat="50.33949" lon="4.27068">
        <ele>164.19999694824</ele>
        <time>2014-12-29T10:58:42.000Z</time>
      </trkpt>
      <trkpt lat="50.33945" lon="4.27083">
        <ele>164.80000305176</ele>
        <time>2014-12-29T10:58:51.000Z</time>
      </trkpt>
      <trkpt lat="50.33942" lon="4.27094">
        <ele>165</ele>
        <time>2014-12-29T10:58:58.000Z</time>
      </trkpt>
      <trkpt lat="50.33938" lon="4.27104">
        <ele>165.19999694824</ele>
        <time>2014-12-29T10:59:04.000Z</time>
      </trkpt>
      <trkpt lat="50.33934" lon="4.2712">
        <ele>165.60000610352</ele>
        <time>2014-12-29T10:59:13.000Z</time>
      </trkpt>
      <trkpt lat="50.33931" lon="4.27132">
        <ele>165.80000305176</ele>
        <time>2014-12-29T10:59:20.000Z</time>
      </trkpt>
      <trkpt lat="50.33927" lon="4.27147">
        <ele>166.19999694824</ele>
        <time>2014-12-29T10:59:28.000Z</time>
      </trkpt>
      <trkpt lat="50.33922" lon="4.27164">
        <ele>166.60000610352</ele>
        <time>2014-12-29T10:59:37.000Z</time>
      </trkpt>
      <trkpt lat="50.33918" lon="4.27177">
        <ele>166.80000305176</ele>
        <time>2014-12-29T10:59:45.000Z</time>
      </trkpt>
      <trkpt lat="50.33911" lon="4.27197">
        <ele>167</ele>
        <time>2014-12-29T10:59:56.000Z</time>
      </trkpt>
      <trkpt lat="50.33905" lon="4.27214">
        <ele>167</ele>
        <time>2014-12-29T11:00:06.000Z</time>
      </trkpt>
      <trkpt lat="50.33898" lon="4.27233">
        <ele>167</ele>
        <time>2014-12-29T11:00:17.000Z</time>
      </trkpt>
      <trkpt lat="50.33893" lon="4.27249">
        <ele>167</ele>
        <time>2014-12-29T11:00:26.000Z</time>
      </trkpt>
      <trkpt lat="50.33886" lon="4.27268">
        <ele>167</ele>
        <time>2014-12-29T11:00:37.000Z</time>
      </trkpt>
      <trkpt lat="50.3388" lon="4.27285">
        <ele>167</ele>
        <time>2014-12-29T11:00:47.000Z</time>
      </trkpt>
      <trkpt lat="50.33873" lon="4.27305">
        <ele>167.60000610352</ele>
        <time>2014-12-29T11:00:59.000Z</time>
      </trkpt>
      <trkpt lat="50.33866" lon="4.27327">
        <ele>168.19999694824</ele>
        <time>2014-12-29T11:01:11.000Z</time>
      </trkpt>
      <trkpt lat="50.33862" lon="4.27341">
        <ele>168.60000610352</ele>
        <time>2014-12-29T11:01:20.000Z</time>
      </trkpt>
      <trkpt lat="50.33857" lon="4.27357">
        <ele>168.60000610352</ele>
        <time>2014-12-29T11:01:29.000Z</time>
      </trkpt>
      <trkpt lat="50.33849" lon="4.2738">
        <ele>168.80000305176</ele>
        <time>2014-12-29T11:01:42.000Z</time>
      </trkpt>
      <trkpt lat="50.33843" lon="4.27397">
        <ele>168.80000305176</ele>
        <time>2014-12-29T11:01:52.000Z</time>
      </trkpt>
      <trkpt lat="50.33837" lon="4.27414">
        <ele>169</ele>
        <time>2014-12-29T11:02:02.000Z</time>
      </trkpt>
      <trkpt lat="50.33833" lon="4.27426">
        <ele>169.19999694824</ele>
        <time>2014-12-29T11:02:09.000Z</time>
      </trkpt>
      <trkpt lat="50.33825" lon="4.27443">
        <ele>169.39999389648</ele>
        <time>2014-12-29T11:02:20.000Z</time>
      </trkpt>
      <trkpt lat="50.33816" lon="4.2746">
        <ele>169.60000610352</ele>
        <time>2014-12-29T11:02:31.000Z</time>
      </trkpt>
      <trkpt lat="50.33808" lon="4.27475">
        <ele>169.80000305176</ele>
        <time>2014-12-29T11:02:41.000Z</time>
      </trkpt>
      <trkpt lat="50.33807" lon="4.27478">
        <ele>169.80000305176</ele>
        <time>2014-12-29T11:02:46.000Z</time>
      </trkpt>
      <trkpt lat="50.33801" lon="4.27491">
        <ele>170</ele>
        <time>2014-12-29T11:02:54.000Z</time>
      </trkpt>
      <trkpt lat="50.3379" lon="4.27513">
        <ele>170.19999694824</ele>
        <time>2014-12-29T11:03:06.000Z</time>
      </trkpt>
      <trkpt lat="50.33783" lon="4.27529">
        <ele>170.19999694824</ele>
        <time>2014-12-29T11:03:16.000Z</time>
      </trkpt>
      <trkpt lat="50.33776" lon="4.27541">
        <ele>169.80000305176</ele>
        <time>2014-12-29T11:03:24.000Z</time>
      </trkpt>
      <trkpt lat="50.33768" lon="4.27561">
        <ele>169.19999694824</ele>
        <time>2014-12-29T11:03:36.000Z</time>
      </trkpt>
      <trkpt lat="50.33763" lon="4.27571">
        <ele>169</ele>
        <time>2014-12-29T11:03:43.000Z</time>
      </trkpt>
      <trkpt lat="50.33754" lon="4.27587">
        <ele>168.80000305176</ele>
        <time>2014-12-29T11:03:54.000Z</time>
      </trkpt>
      <trkpt lat="50.3375" lon="4.27598">
        <ele>169</ele>
        <time>2014-12-29T11:04:02.000Z</time>
      </trkpt>
      <trkpt lat="50.33741" lon="4.27613">
        <ele>169</ele>
        <time>2014-12-29T11:04:13.000Z</time>
      </trkpt>
      <trkpt lat="50.33733" lon="4.27626">
        <ele>168.80000305176</ele>
        <time>2014-12-29T11:04:23.000Z</time>
      </trkpt>
      <trkpt lat="50.33726" lon="4.27636">
        <ele>169</ele>
        <time>2014-12-29T11:04:32.000Z</time>
      </trkpt>
      <trkpt lat="50.33717" lon="4.27649">
        <ele>169.39999389648</ele>
        <time>2014-12-29T11:04:43.000Z</time>
      </trkpt>
      <trkpt lat="50.33716" lon="4.27653">
        <ele>169.39999389648</ele>
        <time>2014-12-29T11:04:46.000Z</time>
      </trkpt>
      <trkpt lat="50.33706" lon="4.27664">
        <ele>169.39999389648</ele>
        <time>2014-12-29T11:04:56.000Z</time>
      </trkpt>
      <trkpt lat="50.33683" lon="4.27695">
        <ele>170</ele>
        <time>2014-12-29T11:05:21.000Z</time>
      </trkpt>
      <trkpt lat="50.33674" lon="4.27708">
        <ele>170.39999389648</ele>
        <time>2014-12-29T11:05:32.000Z</time>
      </trkpt>
      <trkpt lat="50.33667" lon="4.2772">
        <ele>170.39999389648</ele>
        <time>2014-12-29T11:05:42.000Z</time>
      </trkpt>
      <trkpt lat="50.33663" lon="4.27728">
        <ele>170.39999389648</ele>
        <time>2014-12-29T11:05:49.000Z</time>
      </trkpt>
      <trkpt lat="50.33658" lon="4.27734">
        <ele>170.60000610352</ele>
        <time>2014-12-29T11:05:56.000Z</time>
      </trkpt>
      <trkpt lat="50.33649" lon="4.27743">
        <ele>170.80000305176</ele>
        <time>2014-12-29T11:06:06.000Z</time>
      </trkpt>
      <trkpt lat="50.33642" lon="4.27753">
        <ele>171</ele>
        <time>2014-12-29T11:06:15.000Z</time>
      </trkpt>
      <trkpt lat="50.33641" lon="4.27754">
        <ele>171</ele>
        <time>2014-12-29T11:06:16.000Z</time>
      </trkpt>
      <trkpt lat="50.33635" lon="4.27763">
        <ele>171</ele>
        <time>2014-12-29T11:06:24.000Z</time>
      </trkpt>
      <trkpt lat="50.33629" lon="4.27772">
        <ele>171.19999694824</ele>
        <time>2014-12-29T11:06:32.000Z</time>
      </trkpt>
      <trkpt lat="50.33626" lon="4.27777">
        <ele>171.19999694824</ele>
        <time>2014-12-29T11:06:37.000Z</time>
      </trkpt>
      <trkpt lat="50.3362" lon="4.27787">
        <ele>171.39999389648</ele>
        <time>2014-12-29T11:06:45.000Z</time>
      </trkpt>
      <trkpt lat="50.33618" lon="4.2779">
        <ele>171.39999389648</ele>
        <time>2014-12-29T11:06:57.000Z</time>
      </trkpt>
      <trkpt lat="50.33614" lon="4.27798">
        <ele>171.60000610352</ele>
        <time>2014-12-29T11:07:04.000Z</time>
      </trkpt>
      <trkpt lat="50.33605" lon="4.27811">
        <ele>171.80000305176</ele>
        <time>2014-12-29T11:07:14.000Z</time>
      </trkpt>
      <trkpt lat="50.33597" lon="4.27821">
        <ele>172.19999694824</ele>
        <time>2014-12-29T11:07:22.000Z</time>
      </trkpt>
      <trkpt lat="50.3359" lon="4.27832">
        <ele>172.39999389648</ele>
        <time>2014-12-29T11:07:30.000Z</time>
      </trkpt>
      <trkpt lat="50.33584" lon="4.2784">
        <ele>172.60000610352</ele>
        <time>2014-12-29T11:07:37.000Z</time>
      </trkpt>
      <trkpt lat="50.33576" lon="4.27851">
        <ele>172.80000305176</ele>
        <time>2014-12-29T11:07:46.000Z</time>
      </trkpt>
      <trkpt lat="50.33566" lon="4.27864">
        <ele>173</ele>
        <time>2014-12-29T11:07:56.000Z</time>
      </trkpt>
      <trkpt lat="50.33554" lon="4.27878">
        <ele>173.19999694824</ele>
        <time>2014-12-29T11:08:08.000Z</time>
      </trkpt>
      <trkpt lat="50.33545" lon="4.27887">
        <ele>173.39999389648</ele>
        <time>2014-12-29T11:08:17.000Z</time>
      </trkpt>
      <trkpt lat="50.33544" lon="4.27889">
        <ele>173.39999389648</ele>
        <time>2014-12-29T11:08:23.000Z</time>
      </trkpt>
      <trkpt lat="50.3355" lon="4.27894">
        <ele>173.19999694824</ele>
        <time>2014-12-29T11:08:29.000Z</time>
      </trkpt>
      <trkpt lat="50.33557" lon="4.27907">
        <ele>172.39999389648</ele>
        <time>2014-12-29T11:08:39.000Z</time>
      </trkpt>
      <trkpt lat="50.33562" lon="4.27916">
        <ele>171.80000305176</ele>
        <time>2014-12-29T11:08:46.000Z</time>
      </trkpt>
      <trkpt lat="50.33569" lon="4.27927">
        <ele>171.19999694824</ele>
        <time>2014-12-29T11:08:54.000Z</time>
      </trkpt>
      <trkpt lat="50.33571" lon="4.27929">
        <ele>171</ele>
        <time>2014-12-29T11:08:56.000Z</time>
      </trkpt>
      <trkpt lat="50.33578" lon="4.27941">
        <ele>170.19999694824</ele>
        <time>2014-12-29T11:09:05.000Z</time>
      </trkpt>
      <trkpt lat="50.3358" lon="4.27947">
        <ele>170</ele>
        <time>2014-12-29T11:09:11.000Z</time>
      </trkpt>
      <trkpt lat="50.33584" lon="4.27952">
        <ele>169.60000610352</ele>
        <time>2014-12-29T11:09:16.000Z</time>
      </trkpt>
      <trkpt lat="50.33584" lon="4.27953">
        <ele>169.60000610352</ele>
        <time>2014-12-29T11:09:17.000Z</time>
      </trkpt>
      <trkpt lat="50.33587" lon="4.27957">
        <ele>169.19999694824</ele>
        <time>2014-12-29T11:09:21.000Z</time>
      </trkpt>
      <trkpt lat="50.33594" lon="4.27971">
        <ele>168</ele>
        <time>2014-12-29T11:09:31.000Z</time>
      </trkpt>
      <trkpt lat="50.33597" lon="4.27975">
        <ele>167.60000610352</ele>
        <time>2014-12-29T11:09:34.000Z</time>
      </trkpt>
      <trkpt lat="50.336" lon="4.27982">
        <ele>167.19999694824</ele>
        <time>2014-12-29T11:09:40.000Z</time>
      </trkpt>
      <trkpt lat="50.33605" lon="4.27991">
        <ele>166.39999389648</ele>
        <time>2014-12-29T11:09:48.000Z</time>
      </trkpt>
      <trkpt lat="50.33612" lon="4.28002">
        <ele>165.39999389648</ele>
        <time>2014-12-29T11:09:57.000Z</time>
      </trkpt>
      <trkpt lat="50.33613" lon="4.28003">
        <ele>165.39999389648</ele>
        <time>2014-12-29T11:09:58.000Z</time>
      </trkpt>
      <trkpt lat="50.3362" lon="4.28016">
        <ele>164.19999694824</ele>
        <time>2014-12-29T11:10:08.000Z</time>
      </trkpt>
      <trkpt lat="50.33625" lon="4.28026">
        <ele>163.60000610352</ele>
        <time>2014-12-29T11:10:14.000Z</time>
      </trkpt>
      <trkpt lat="50.33631" lon="4.28037">
        <ele>162.39999389648</ele>
        <time>2014-12-29T11:10:22.000Z</time>
      </trkpt>
      <trkpt lat="50.33636" lon="4.28048">
        <ele>161</ele>
        <time>2014-12-29T11:10:29.000Z</time>
      </trkpt>
      <trkpt lat="50.33645" lon="4.28061">
        <ele>158.80000305176</ele>
        <time>2014-12-29T11:10:38.000Z</time>
      </trkpt>
      <trkpt lat="50.3365" lon="4.28072">
        <ele>157.39999389648</ele>
        <time>2014-12-29T11:10:45.000Z</time>
      </trkpt>
      <trkpt lat="50.3365" lon="4.28074">
        <ele>157.19999694824</ele>
        <time>2014-12-29T11:10:46.000Z</time>
      </trkpt>
      <trkpt lat="50.33649" lon="4.28078">
        <ele>157</ele>
        <time>2014-12-29T11:10:49.000Z</time>
      </trkpt>
      <trkpt lat="50.33646" lon="4.28085">
        <ele>157</ele>
        <time>2014-12-29T11:10:56.000Z</time>
      </trkpt>
      <trkpt lat="50.3363" lon="4.28111">
        <ele>157.19999694824</ele>
        <time>2014-12-29T11:11:17.000Z</time>
      </trkpt>
      <trkpt lat="50.3362" lon="4.28125">
        <ele>157.39999389648</ele>
        <time>2014-12-29T11:11:28.000Z</time>
      </trkpt>
      <trkpt lat="50.33611" lon="4.28139">
        <ele>157.39999389648</ele>
        <time>2014-12-29T11:11:38.000Z</time>
      </trkpt>
      <trkpt lat="50.33605" lon="4.28153">
        <ele>157</ele>
        <time>2014-12-29T11:11:47.000Z</time>
      </trkpt>
      <trkpt lat="50.33601" lon="4.28159">
        <ele>157</ele>
        <time>2014-12-29T11:11:56.000Z</time>
      </trkpt>
      <trkpt lat="50.33599" lon="4.28166">
        <ele>156.80000305176</ele>
        <time>2014-12-29T11:12:01.000Z</time>
      </trkpt>
      <trkpt lat="50.33595" lon="4.28178">
        <ele>157</ele>
        <time>2014-12-29T11:12:09.000Z</time>
      </trkpt>
      <trkpt lat="50.33591" lon="4.28196">
        <ele>157</ele>
        <time>2014-12-29T11:12:20.000Z</time>
      </trkpt>
      <trkpt lat="50.33589" lon="4.28209">
        <ele>157</ele>
        <time>2014-12-29T11:12:28.000Z</time>
      </trkpt>
      <trkpt lat="50.33588" lon="4.28227">
        <ele>156.60000610352</ele>
        <time>2014-12-29T11:12:39.000Z</time>
      </trkpt>
      <trkpt lat="50.33586" lon="4.28241">
        <ele>156.39999389648</ele>
        <time>2014-12-29T11:12:48.000Z</time>
      </trkpt>
      <trkpt lat="50.33588" lon="4.2826">
        <ele>155.39999389648</ele>
        <time>2014-12-29T11:13:00.000Z</time>
      </trkpt>
      <trkpt lat="50.33594" lon="4.28287">
        <ele>153.19999694824</ele>
        <time>2014-12-29T11:13:17.000Z</time>
      </trkpt>
      <trkpt lat="50.33598" lon="4.28301">
        <ele>152</ele>
        <time>2014-12-29T11:13:26.000Z</time>
      </trkpt>
      <trkpt lat="50.33599" lon="4.28308">
        <ele>151.19999694824</ele>
        <time>2014-12-29T11:13:30.000Z</time>
      </trkpt>
      <trkpt lat="50.33604" lon="4.2832">
        <ele>150</ele>
        <time>2014-12-29T11:13:39.000Z</time>
      </trkpt>
      <trkpt lat="50.33609" lon="4.28331">
        <ele>148.39999389648</ele>
        <time>2014-12-29T11:13:48.000Z</time>
      </trkpt>
      <trkpt lat="50.33617" lon="4.28343">
        <ele>146.39999389648</ele>
        <time>2014-12-29T11:13:58.000Z</time>
      </trkpt>
      <trkpt lat="50.33627" lon="4.28354">
        <ele>144.19999694824</ele>
        <time>2014-12-29T11:14:05.000Z</time>
      </trkpt>
      <trkpt lat="50.33628" lon="4.28355">
        <ele>143.80000305176</ele>
        <time>2014-12-29T11:14:06.000Z</time>
      </trkpt>
      <trkpt lat="50.33637" lon="4.28353">
        <ele>142.60000610352</ele>
        <time>2014-12-29T11:14:12.000Z</time>
      </trkpt>
      <trkpt lat="50.33636" lon="4.2836">
        <ele>142.39999389648</ele>
        <time>2014-12-29T11:14:17.000Z</time>
      </trkpt>
      <trkpt lat="50.33635" lon="4.28363">
        <ele>142.39999389648</ele>
        <time>2014-12-29T11:14:19.000Z</time>
      </trkpt>
      <trkpt lat="50.3364" lon="4.28362">
        <ele>141.80000305176</ele>
        <time>2014-12-29T11:14:26.000Z</time>
      </trkpt>
      <trkpt lat="50.3364" lon="4.28362">
        <ele>141.80000305176</ele>
        <time>2014-12-29T11:14:27.000Z</time>
      </trkpt>
      <trkpt lat="50.33646" lon="4.28353">
        <ele>141.39999389648</ele>
        <time>2014-12-29T11:14:37.000Z</time>
      </trkpt>
      <trkpt lat="50.33648" lon="4.28351">
        <ele>141.39999389648</ele>
        <time>2014-12-29T11:14:45.000Z</time>
      </trkpt>
      <trkpt lat="50.33653" lon="4.28343">
        <ele>141</ele>
        <time>2014-12-29T11:14:52.000Z</time>
      </trkpt>
      <trkpt lat="50.33655" lon="4.28341">
        <ele>140.80000305176</ele>
        <time>2014-12-29T11:14:58.000Z</time>
      </trkpt>
      <trkpt lat="50.3366" lon="4.28337">
        <ele>140.39999389648</ele>
        <time>2014-12-29T11:15:03.000Z</time>
      </trkpt>
      <trkpt lat="50.33662" lon="4.28334">
        <ele>140.19999694824</ele>
        <time>2014-12-29T11:15:07.000Z</time>
      </trkpt>
      <trkpt lat="50.33669" lon="4.28329">
        <ele>139.60000610352</ele>
        <time>2014-12-29T11:15:13.000Z</time>
      </trkpt>
      <trkpt lat="50.3367" lon="4.28329">
        <ele>139.39999389648</ele>
        <time>2014-12-29T11:15:14.000Z</time>
      </trkpt>
      <trkpt lat="50.33679" lon="4.28321">
        <ele>138.39999389648</ele>
        <time>2014-12-29T11:15:24.000Z</time>
      </trkpt>
      <trkpt lat="50.3368" lon="4.28321">
        <ele>138.39999389648</ele>
        <time>2014-12-29T11:15:25.000Z</time>
      </trkpt>
      <trkpt lat="50.3368" lon="4.28321">
        <ele>138.19999694824</ele>
        <time>2014-12-29T11:15:26.000Z</time>
      </trkpt>
      <trkpt lat="50.33691" lon="4.28317">
        <ele>136.60000610352</ele>
        <time>2014-12-29T11:15:37.000Z</time>
      </trkpt>
      <trkpt lat="50.33701" lon="4.28315">
        <ele>135.19999694824</ele>
        <time>2014-12-29T11:15:46.000Z</time>
      </trkpt>
      <trkpt lat="50.33708" lon="4.28317">
        <ele>134</ele>
        <time>2014-12-29T11:15:54.000Z</time>
      </trkpt>
      <trkpt lat="50.3371" lon="4.28317">
        <ele>133.60000610352</ele>
        <time>2014-12-29T11:15:56.000Z</time>
      </trkpt>
      <trkpt lat="50.33715" lon="4.28324">
        <ele>132.80000305176</ele>
        <time>2014-12-29T11:16:03.000Z</time>
      </trkpt>
      <trkpt lat="50.33724" lon="4.28327">
        <ele>131.39999389648</ele>
        <time>2014-12-29T11:16:12.000Z</time>
      </trkpt>
      <trkpt lat="50.33731" lon="4.28328">
        <ele>130.39999389648</ele>
        <time>2014-12-29T11:16:20.000Z</time>
      </trkpt>
      <trkpt lat="50.33732" lon="4.28327">
        <ele>130.19999694824</ele>
        <time>2014-12-29T11:16:21.000Z</time>
      </trkpt>
      <trkpt lat="50.33738" lon="4.28327">
        <ele>129.39999389648</ele>
        <time>2014-12-29T11:16:27.000Z</time>
      </trkpt>
      <trkpt lat="50.33747" lon="4.28326">
        <ele>128.19999694824</ele>
        <time>2014-12-29T11:16:35.000Z</time>
      </trkpt>
      <trkpt lat="50.33753" lon="4.28325">
        <ele>127.19999694824</ele>
        <time>2014-12-29T11:16:41.000Z</time>
      </trkpt>
      <trkpt lat="50.33756" lon="4.28324">
        <ele>127</ele>
        <time>2014-12-29T11:16:45.000Z</time>
      </trkpt>
      <trkpt lat="50.33762" lon="4.28325">
        <ele>126.19999694824</ele>
        <time>2014-12-29T11:16:53.000Z</time>
      </trkpt>
      <trkpt lat="50.33768" lon="4.28326">
        <ele>125.19999694824</ele>
        <time>2014-12-29T11:17:00.000Z</time>
      </trkpt>
      <trkpt lat="50.33771" lon="4.28326">
        <ele>125</ele>
        <time>2014-12-29T11:17:06.000Z</time>
      </trkpt>
      <trkpt lat="50.33775" lon="4.28326">
        <ele>124.40000152588</ele>
        <time>2014-12-29T11:17:11.000Z</time>
      </trkpt>
      <trkpt lat="50.33782" lon="4.28326">
        <ele>123.59999847412</ele>
        <time>2014-12-29T11:17:18.000Z</time>
      </trkpt>
      <trkpt lat="50.33791" lon="4.28322">
        <ele>122.80000305176</ele>
        <time>2014-12-29T11:17:25.000Z</time>
      </trkpt>
      <trkpt lat="50.33793" lon="4.28321">
        <ele>122.59999847412</ele>
        <time>2014-12-29T11:17:26.000Z</time>
      </trkpt>
      <trkpt lat="50.33798" lon="4.28316">
        <ele>120</ele>
      </trkpt>
      <trkpt lat="50.33804" lon="4.28314">
        <ele>120</ele>
      </trkpt>
      <trkpt lat="50.33808" lon="4.28311">
        <ele>120</ele>
      </trkpt>
      <trkpt lat="50.33814" lon="4.28309">
        <ele>123.4</ele>
        <time>2014-12-29T11:17:41Z</time>
      </trkpt>
      <trkpt lat="50.3382" lon="4.28304">
        <ele>124</ele>
        <time>2014-12-29T11:18:02Z</time>
      </trkpt>
      <trkpt lat="50.33827" lon="4.28298">
        <ele>123.59999847412</ele>
        <time>2014-12-29T11:18:10.000Z</time>
      </trkpt>
      <trkpt lat="50.33835" lon="4.28292">
        <ele>123</ele>
        <time>2014-12-29T11:18:18.000Z</time>
      </trkpt>
      <trkpt lat="50.33844" lon="4.28288">
        <ele>122.59999847412</ele>
        <time>2014-12-29T11:18:26.000Z</time>
      </trkpt>
      <trkpt lat="50.33852" lon="4.28291">
        <ele>122.40000152588</ele>
        <time>2014-12-29T11:18:33.000Z</time>
      </trkpt>
      <trkpt lat="50.33858" lon="4.28298">
        <ele>122.40000152588</ele>
        <time>2014-12-29T11:18:39.000Z</time>
      </trkpt>
      <trkpt lat="50.33858" lon="4.28299">
        <ele>122.59999847412</ele>
        <time>2014-12-29T11:18:40.000Z</time>
      </trkpt>
      <trkpt lat="50.33861" lon="4.28311">
        <ele>122.80000305176</ele>
        <time>2014-12-29T11:18:47.000Z</time>
      </trkpt>
      <trkpt lat="50.33861" lon="4.28313">
        <ele>122.80000305176</ele>
        <time>2014-12-29T11:18:48.000Z</time>
      </trkpt>
      <trkpt lat="50.33861" lon="4.28326">
        <ele>123.40000152588</ele>
        <time>2014-12-29T11:18:57.000Z</time>
      </trkpt>
      <trkpt lat="50.33862" lon="4.2834">
        <ele>123.80000305176</ele>
        <time>2014-12-29T11:19:05.000Z</time>
      </trkpt>
      <trkpt lat="50.33862" lon="4.28351">
        <ele>123.59999847412</ele>
        <time>2014-12-29T11:19:12.000Z</time>
      </trkpt>
      <trkpt lat="50.33864" lon="4.28365">
        <ele>123.59999847412</ele>
        <time>2014-12-29T11:19:20.000Z</time>
      </trkpt>
      <trkpt lat="50.33867" lon="4.28376">
        <ele>125.40000152588</ele>
        <time>2014-12-29T11:19:27.000Z</time>
      </trkpt>
      <trkpt lat="50.33868" lon="4.28377">
        <ele>125.59999847412</ele>
        <time>2014-12-29T11:19:28.000Z</time>
      </trkpt>
      <trkpt lat="50.33871" lon="4.28383">
        <ele>126.59999847412</ele>
        <time>2014-12-29T11:19:32.000Z</time>
      </trkpt>
      <trkpt lat="50.33874" lon="4.28388">
        <ele>127.40000152588</ele>
        <time>2014-12-29T11:19:37.000Z</time>
      </trkpt>
      <trkpt lat="50.33878" lon="4.28395">
        <ele>128.80000305176</ele>
        <time>2014-12-29T11:19:44.000Z</time>
      </trkpt>
      <trkpt lat="50.33881" lon="4.28399">
        <ele>129.60000610352</ele>
        <time>2014-12-29T11:19:47.000Z</time>
      </trkpt>
      <trkpt lat="50.33891" lon="4.28404">
        <ele>131.80000305176</ele>
        <time>2014-12-29T11:19:57.000Z</time>
      </trkpt>
      <trkpt lat="50.33894" lon="4.28409">
        <ele>133</ele>
        <time>2014-12-29T11:20:01.000Z</time>
      </trkpt>
      <trkpt lat="50.33895" lon="4.28418">
        <ele>134.60000610352</ele>
        <time>2014-12-29T11:20:08.000Z</time>
      </trkpt>
      <trkpt lat="50.33895" lon="4.2842">
        <ele>134.80000305176</ele>
        <time>2014-12-29T11:20:09.000Z</time>
      </trkpt>
      <trkpt lat="50.33895" lon="4.28427">
        <ele>136</ele>
        <time>2014-12-29T11:20:16.000Z</time>
      </trkpt>
      <trkpt lat="50.33896" lon="4.28434">
        <ele>137.19999694824</ele>
        <time>2014-12-29T11:20:21.000Z</time>
      </trkpt>
      <trkpt lat="50.33896" lon="4.28445">
        <ele>139</ele>
        <time>2014-12-29T11:20:27.000Z</time>
      </trkpt>
      <trkpt lat="50.33893" lon="4.28459">
        <ele>139.80000305176</ele>
        <time>2014-12-29T11:20:35.000Z</time>
      </trkpt>
      <trkpt lat="50.3389" lon="4.28468">
        <ele>141.19999694824</ele>
        <time>2014-12-29T11:20:42.000Z</time>
      </trkpt>
      <trkpt lat="50.3389" lon="4.28469">
        <ele>141.39999389648</ele>
        <time>2014-12-29T11:20:43.000Z</time>
      </trkpt>
      <trkpt lat="50.33888" lon="4.2847">
        <ele>141.39999389648</ele>
        <time>2014-12-29T11:20:53.000Z</time>
      </trkpt>
      <trkpt lat="50.33887" lon="4.28472">
        <ele>141.60000610352</ele>
        <time>2014-12-29T11:20:59.000Z</time>
      </trkpt>
      <trkpt lat="50.33883" lon="4.28478">
        <ele>142.60000610352</ele>
        <time>2014-12-29T11:21:05.000Z</time>
      </trkpt>
      <trkpt lat="50.33878" lon="4.28488">
        <ele>143.39999389648</ele>
        <time>2014-12-29T11:21:12.000Z</time>
      </trkpt>
      <trkpt lat="50.33873" lon="4.28499">
        <ele>144.60000610352</ele>
        <time>2014-12-29T11:21:20.000Z</time>
      </trkpt>
      <trkpt lat="50.33873" lon="4.285">
        <ele>144.60000610352</ele>
        <time>2014-12-29T11:21:21.000Z</time>
      </trkpt>
      <trkpt lat="50.33873" lon="4.28501">
        <ele>144.80000305176</ele>
        <time>2014-12-29T11:21:24.000Z</time>
      </trkpt>
      <trkpt lat="50.33871" lon="4.28506">
        <ele>145.39999389648</ele>
        <time>2014-12-29T11:21:28.000Z</time>
      </trkpt>
      <trkpt lat="50.33867" lon="4.28515">
        <ele>146.19999694824</ele>
        <time>2014-12-29T11:21:36.000Z</time>
      </trkpt>
      <trkpt lat="50.33863" lon="4.28529">
        <ele>146</ele>
        <time>2014-12-29T11:21:45.000Z</time>
      </trkpt>
      <trkpt lat="50.33859" lon="4.28546">
        <ele>145.80000305176</ele>
        <time>2014-12-29T11:21:55.000Z</time>
      </trkpt>
      <trkpt lat="50.33858" lon="4.28555">
        <ele>146</ele>
        <time>2014-12-29T11:22:01.000Z</time>
      </trkpt>
      <trkpt lat="50.33857" lon="4.28563">
        <ele>146.19999694824</ele>
        <time>2014-12-29T11:22:09.000Z</time>
      </trkpt>
      <trkpt lat="50.33858" lon="4.28572">
        <ele>147</ele>
        <time>2014-12-29T11:22:16.000Z</time>
      </trkpt>
      <trkpt lat="50.33859" lon="4.28579">
        <ele>147.60000610352</ele>
        <time>2014-12-29T11:22:36.000Z</time>
      </trkpt>
      <trkpt lat="50.33859" lon="4.2859">
        <ele>148.39999389648</ele>
        <time>2014-12-29T11:22:43.000Z</time>
      </trkpt>
      <trkpt lat="50.33861" lon="4.286">
        <ele>149.60000610352</ele>
        <time>2014-12-29T11:22:53.000Z</time>
      </trkpt>
      <trkpt lat="50.33861" lon="4.28607">
        <ele>150.19999694824</ele>
        <time>2014-12-29T11:22:59.000Z</time>
      </trkpt>
      <trkpt lat="50.33861" lon="4.28616">
        <ele>151</ele>
        <time>2014-12-29T11:23:06.000Z</time>
      </trkpt>
      <trkpt lat="50.33862" lon="4.28636">
        <ele>152.80000305176</ele>
        <time>2014-12-29T11:23:17.000Z</time>
      </trkpt>
      <trkpt lat="50.33862" lon="4.28639">
        <ele>153</ele>
        <time>2014-12-29T11:23:18.000Z</time>
      </trkpt>
      <trkpt lat="50.33863" lon="4.28646">
        <ele>153.60000610352</ele>
        <time>2014-12-29T11:23:22.000Z</time>
      </trkpt>
      <trkpt lat="50.33864" lon="4.2866">
        <ele>155</ele>
        <time>2014-12-29T11:23:31.000Z</time>
      </trkpt>
      <trkpt lat="50.33866" lon="4.28667">
        <ele>156</ele>
        <time>2014-12-29T11:23:37.000Z</time>
      </trkpt>
      <trkpt lat="50.33865" lon="4.28668">
        <ele>155.80000305176</ele>
        <time>2014-12-29T11:23:42.000Z</time>
      </trkpt>
      <trkpt lat="50.33868" lon="4.28671">
        <ele>156.60000610352</ele>
        <time>2014-12-29T11:23:46.000Z</time>
      </trkpt>
      <trkpt lat="50.3387" lon="4.28674">
        <ele>157.60000610352</ele>
        <time>2014-12-29T11:23:49.000Z</time>
      </trkpt>
      <trkpt lat="50.33876" lon="4.28677">
        <ele>159.39999389648</ele>
        <time>2014-12-29T11:23:56.000Z</time>
      </trkpt>
      <trkpt lat="50.3388" lon="4.28678">
        <ele>160.39999389648</ele>
        <time>2014-12-29T11:24:00.000Z</time>
      </trkpt>
      <trkpt lat="50.33883" lon="4.28681">
        <ele>160.39999389648</ele>
        <time>2014-12-29T11:24:05.000Z</time>
      </trkpt>
      <trkpt lat="50.33884" lon="4.28684">
        <ele>160.60000610352</ele>
        <time>2014-12-29T11:24:11.000Z</time>
      </trkpt>
      <trkpt lat="50.33886" lon="4.28688">
        <ele>160.60000610352</ele>
        <time>2014-12-29T11:24:19.000Z</time>
      </trkpt>
      <trkpt lat="50.33886" lon="4.28695">
        <ele>161</ele>
        <time>2014-12-29T11:24:27.000Z</time>
      </trkpt>
      <trkpt lat="50.33889" lon="4.28702">
        <ele>160.80000305176</ele>
        <time>2014-12-29T11:24:33.000Z</time>
      </trkpt>
      <trkpt lat="50.33893" lon="4.28711">
        <ele>160.39999389648</ele>
        <time>2014-12-29T11:24:40.000Z</time>
      </trkpt>
      <trkpt lat="50.33895" lon="4.28717">
        <ele>160.19999694824</ele>
        <time>2014-12-29T11:24:45.000Z</time>
      </trkpt>
      <trkpt lat="50.33899" lon="4.2872">
        <ele>159.80000305176</ele>
        <time>2014-12-29T11:24:51.000Z</time>
      </trkpt>
      <trkpt lat="50.33901" lon="4.28724">
        <ele>159.39999389648</ele>
        <time>2014-12-29T11:24:56.000Z</time>
      </trkpt>
      <trkpt lat="50.33903" lon="4.2873">
        <ele>159.19999694824</ele>
        <time>2014-12-29T11:25:00.000Z</time>
      </trkpt>
      <trkpt lat="50.33905" lon="4.28734">
        <ele>159</ele>
        <time>2014-12-29T11:25:06.000Z</time>
      </trkpt>
      <trkpt lat="50.33908" lon="4.28739">
        <ele>158.60000610352</ele>
        <time>2014-12-29T11:25:10.000Z</time>
      </trkpt>
      <trkpt lat="50.33909" lon="4.28741">
        <ele>158.39999389648</ele>
        <time>2014-12-29T11:25:12.000Z</time>
      </trkpt>
      <trkpt lat="50.33911" lon="4.28746">
        <ele>158.19999694824</ele>
        <time>2014-12-29T11:25:16.000Z</time>
      </trkpt>
      <trkpt lat="50.33915" lon="4.28752">
        <ele>157.80000305176</ele>
        <time>2014-12-29T11:25:23.000Z</time>
      </trkpt>
      <trkpt lat="50.33917" lon="4.28753">
        <ele>157.39999389648</ele>
        <time>2014-12-29T11:25:26.000Z</time>
      </trkpt>
      <trkpt lat="50.33922" lon="4.28754">
        <ele>156.80000305176</ele>
        <time>2014-12-29T11:25:30.000Z</time>
      </trkpt>
      <trkpt lat="50.33923" lon="4.28754">
        <ele>156.60000610352</ele>
        <time>2014-12-29T11:25:31.000Z</time>
      </trkpt>
      <trkpt lat="50.33923" lon="4.28757">
        <ele>156.60000610352</ele>
        <time>2014-12-29T11:25:36.000Z</time>
      </trkpt>
      <trkpt lat="50.33923" lon="4.28764">
        <ele>156.80000305176</ele>
        <time>2014-12-29T11:25:44.000Z</time>
      </trkpt>
      <trkpt lat="50.33924" lon="4.28767">
        <ele>156.60000610352</ele>
        <time>2014-12-29T11:25:50.000Z</time>
      </trkpt>
      <trkpt lat="50.33927" lon="4.2877">
        <ele>156.19999694824</ele>
        <time>2014-12-29T11:25:55.000Z</time>
      </trkpt>
      <trkpt lat="50.33928" lon="4.28778">
        <ele>156.19999694824</ele>
        <time>2014-12-29T11:26:01.000Z</time>
      </trkpt>
      <trkpt lat="50.33929" lon="4.2878">
        <ele>156</ele>
        <time>2014-12-29T11:26:02.000Z</time>
      </trkpt>
      <trkpt lat="50.33934" lon="4.28783">
        <ele>155.39999389648</ele>
        <time>2014-12-29T11:26:07.000Z</time>
      </trkpt>
      <trkpt lat="50.33941" lon="4.28783">
        <ele>154.39999389648</ele>
        <time>2014-12-29T11:26:12.000Z</time>
      </trkpt>
      <trkpt lat="50.33944" lon="4.28782">
        <ele>153.80000305176</ele>
        <time>2014-12-29T11:26:18.000Z</time>
      </trkpt>
      <trkpt lat="50.33946" lon="4.28782">
        <ele>153.60000610352</ele>
        <time>2014-12-29T11:26:20.000Z</time>
      </trkpt>
      <trkpt lat="50.33951" lon="4.28783">
        <ele>153</ele>
        <time>2014-12-29T11:26:27.000Z</time>
      </trkpt>
      <trkpt lat="50.33956" lon="4.28783">
        <ele>152.19999694824</ele>
        <time>2014-12-29T11:26:33.000Z</time>
      </trkpt>
      <trkpt lat="50.33962" lon="4.28784">
        <ele>151.39999389648</ele>
        <time>2014-12-29T11:26:40.000Z</time>
      </trkpt>
      <trkpt lat="50.33964" lon="4.28784">
        <ele>151.19999694824</ele>
        <time>2014-12-29T11:26:41.000Z</time>
      </trkpt>
      <trkpt lat="50.33966" lon="4.28786">
        <ele>150.60000610352</ele>
        <time>2014-12-29T11:26:47.000Z</time>
      </trkpt>
      <trkpt lat="50.33971" lon="4.2879">
        <ele>148.60000610352</ele>
        <time>2014-12-29T11:27:27.000Z</time>
      </trkpt>
      <trkpt lat="50.3397" lon="4.28793">
        <ele>149.19999694824</ele>
        <time>2014-12-29T11:28:00.000Z</time>
      </trkpt>
      <trkpt lat="50.33969" lon="4.28795">
        <ele>149.60000610352</ele>
        <time>2014-12-29T11:28:19.000Z</time>
      </trkpt>
      <trkpt lat="50.33962" lon="4.28795">
        <ele>151.80000305176</ele>
        <time>2014-12-29T11:28:26.000Z</time>
      </trkpt>
      <trkpt lat="50.3395" lon="4.28794">
        <ele>153.60000610352</ele>
        <time>2014-12-29T11:28:36.000Z</time>
      </trkpt>
      <trkpt lat="50.33941" lon="4.28791">
        <ele>154.80000305176</ele>
        <time>2014-12-29T11:28:45.000Z</time>
      </trkpt>
      <trkpt lat="50.33928" lon="4.28785">
        <ele>156.39999389648</ele>
        <time>2014-12-29T11:29:00.000Z</time>
      </trkpt>
      <trkpt lat="50.33925" lon="4.28776">
        <ele>156.60000610352</ele>
        <time>2014-12-29T11:29:07.000Z</time>
      </trkpt>
      <trkpt lat="50.33928" lon="4.28766">
        <ele>156</ele>
        <time>2014-12-29T11:29:13.000Z</time>
      </trkpt>
      <trkpt lat="50.33926" lon="4.28756">
        <ele>156.19999694824</ele>
        <time>2014-12-29T11:29:19.000Z</time>
      </trkpt>
      <trkpt lat="50.33927" lon="4.28744">
        <ele>156</ele>
        <time>2014-12-29T11:29:28.000Z</time>
      </trkpt>
      <trkpt lat="50.33928" lon="4.28743">
        <ele>155.80000305176</ele>
        <time>2014-12-29T11:29:29.000Z</time>
      </trkpt>
      <trkpt lat="50.33932" lon="4.28732">
        <ele>154.80000305176</ele>
        <time>2014-12-29T11:29:37.000Z</time>
      </trkpt>
      <trkpt lat="50.33933" lon="4.28731">
        <ele>154.60000610352</ele>
        <time>2014-12-29T11:29:38.000Z</time>
      </trkpt>
      <trkpt lat="50.33933" lon="4.2873">
        <ele>154.60000610352</ele>
        <time>2014-12-29T11:29:39.000Z</time>
      </trkpt>
      <trkpt lat="50.33934" lon="4.28727">
        <ele>154.39999389648</ele>
        <time>2014-12-29T11:29:42.000Z</time>
      </trkpt>
      <trkpt lat="50.33938" lon="4.28717">
        <ele>153.60000610352</ele>
        <time>2014-12-29T11:29:48.000Z</time>
      </trkpt>
      <trkpt lat="50.33941" lon="4.28707">
        <ele>152.80000305176</ele>
        <time>2014-12-29T11:29:54.000Z</time>
      </trkpt>
      <trkpt lat="50.33943" lon="4.28705">
        <ele>152.39999389648</ele>
        <time>2014-12-29T11:30:01.000Z</time>
      </trkpt>
      <trkpt lat="50.33947" lon="4.28704">
        <ele>151.80000305176</ele>
        <time>2014-12-29T11:30:05.000Z</time>
      </trkpt>
      <trkpt lat="50.33949" lon="4.28702">
        <ele>151.39999389648</ele>
        <time>2014-12-29T11:30:09.000Z</time>
      </trkpt>
      <trkpt lat="50.33952" lon="4.28701">
        <ele>151</ele>
        <time>2014-12-29T11:30:11.000Z</time>
      </trkpt>
      <trkpt lat="50.33977" lon="4.28796">
        <ele>146</ele>
        <time>2014-12-29T12:44:33.000Z</time>
      </trkpt>
    </trkseg>
  </trk>
</gpx>